[[{"header":{"parameterUnit":"m.s-1","parameterCategory":1,"la1":31.0,"la2":29.5877,"lo1":-88.7671,"lo2":-86.6584,"dy":0.0162,"dx":0.0185,"nx":115,"ny":88,"refTime":"2026-04-08T00:00:00:Z","depth":0,"parameterNumber":2,"parameterNumberName":"U-component_of_WINDS"},"data":[0.0,0.0,0.0,0.0,0.0,0.0,0.0,0.0,0.0,0.0,0.0,0.0,0.0,0.0,0.0,0.0,0.0,0.0,0.0,0.0,0.0,0.0,0.0,0.0,0.0,0.0,0.0,0.0,0.0,0.0,0.0,0.0,0.0,0.0,0.0,0.0,0.0,0.0,0.0,0.0,0.0,0.0,0.0,0.0,0.0,0.0,0.0,0.0,0.0,0.0,0.0,0.0,0.0,0.0,0.0,0.0,0.0,0.0,0.0,0.0,0.0,0.0,0.0,0.0,0.0,0.0,0.0,0.0,0.0,0.0,0.0,0.0,0.0,0.0,0.0,0.0,0.0,0.0,0.0,0.0,0.0,0.0,0.0,0.0,0.0,0.0,0.0,0.0,0.0,0.0,0.0,0.0,0.0,0.0,0.0,0.0,0.0,0.0,0.0,0.0,0.0,0.0,0.0,0.0,0.0,0.0,0.0,0.0,0.0,0.0,0.0,0.0,0.0,0.0,0.0,0.0,0.0,0.0,0.0,0.0,0.0,0.0,0.0,0.0,0.0,0.0,0.0,0.0,0.0,0.0,0.0,0.0,0.0,0.0,0.0,0.0,0.0,0.0,0.0,0.0,0.0,0.0,0.0,0.0,0.0,0.0,0.0,0.0,0.0,0.0,0.0,0.0,0.0,0.0,0.0,0.0,0.0,0.0,0.0,0.0,0.0,0.0,0.0,0.0,0.0,0.0,0.0,0.0,0.0,0.0,0.0,0.0,0.0,0.0,0.0,0.0,0.0,0.0,0.0,0.0,0.0,0.0,0.0,0.0,0.0,0.0,0.0,0.0,0.0,0.0,0.0,0.0,0.0,0.0,0.0,0.0,0.0,0.0,0.0,0.0,0.0,0.0,0.0,0.0,0.0,0.0,0.0,0.0,0.0,0.0,0.0,0.0,0.0,0.0,0.0,0.0,0.0,0.0,0.0,0.0,0.0,0.0,0.0,0.0,0.0,0.0,0.0,0.0,0.0,0.0,0.0,0.0,0.0,0.0,0.0,0.0,0.0,0.0,0.0,0.0,0.0,0.0,0.0,0.0,0.0,0.0,0.0,0.0,0.0,0.0,0.0,0.0,0.0,0.0,0.0,0.0,0.0,0.0,0.0,0.0,0.0,0.0,0.0,0.0,0.0,0.0,0.0,0.0,0.0,0.0,0.0,0.0,0.0,0.0,0.0,0.0,0.0,0.0,0.0,0.0,0.0,0.0,0.0,0.0,0.0,0.0,0.0,0.0,0.0,0.0,0.0,0.0,0.0,0.0,0.0,0.0,0.0,0.0,0.0,0.0,0.0,0.0,0.0,0.0,0.0,0.0,0.0,0.0,0.0,0.0,0.0,0.0,0.0,0.0,0.0,0.0,0.0,0.0,0.0,0.0,0.0,0.0,0.0,0.0,0.0,0.0,0.0,0.0,0.0,0.0,0.0,0.0,0.0,0.0,0.0,0.0,0.0,0.0,0.0,0.0,0.0,0.0,0.0,0.0,0.0,0.0,0.0,0.0,0.0,0.0,0.0,0.0,0.0,0.0,0.0,0.0,0.0,0.0,0.0,0.0,0.0,0.0,0.0,0.0,0.0,0.0,0.0,0.0,0.0,0.0,0.0,0.0,0.0,0.0,0.0,0.0,0.0,0.0,0.0,0.0,0.0,0.0,0.0,0.0,0.0,0.0,0.0,0.0,0.0,0.0,0.0,0.0,0.0,0.0,0.0,0.0,0.0,0.0,0.0,0.0,0.0,0.0,0.0,0.0,0.0,0.0,0.0,0.0,0.0,0.0,0.0,0.0,0.0,0.0,0.0,0.0,0.0,0.0,0.0,0.0,0.0,0.0,0.0,0.0,0.0,0.0,0.0,0.0,0.0,0.0,0.0,0.0,0.0,0.0,0.0,0.0,0.0,0.0,0.0,0.0,0.0,0.0,0.0,0.0,0.0,0.0,0.0,0.0,0.0,0.0,0.0,0.0,0.0,0.0,0.0,0.0,0.0,0.0,0.0,0.0,0.0,0.0,0.0,0.0,0.0,0.0,0.0,0.0,0.0,0.0,0.0,0.0,0.0,0.0,0.0,0.0,0.0,0.0,0.0,0.0,0.0,0.0,0.0,0.0,0.0,0.0,0.0,0.0,0.0,0.0,0.0,0.0,0.0,0.0,0.0,0.0,0.0,0.0,0.0,0.0,0.0,0.0,0.0,0.0,0.0,0.0,0.0,0.0,0.0,0.0,0.0,0.0,0.0,0.0,0.0,0.0,0.0,0.0,0.0,0.0,0.0,0.0,0.0,0.0,0.0,0.0,0.0,0.0,0.0,0.0,0.0,0.0,0.0,0.0,0.0,0.0,0.0,0.0,0.0,0.0,0.0,0.0,0.0,0.0,0.0,0.0,0.0,0.0,0.0,0.0,0.0,0.0,0.0,0.0,0.0,0.0,0.0,0.0,0.0,0.0,0.0,0.0,0.0,0.0,0.0,0.0,0.0,0.0,0.0,0.0,0.0,0.0,0.0,0.0,0.0,0.0,0.0,0.0,0.0,0.0,0.0,0.0,0.0,0.0,0.0,0.0,0.0,0.0,0.0,0.0,0.0,0.0,0.0,0.0,0.0,0.0,0.0,0.0,0.0,0.0,0.0,0.0,0.0,0.0,0.0,0.0,0.0,0.0,0.0,0.0,0.0,0.0,0.0,0.0,0.0,0.0,0.0,0.0,0.0,0.0,0.0,0.0,0.0,0.0,0.0,0.0,0.0,0.0,0.0,0.0,0.0,0.0,0.0,0.0,0.0,0.0,0.0,0.0,0.0,0.0,0.0,0.0,0.0,0.0,0.0,0.0,0.0,0.0,0.0,0.0,0.0,0.0,0.0,0.0,0.0,0.0,0.0,0.0,0.0,0.0,0.0,0.0,0.0,0.0,0.0,0.0,0.0,0.0,0.0,0.0,0.0,0.0,0.0,0.0,0.0,0.0,0.0,0.0,0.0,0.0,0.0,0.0,0.0,0.0,0.0,0.0,0.0,0.0,0.0,0.0,0.0,0.0,0.0,0.0,0.0,0.0,0.0,0.0,0.0,0.0,0.0,0.0,0.0,0.0,0.0,0.0,0.0,0.0,0.0,0.0,0.0,0.0,0.0,0.0,0.0,0.0,0.0,0.0,0.0,0.0,0.0,0.0,0.0,0.0,0.0,0.0,0.0,0.0,0.0,0.0,0.0,0.0,0.0,0.0,0.0,0.0,0.0,0.0,0.0,0.0,0.0,0.0,0.0,0.0,0.0,0.0,0.0,0.0,0.0,0.0,0.0,0.0,0.0,0.0,0.0,0.0,0.0,0.0,0.0,0.0,0.0,0.0,0.0,0.0,0.0,0.0,0.0,0.0,0.0,0.0,0.0,0.0,0.0,0.0,0.0,0.0,0.0,0.0,0.0,0.0,0.0,0.0,0.0,0.0,0.0,0.0,0.0,0.0,0.0,0.0,0.0,0.0,0.0,0.0,0.0,0.0,0.0,0.0,0.0,0.0,0.0,0.0,0.0,0.0,0.0,0.0,0.0,0.0,0.0,0.0,0.0,0.0,0.0,0.0,0.0,0.0,0.0,0.0,0.0,0.0,0.0,0.0,0.0,0.0,0.0,0.0,0.0,0.0,0.0,0.0,0.0,0.0,0.0,0.0,0.0,0.0,0.0,0.0,0.0,0.0,0.0,0.0,0.0,0.0,0.0,0.0,0.0,0.0,0.0,0.0,0.0,0.0,0.0,0.0,0.0,0.0,0.0,0.0,0.0,0.0,0.0,0.0,0.0,0.0,0.0,0.0,0.0,0.0,0.0,0.0,0.0,0.0,0.0,0.0,0.0,0.0,0.0,0.0,0.0,0.0,0.0,0.0,0.0,0.0,0.0,0.0,0.0,0.0,0.0,0.0,0.0,0.0,0.0,0.0,0.0,0.0,0.0,0.0,0.0,0.0,0.0,0.0,0.0,0.0,0.0,0.0,0.0,0.0,0.0,0.0,0.0,0.0,0.0,0.0,0.0,0.0,0.0,0.0,0.0,0.0,0.0,0.0,0.0,0.0,0.0,0.0,0.0,0.0,0.0,0.0,0.0,0.0,0.0,0.0,0.0,0.0,0.0,0.0,0.0,0.0,0.0,0.0,0.0,0.0,0.0,0.0,0.0,0.0,0.0,0.0,0.0,0.0,0.0,0.0,0.0,0.0,0.0,0.0,0.0,0.0,0.0,0.0,0.0,0.0,0.0,0.0,0.6669,0.0,0.0,0.0,0.0,0.0,0.0,0.0,0.0,0.0,0.0,0.0,0.0,0.0,0.0,0.0,0.0,0.0,0.0,0.0,0.0,0.0,0.0,0.0,0.0,0.0,0.0,0.0,0.0,0.0,0.0,0.0,0.0,0.0,0.0,0.0,0.0,0.0,0.0,0.0,0.0,0.0,0.0,0.0,0.0,0.0,0.0,0.0,0.0,0.0,0.0,0.0,0.0,0.0,0.0,0.0,0.0,0.0,0.0,0.0,0.0,0.0,0.0,0.0,0.0,0.0,0.0,0.0,0.0,0.0,0.0,0.0,0.0,0.0,0.0,0.0,0.0,0.0,0.0,0.0,0.0,0.0,0.0,0.0,0.0,0.0,0.0,0.0,0.0,0.0,0.0,0.0,0.0,0.0,0.0,0.0,0.0,0.0,0.0,0.0,0.0,0.0,0.0,0.0,0.0,0.0,0.0,0.0,0.0,0.0,0.0,1.1491,1.08,0.9439,0.804,0.6656,0.0,0.0,0.0,0.0,0.0,0.0,0.0,0.0,0.0,0.0,0.0,0.0,0.0,0.0,0.0,0.0,0.0,0.0,0.0,0.0,0.0,0.0,0.0,0.0,0.0,0.0,0.0,0.0,0.0,0.0,0.0,0.0,0.0,0.0,0.0,0.0,0.0,0.0,0.0,0.0,0.0,0.0,0.0,0.0,0.0,0.0,0.0,0.0,0.0,0.0,0.0,0.0,0.0,0.0,0.0,0.0,0.0,0.0,0.0,0.0,0.0,0.0,0.0,0.0,0.0,0.0,0.0,0.0,0.0,0.0,0.0,0.0,0.0,0.0,0.0,0.0,0.0,0.0,0.0,0.0,0.0,0.0,0.0,0.0,0.0,0.0,0.0,0.0,0.0,0.0,0.0,0.0,0.0,0.0,0.0,0.0,0.0,0.0,0.0,0.0,0.0,0.0,0.0,0.0,0.0,0.0,0.0,0.0,0.0,0.0,0.0,0.0,0.9233,0.7668,0.6253,0.0,0.0,0.0,0.0,0.0,0.0,0.0,0.0,0.0,0.0,0.0,0.0,0.0,0.0,0.0,0.0,0.0,0.0,0.0,0.0,0.0,0.0,0.0,0.0,0.0,0.0,0.0,0.0,0.0,0.0,0.0,0.0,0.0,0.0,0.0,0.0,0.0,0.0,0.0,0.0,0.0,0.0,0.0,0.0,0.0,0.0,0.0,0.0,0.0,0.0,0.0,0.0,0.0,0.0,0.0,0.0,0.0,0.0,0.0,0.0,0.0,0.0,0.0,0.0,0.0,0.0,0.0,0.0,0.0,0.0,0.0,0.0,0.0,0.0,0.0,0.0,0.0,0.0,0.0,0.0,0.0,0.0,0.0,0.0,0.0,0.0,0.0,0.0,0.0,0.0,0.0,0.0,0.0,0.0,0.0,0.0,0.0,0.0,0.0,0.0,0.0,0.0,0.0,0.0,0.0,0.0,0.0,0.0,0.0,0.0,1.0961,1.1034,0.8578,0.0,0.5163,0.0,0.0,0.0,0.0,0.0,0.0,0.0,0.0,0.0,0.0,0.0,0.0,0.0,0.0,0.0,0.0,0.0,0.0,0.0,0.0,0.0,0.0,0.0,0.0,0.0,0.0,0.0,0.0,0.0,0.0,0.0,0.0,0.0,0.0,0.0,0.0,0.0,0.0,0.0,0.0,0.0,0.0,0.0,0.0,0.0,0.0,0.0,0.0,0.0,0.0,0.0,0.0,0.0,0.0,0.0,0.0,0.0,0.0,0.0,0.0,0.0,0.0,0.0,0.0,0.0,0.0,0.0,0.0,0.0,0.0,0.0,0.0,0.0,0.0,0.0,0.0,0.0,0.0,0.0,0.0,0.0,0.0,0.0,0.0,0.0,0.0,0.0,0.0,0.0,0.0,0.0,0.0,0.0,0.0,0.0,0.0,0.0,0.0,0.0,0.0,0.0,0.0,0.0,0.0,0.0,0.0,0.0,0.0,0.0,0.0,0.0,1.0581,0.8313,0.6413,0.0,0.0,0.0,0.0,0.0,0.0,0.0,0.0,0.0,0.0,0.0,0.0,0.0,0.0,0.0,0.0,0.0,0.0,0.0,0.0,0.0,0.0,0.0,0.0,0.0,0.0,0.0,0.0,0.0,0.0,0.0,0.0,0.0,0.0,0.0,0.0,0.0,0.0,0.0,0.0,0.0,0.0,0.0,0.0,0.0,0.0,0.0,0.0,0.0,0.0,0.0,0.0,0.0,0.0,0.0,0.0,0.0,0.0,0.0,0.0,0.0,0.0,0.0,0.0,0.0,0.0,0.0,0.0,0.0,0.0,0.0,0.0,0.0,0.0,0.0,0.0,0.0,0.0,0.0,0.0,0.0,0.0,0.0,0.0,0.0,0.0,0.0,0.0,0.0,0.0,0.0,0.0,0.0,0.0,0.0,0.0,0.0,0.0,0.0,0.0,0.0,0.0,0.0,0.0,0.0,0.0,0.0,0.0,0.0,0.0,1.2601,0.0,0.9718,0.7892,0.6275,0.4963,0.0,0.0,0.0,0.0,0.0,0.0,0.0,0.0,0.0,0.0,0.0,0.0,0.0,0.0,0.0,0.0,0.0,0.0,0.0,0.0,0.0,0.0,0.0,0.0,0.0,0.0,0.0,0.0,0.0,0.0,0.0,0.0,0.0,0.0,0.0,0.0,0.0,0.0,0.0,0.0,0.0,0.0,0.0,0.0,0.0,0.0,0.0,0.0,0.0,0.0,0.0,0.0,0.0,0.0,0.0,0.0,0.0,0.0,0.0,0.0,0.0,0.0,0.0,0.0,0.0,0.0,0.0,0.0,0.0,0.0,0.0,0.0,0.0,0.0,0.0,0.0,0.0,0.0,0.0,0.0,0.0,0.0,0.0,0.0,0.0,0.0,0.0,0.0,0.0,0.0,0.0,0.0,0.0,0.0,0.0,0.0,0.0,0.0,0.0,0.0,0.0,0.0,0.0,0.0,0.0,0.0,0.0,0.0,0.0,1.3045,1.0931,0.8593,0.7167,0.5965,0.0,0.0,0.0,0.0,0.0,0.0,0.0,0.0,0.0,0.0,0.0,0.0,0.0,0.0,0.0,0.0,0.0,0.0,0.0,0.0,0.0,0.0,0.0,0.0,0.0,0.0,0.0,0.0,0.0,0.0,0.0,0.0,0.0,0.0,0.0,0.0,0.0,0.0,0.0,0.0,0.0,0.0,0.0,0.0,0.0,0.0,0.0,0.0,0.0,0.0,0.0,0.0,0.0,0.0,0.0,0.0,0.0,0.0,0.0,0.0,0.0,0.0,0.0,0.0,0.0,0.0,0.0,0.0,0.0,0.0,0.0,0.0,0.0,0.0,0.0,0.0,0.0,0.0,0.0,0.0,0.0,0.0,0.0,0.0,0.0,0.0,0.0,0.0,0.0,0.0,0.0,0.0,0.0,0.0,0.0,0.0,0.0,0.0,0.0,0.0,0.0,0.0,0.0,0.0,0.0,0.0,0.0,0.0,0.0,1.2863,1.1182,0.9743,0.8669,0.7486,0.6327,0.0,0.0,0.0,0.0,0.0,0.0,0.0,0.0,0.0,0.0,0.0,0.0,0.0,0.0,0.0,0.0,0.0,0.0,0.0,0.0,0.0,0.0,0.0,0.0,0.0,0.0,0.0,0.0,0.0,0.0,0.0,0.0,0.0,0.0,0.0,0.0,0.0,0.0,0.0,0.0,0.0,0.0,0.0,0.0,0.0,0.0,0.0,0.0,0.0,0.0,0.0,0.0,0.0,0.0,0.0,0.0,0.0,0.0,0.0,0.0,0.0,0.0,0.0,0.0,0.0,0.0,0.0,0.0,0.0,0.0,0.0,0.0,0.0,0.0,0.0,0.0,0.0,0.0,0.0,0.0,0.0,0.0,0.0,0.0,0.0,0.0,0.0,0.0,0.0,0.0,0.0,0.0,0.0,0.0,0.0,0.0,0.0,0.0,0.0,0.0,0.0,0.0,0.0,0.0,0.0,0.0,0.0,0.0,0.0,1.1978,0.0,1.0135,0.0,0.79,0.6615,0.0,0.0,0.0,0.0,0.0,0.0,0.0,0.0,0.0,0.0,0.0,0.0,0.0,0.0,0.0,0.0,0.0,0.0,0.0,0.0,0.0,0.0,0.0,0.0,0.0,0.0,0.0,0.0,0.0,0.0,0.0,0.0,0.0,0.0,0.0,0.0,0.0,0.0,0.0,0.0,0.0,0.0,0.0,0.0,0.0,0.0,0.0,0.0,0.0,0.0,0.0,0.0,0.0,0.0,0.0,0.0,0.0,0.0,0.0,0.0,0.0,0.0,0.0,0.0,0.0,0.0,0.0,0.0,0.0,0.0,0.0,0.0,0.0,0.0,0.0,0.0,0.0,0.0,0.0,0.0,0.0,0.0,0.0,0.0,0.0,0.0,0.0,0.0,0.0,0.0,0.0,0.0,0.0,0.0,0.0,0.0,0.0,0.0,0.0,0.0,0.0,0.0,0.0,0.0,0.0,0.0,0.0,0.0,1.1928,1.2394,1.2851,1.2048,1.0392,0.832,0.674,0.0,0.0,0.0,0.0,0.0,0.0,0.0,0.0,0.0,0.0,0.0,0.0,0.0,0.0,0.0,0.0,0.0,0.0,0.0,0.0,0.0,0.0,0.0,0.0,0.0,0.0,0.0,0.0,0.0,0.0,0.0,0.0,0.0,0.0,0.0,0.0,0.0,0.0,0.0,0.0,0.0,0.0,0.0,0.0,0.0,0.0,0.0,0.0,0.0,0.0,0.0,0.0,0.0,0.0,0.0,0.0,0.0,0.0,0.0,0.0,0.0,0.0,0.0,0.0,0.0,0.0,0.0,0.0,0.0,0.0,0.0,0.0,0.0,0.0,0.0,0.0,0.0,0.0,0.0,0.0,0.0,0.0,0.0,0.0,0.0,0.0,0.0,0.0,0.0,0.0,0.0,0.0,0.0,0.0,0.0,0.0,0.0,0.0,0.0,0.0,0.0,0.0,0.0,0.0,0.0,0.0,0.0,0.0,0.0,0.8961,1.0064,0.9962,0.8533,0.7798,0.6897,0.0,0.0,0.0,0.0,0.0,0.0,0.0,0.0,0.0,0.0,0.0,0.0,0.0,0.0,0.0,0.0,0.0,0.0,0.0,0.0,0.0,0.0,0.0,0.0,0.0,0.0,0.0,0.0,0.0,0.0,0.0,0.0,0.0,0.0,0.0,0.0,0.0,0.0,0.0,0.0,0.0,0.0,0.0,0.0,0.0,0.0,0.0,0.0,0.0,0.0,0.0,0.0,0.0,0.0,0.0,0.0,0.0,0.0,0.0,0.0,0.0,0.0,0.0,0.0,0.0,0.0,0.0,0.0,0.0,0.0,0.0,0.0,0.0,0.0,0.0,0.0,0.0,0.0,0.0,0.0,0.0,0.0,0.0,0.0,0.0,0.0,0.0,0.0,0.0,0.0,0.0,0.0,0.0,0.0,0.0,0.0,0.0,0.0,0.0,0.0,0.0,0.0,0.0,0.0,0.0,0.0,0.0,0.0,0.0,0.7328,0.9203,0.9676,0.8526,0.807,0.7274,0.606,0.0,0.0,0.0,0.0,0.0,0.0,0.0,0.0,0.0,0.0,0.0,0.0,0.0,0.0,0.0,0.0,0.0,0.0,0.0,0.0,0.0,0.0,0.0,0.0,0.0,0.0,0.0,0.0,0.0,0.0,0.0,0.0,0.0,0.0,0.0,0.0,0.0,0.0,0.0,0.0,0.0,0.0,0.0,0.0,0.0,0.0,0.0,0.0,0.0,0.0,0.0,0.0,0.0,0.0,0.0,0.0,0.0,0.0,0.0,0.0,0.0,0.0,0.0,0.0,0.0,0.0,0.0,0.0,0.0,0.0,0.0,0.0,0.0,0.0,0.0,0.0,0.0,0.0,0.0,0.0,0.0,0.0,0.0,0.0,0.0,0.0,0.0,0.0,0.0,0.0,0.0,0.0,0.0,0.0,0.0,0.0,0.0,0.0,0.0,0.0,0.0,0.0,0.0,0.0,0.0,0.0,0.0,0.0,0.7215,0.9938,1.0877,0.9879,0.8896,0.7771,0.0,0.0,0.0,0.0,0.0,0.0,0.0,0.0,0.0,0.0,0.0,0.0,0.0,0.0,0.0,0.0,0.0,0.0,0.0,0.0,0.0,0.0,0.0,0.0,0.0,0.0,0.0,0.0,0.0,0.0,0.0,0.0,0.0,0.0,0.0,0.0,0.0,0.0,0.0,0.0,0.0,0.0,0.0,0.0,0.0,0.0,0.0,0.0,0.0,0.0,0.0,0.0,0.0,0.0,0.0,0.0,0.0,0.0,0.0,0.0,0.0,0.0,0.0,0.0,0.0,0.0,0.0,0.0,0.0,0.0,0.0,0.0,0.0,0.0,0.0,0.0,0.0,0.0,0.0,0.0,0.0,0.0,0.0,0.0,0.0,0.0,0.0,0.0,0.0,0.0,0.0,0.0,0.0,0.0,0.0,0.0,0.0,0.0,0.0,0.0,0.0,0.0,0.0,0.0,0.0,0.0,0.0,0.0,0.0,0.8438,0.952,0.9692,0.8937,0.8476,0.7736,0.0,0.0,0.0,0.0,0.0,0.0,0.0,0.0,0.0,0.0,0.0,0.0,0.0,0.0,0.0,0.0,0.0,0.0,0.0,0.0,0.0,0.0,0.0,0.0,0.0,0.0,0.0,0.0,0.0,0.0,0.0,0.0,0.0,0.0,0.0,0.0,0.0,0.0,0.0,0.0,0.0,0.0,0.0,0.0,0.0,0.0,0.0,0.0,0.0,0.0,0.0,0.0,0.0,0.0,0.0,0.0,0.0,0.0,0.0,0.0,0.0,0.0,0.0,0.0,0.0,0.0,0.0,0.0,0.0,0.0,0.0,0.0,0.0,0.0,0.0,0.0,0.0,0.0,0.0,0.0,0.0,0.0,0.0,0.0,0.0,0.0,0.0,0.0,0.0,0.0,0.0,0.0,0.0,0.0,0.0,0.0,0.0,0.0,0.0,0.0,0.0,0.0,0.0,0.0,0.0,0.0,0.0,0.0,0.7616,0.8987,0.9713,0.9781,0.9129,0.8609,0.7834,0.0,0.0,0.0,0.0,0.0,0.0,0.0,0.0,0.0,0.0,0.0,0.0,0.0,0.0,0.0,0.0,0.0,0.0,0.0,0.0,0.0,0.0,0.0,0.0,0.0,0.0,0.0,0.0,0.0,0.0,0.0,0.0,0.0,0.0,0.0,0.0,0.0,0.0,0.0,0.0,0.0,0.0,0.0,0.0,0.0,0.0,0.0,0.0,0.0,0.0,0.0,0.0,0.0,0.0,0.0,0.0,0.0,0.0,0.0,0.0,0.0,0.0,0.0,0.0,0.0,0.0,0.0,0.0,0.0,0.0,0.0,0.0,0.0,0.0,0.0,0.0,0.0,0.0,0.0,0.0,0.0,0.0,0.0,0.0,0.0,0.0,0.0,0.0,0.0,0.0,0.0,0.0,0.0,0.0,0.0,0.0,0.0,0.0,0.0,0.0,0.0,0.0,0.0,0.0,0.0,0.0,0.0,0.0,0.7565,0.9286,1.0243,1.0508,1.0076,0.9089,0.8052,0.0,0.0,0.0,0.0,0.0,0.0,0.0,0.0,0.0,0.0,0.0,0.0,0.0,0.0,0.0,0.0,0.0,0.0,0.0,0.0,0.0,0.0,0.0,0.0,0.0,0.0,0.0,0.0,0.0,0.0,0.0,0.0,0.0,0.0,0.0,0.0,0.0,0.0,0.0,0.0,0.0,0.0,0.0,0.0,0.0,0.0,0.0,0.0,0.0,0.0,0.0,0.0,0.0,0.0,0.0,0.0,0.0,0.0,0.0,0.0,0.0,0.0,0.0,0.0,0.0,0.0,0.0,0.0,0.0,0.0,0.0,0.0,0.0,0.0,0.0,0.0,0.0,0.0,0.0,0.0,0.0,0.0,0.0,0.0,0.0,0.0,0.0,0.0,0.0,0.0,0.0,0.0,0.0,0.0,0.0,0.0,0.0,0.0,0.0,0.0,0.0,0.0,0.0,0.0,0.0,0.0,0.0,0.0,0.7944,1.015,1.0663,1.0765,1.0549,0.942,0.8378,0.0,0.0,0.0,0.0,0.0,0.0,0.0,0.0,0.0,0.0,0.0,0.0,0.0,0.0,0.0,0.0,0.0,0.0,0.0,0.0,0.0,0.0,0.0,0.0,0.0,0.0,0.0,0.0,0.0,0.0,0.0,0.0,0.0,0.0,0.0,0.0,0.0,0.0,0.0,0.0,0.0,0.0,0.0,0.0,0.0,0.0,0.0,0.0,1.7464,0.0,0.0,0.0,0.0,0.0,0.0,0.0,0.0,0.0,0.0,0.0,0.0,0.0,0.0,0.0,0.0,0.0,0.0,0.0,0.0,0.0,0.0,0.0,0.0,0.0,0.0,0.0,0.0,0.0,0.0,0.0,0.0,0.0,0.0,0.0,0.0,0.0,0.0,0.0,0.0,0.0,0.0,0.0,0.0,0.0,0.0,0.0,0.0,0.0,0.0,0.0,0.0,0.0,0.0,0.0,0.0,0.0,0.0,0.0,0.7747,1.0503,1.1002,1.1056,1.0677,0.9971,0.9196,0.0,0.0,0.0,0.0,0.0,0.0,0.0,0.0,0.0,0.0,0.0,0.0,0.0,0.0,0.0,0.0,0.0,0.0,0.0,0.0,0.0,0.0,0.0,0.0,0.0,0.0,0.0,0.0,0.0,0.0,0.0,0.0,0.0,0.0,0.0,0.0,0.0,0.0,0.0,0.0,0.0,0.0,0.0,0.0,0.0,0.0,0.0,0.0,0.0,0.0,0.0,0.0,0.0,0.0,0.0,0.0,0.0,0.0,0.0,0.0,0.0,0.0,0.0,0.0,0.0,0.0,0.0,0.0,0.0,0.0,0.0,0.0,0.0,0.0,0.0,0.0,0.0,0.0,0.0,0.0,0.0,0.0,0.0,0.0,0.0,0.0,0.0,0.0,0.0,0.0,0.0,0.0,0.0,0.0,0.0,0.0,0.0,0.0,0.0,0.0,0.0,0.0,0.0,0.0,0.0,0.0,0.0,0.6014,0.7597,1.0658,1.1313,1.1355,1.0806,1.048,1.0052,0.9412,0.0,0.0,0.0,0.0,0.0,0.0,0.0,0.0,0.0,0.0,0.0,0.0,0.0,0.0,0.0,0.0,0.0,0.0,0.0,0.0,0.0,0.0,0.0,0.0,0.0,0.0,0.0,0.0,0.0,0.0,0.0,0.0,0.0,0.0,0.0,0.0,0.0,0.0,1.1136,1.2355,0.0,0.0,0.0,0.0,0.0,0.0,0.0,0.0,1.6991,0.0,0.0,0.0,0.0,0.0,0.0,0.0,0.0,0.0,0.0,0.0,0.0,0.0,0.0,0.0,0.0,0.0,0.0,0.0,0.0,0.0,0.0,0.0,0.0,0.0,0.0,0.0,0.0,0.0,0.0,0.0,0.0,0.0,0.0,0.0,0.0,0.0,0.0,0.0,0.0,0.0,0.0,0.0,0.0,0.0,0.0,0.0,0.0,0.0,0.0,0.0,0.0,0.0,0.0,0.0,0.0,0.5653,0.6641,0.8493,1.1212,1.1504,1.145,1.1132,1.071,1.0279,0.9898,0.0,0.0,0.0,0.0,0.0,0.0,0.0,0.0,0.0,0.0,0.0,0.0,0.0,0.0,0.0,0.0,0.0,0.0,0.0,0.0,0.0,0.0,0.0,0.0,0.0,0.0,0.0,0.0,0.0,0.0,0.0,0.0,0.0,0.0,0.0,0.0,0.0,0.0,0.0,1.4496,1.5512,0.0,0.0,0.0,0.0,0.0,0.0,0.0,0.0,1.5899,0.0,0.0,0.0,0.0,0.0,0.0,0.0,0.0,0.0,0.0,0.0,0.0,0.0,0.0,0.0,0.0,0.0,0.0,0.0,0.0,0.0,0.0,0.0,0.0,0.0,0.0,0.0,0.0,0.0,0.0,0.0,0.0,0.0,0.0,0.0,0.0,0.0,0.0,0.0,0.0,0.0,0.0,0.0,0.0,0.0,0.0,0.0,0.0,0.0,0.0,0.0,0.0,0.0,0.0,0.0,0.573,0.7261,0.919,1.1399,1.1617,1.1552,1.12,1.05,0.9856,0.0,0.0,0.0,0.0,0.0,0.0,0.0,0.0,0.0,0.0,0.0,0.0,0.0,0.0,0.0,0.0,0.0,0.0,0.0,0.0,0.0,0.0,0.0,0.0,0.0,0.0,0.0,0.0,0.0,0.0,0.0,0.0,0.0,0.0,0.0,0.0,0.0,0.0,0.0,0.0,1.5484,1.6419,1.7972,0.0,0.0,0.0,0.0,0.0,0.0,1.5979,1.5623,0.0,0.0,0.0,0.0,0.0,0.0,0.0,0.0,0.0,0.0,0.0,0.0,0.0,0.0,0.0,0.0,0.0,0.0,0.0,0.0,0.0,0.0,0.0,0.0,0.0,0.0,0.0,0.0,0.0,0.0,0.0,0.0,0.0,0.0,0.0,0.0,0.0,0.0,0.0,0.0,0.0,0.0,0.0,0.0,0.0,0.0,0.0,0.0,0.0,0.0,0.0,0.0,0.0,0.0,0.0,0.5905,0.7962,0.9905,1.1638,1.1789,1.166,1.1329,1.0399,0.9578,0.0,0.0,0.0,0.0,0.0,0.0,0.0,0.0,0.0,0.0,0.0,0.0,0.0,0.0,0.0,0.0,0.0,0.0,0.0,0.0,0.0,0.0,0.0,0.0,0.0,0.0,0.0,0.0,0.0,0.0,0.0,0.0,0.0,0.0,0.0,0.0,0.0,0.0,0.0,0.0,0.0,1.7383,1.8716,1.7914,0.0,0.0,0.0,0.0,1.5631,1.5784,0.0,0.0,0.0,0.0,0.0,0.0,0.0,0.0,0.0,0.0,0.0,0.0,0.0,0.0,0.0,0.0,0.0,0.0,0.0,0.0,0.0,0.0,0.0,0.0,0.0,0.0,0.0,0.0,0.0,0.0,0.0,0.0,0.0,0.0,0.0,0.0,0.0,0.0,0.0,0.0,0.0,0.0,0.0,0.0,0.0,0.0,0.0,0.0,0.0,0.0,0.0,0.0,0.0,0.0,0.0,0.0,0.604,0.8808,1.0866,1.1945,1.1861,1.1766,1.1742,1.0765,1.0226,0.0,0.0,0.0,0.0,0.0,0.0,0.0,0.0,0.0,0.0,0.0,0.0,0.0,0.0,0.0,0.0,0.0,0.0,0.0,0.0,0.0,0.0,0.0,0.0,0.0,0.0,0.0,0.0,0.0,0.0,0.0,0.0,0.0,0.0,0.0,0.0,0.0,0.0,0.0,0.0,0.0,1.8908,1.8603,1.7996,1.7015,0.0,0.0,1.4513,1.3916,1.5409,0.0,0.0,0.0,0.0,0.0,0.0,0.0,0.0,0.0,0.0,0.0,0.0,0.0,0.0,0.0,0.0,0.0,0.0,0.0,0.0,0.0,0.0,0.0,0.0,0.0,0.0,0.0,0.0,0.0,0.0,0.0,0.0,0.0,0.0,0.0,0.0,0.0,0.0,0.0,0.0,0.0,0.0,0.0,0.0,0.0,0.0,0.0,0.0,0.0,0.0,0.0,0.0,0.0,0.0,0.0,0.5896,0.6123,0.9455,1.1518,1.2077,1.2081,1.2006,1.18,1.0623,1.0151,0.0,0.0,0.0,0.0,0.0,0.0,0.0,0.0,0.0,0.0,0.0,0.0,0.0,0.0,0.0,0.0,0.0,0.0,0.0,0.0,0.0,0.0,0.0,0.0,0.0,0.0,0.0,0.0,0.0,0.0,0.0,0.0,0.0,0.0,0.0,0.0,0.0,0.0,0.0,0.0,0.0,0.0,1.6646,1.6315,0.0,0.0,0.0,1.4377,1.3703,0.0,0.0,0.0,0.0,0.0,0.0,0.0,0.0,0.0,0.0,0.0,0.0,0.0,0.0,0.0,0.0,0.0,0.0,0.0,0.0,0.0,0.0,0.0,0.0,0.0,0.0,0.0,0.0,0.0,0.0,0.0,0.0,0.0,0.0,0.0,0.0,0.0,0.0,0.0,0.0,0.0,0.0,0.0,0.0,0.0,0.0,0.0,0.0,0.0,0.0,0.0,0.0,0.0,0.0,0.0,0.0,0.0,0.6167,0.9944,1.202,1.2169,1.2244,1.2182,1.1932,1.0711,0.0,0.0,0.0,0.0,0.0,0.0,0.0,0.0,0.0,0.0,0.0,0.0,0.0,0.0,0.0,0.0,0.0,0.0,0.0,0.0,0.0,0.0,0.0,0.0,0.0,0.0,0.0,0.9312,0.0,0.0,0.0,0.0,0.0,0.0,0.0,0.0,0.0,0.0,0.0,0.0,0.0,0.0,1.473,1.524,1.5206,1.5093,0.0,0.0,1.3988,1.3264,1.5329,1.6328,0.0,0.0,0.0,0.0,0.0,0.0,0.0,0.0,0.0,0.0,0.0,0.0,0.0,0.0,0.0,0.0,0.0,0.0,0.0,0.0,0.0,0.0,0.0,0.0,0.0,0.0,0.0,0.0,0.0,0.0,0.0,0.0,0.0,0.0,0.0,0.0,0.0,0.0,0.0,0.0,0.0,0.0,0.0,0.0,0.0,0.0,0.0,0.0,0.0,0.0,0.0,0.0,0.0,0.0,0.0,0.6437,1.0211,1.2325,1.2461,1.2352,1.2284,1.2244,1.1185,1.1079,0.0,0.0,0.0,0.0,0.0,0.0,0.0,0.0,0.0,0.0,0.0,0.0,0.0,0.0,0.0,0.0,0.0,0.0,0.0,0.0,0.0,0.0,0.0,0.0,0.0,0.0,0.0,0.0,0.0,0.0,0.0,0.0,0.0,0.0,0.0,0.0,0.0,0.0,0.0,0.0,0.0,1.5671,1.5342,1.5707,1.5699,0.0,0.0,1.2861,1.191,1.4085,1.5385,1.3796,0.0,0.0,0.0,0.0,0.0,0.0,0.0,0.0,0.0,0.0,0.0,0.0,0.0,0.0,0.0,0.0,0.0,0.0,0.0,0.0,0.0,0.0,0.0,0.0,0.0,0.0,0.0,0.0,0.0,0.0,0.0,0.0,0.0,0.0,0.0,0.0,0.0,0.0,0.0,0.0,0.0,0.0,0.0,0.0,0.0,0.0,0.0,0.0,0.0,0.0,0.0,0.0,0.0,0.7039,0.6363,1.0237,1.2359,1.2494,1.2447,1.2379,1.2291,1.1538,1.1627,0.0,0.0,0.0,0.0,0.0,0.0,0.0,0.0,0.0,0.0,0.0,0.0,0.0,0.0,0.0,0.0,0.0,0.0,0.0,0.0,0.0,0.0,0.0,0.0,0.0,0.0,0.0,0.0,1.2793,1.3106,1.2953,0.0,0.0,0.0,0.0,0.0,0.0,0.0,0.0,0.0,0.0,1.3008,1.3506,1.3762,0.0,0.0,1.3137,1.3059,1.3542,1.526,1.6369,1.5878,1.6745,0.0,0.0,0.0,0.0,0.0,0.0,0.0,0.0,0.0,0.0,0.0,0.0,0.0,0.0,0.0,0.0,0.0,0.0,0.0,0.0,0.0,0.0,0.0,0.0,0.0,0.0,0.0,0.0,0.0,0.0,0.0,0.0,0.0,0.0,0.0,0.0,0.0,0.0,0.0,0.0,0.0,0.0,0.0,0.0,0.0,0.0,0.0,0.0,0.0,0.0,0.0,0.0,0.7424,0.6372,1.0347,1.2474,1.2569,1.253,1.2501,1.2345,1.1816,1.1917,0.0,0.0,0.0,0.0,0.0,0.0,0.0,0.0,0.0,0.0,0.0,0.0,0.0,0.0,0.0,0.0,0.0,0.0,0.0,0.0,0.0,0.0,0.0,0.0,0.0,0.0,0.0,0.0,1.4154,1.4301,1.3807,0.0,0.0,0.0,0.0,0.0,0.0,0.0,0.0,0.0,0.0,1.1638,1.24,1.2583,1.2678,1.2786,1.2564,1.2831,1.3932,1.5474,1.656,1.6786,0.0,0.0,0.0,0.0,0.0,0.0,0.0,0.0,0.0,0.0,0.0,0.0,0.0,0.0,0.0,0.0,0.0,0.0,0.0,0.0,0.0,0.0,0.0,0.0,0.0,0.0,0.0,0.0,0.0,0.0,1.1304,0.0,0.0,0.0,0.0,0.0,0.0,0.0,0.0,0.0,0.0,0.0,0.0,0.0,0.0,0.0,0.0,0.0,0.0,0.0,0.0,0.0,0.0,0.0,0.6577,1.0571,1.2679,1.2686,1.2686,1.2611,1.2494,1.206,1.1811,1.1838,0.0,0.0,0.0,0.0,0.0,0.0,0.0,0.0,0.0,0.0,0.0,0.0,0.0,0.0,0.0,0.0,0.0,0.0,0.0,0.0,0.0,0.0,0.0,0.0,0.0,0.0,1.3605,1.4133,1.4372,0.0,0.0,0.0,0.0,0.0,0.0,0.0,0.0,0.0,0.0,1.2108,1.2474,1.2508,1.2805,1.3009,1.3016,1.2359,1.1972,1.2447,1.4102,1.5448,0.0,0.0,0.0,0.0,0.0,0.0,0.0,0.0,0.0,0.0,0.0,0.0,0.0,0.0,0.0,0.0,0.0,0.0,0.0,0.0,0.0,0.0,0.0,0.0,0.0,0.0,0.0,1.2912,1.1675,0.0,0.0,0.0,0.0,0.0,0.0,0.0,0.0,0.0,0.0,0.0,0.8817,0.9219,0.0,0.0,0.0,0.0,0.0,0.0,0.0,0.0,0.0,0.0,0.0,0.0,0.8414,0.6796,1.0589,1.2779,1.2881,1.2921,1.2813,1.2657,1.2406,1.1973,1.1371,0.0,0.0,0.0,0.0,0.0,0.0,0.0,0.0,0.0,0.0,0.0,0.0,0.0,0.0,0.0,0.0,0.0,0.0,0.0,0.0,0.0,0.0,0.0,0.0,0.0,1.2825,0.0,0.0,0.0,0.0,0.0,0.0,0.0,0.0,0.0,0.0,0.0,1.1533,1.1687,1.2187,1.2651,1.3044,1.3275,1.3478,0.0,0.0,0.0,0.0,0.0,0.0,0.0,0.0,0.0,0.0,0.0,0.0,0.0,0.0,1.9901,1.9462,1.9415,1.9676,2.0475,0.0,0.0,0.0,0.0,0.0,0.0,0.0,0.0,0.0,0.0,0.0,0.0,0.0,0.0,1.3123,0.0,1.185,0.0,0.0,0.0,0.0,0.0,0.0,0.0,0.0,0.4275,0.5724,0.7794,0.7823,0.8882,0.0,1.0411,0.9031,0.0,0.0,0.0,0.0,0.0,0.0,0.0,0.0,0.8128,0.6832,1.0733,1.2935,1.3071,1.3071,1.3003,1.2807,1.2508,1.2278,1.211,1.2949,1.3311,0.0,0.0,0.0,0.0,0.0,0.0,0.0,0.0,0.0,0.0,0.0,0.0,0.0,0.0,0.0,0.0,0.0,0.0,0.0,0.0,0.0,0.0,0.0,1.2521,0.0,0.0,0.0,0.0,0.0,0.0,0.0,0.0,0.0,1.0493,1.137,1.21,1.2289,1.2779,1.3193,1.3376,0.0,0.0,0.0,0.0,0.0,0.0,0.0,1.5307,1.6377,1.6914,1.7208,1.719,1.7991,1.8463,1.7955,0.0,0.0,1.9198,1.9078,1.9321,2.0129,2.0843,2.0772,1.9172,1.9569,1.9452,0.0,0.0,0.0,0.0,0.0,0.0,0.0,0.0,1.3541,1.334,0.0,1.266,0.0,0.0,0.0,0.0,0.0,0.4085,0.0,0.0,0.5136,0.5619,0.5385,0.5345,0.5317,0.5179,0.5281,0.4909,0.4373,0.7847,0.0,0.0,0.0,0.0,0.0,0.0,0.7664,0.6991,1.1038,1.3214,1.322,1.322,1.3152,1.3003,1.2445,1.2681,1.3797,1.2871,1.3225,1.5161,1.4022,0.0,0.0,0.0,0.0,0.0,0.0,0.0,0.0,0.0,0.0,0.0,0.0,0.0,0.0,0.0,0.0,0.0,0.0,0.0,0.0,1.2055,0.0,0.0,0.0,0.0,0.0,0.0,0.0,0.0,0.0,0.0,1.0723,1.1541,1.2404,1.3111,0.0,0.0,0.0,0.0,1.4048,1.3397,1.3152,1.3071,1.3131,1.4901,1.6295,1.632,0.0,0.0,1.9024,1.9132,1.9067,1.8294,1.9194,2.0101,1.9424,1.8632,1.8117,1.8408,1.8228,1.7654,1.7752,1.8444,1.8695,0.8003,0.0,0.0,0.0,0.0,0.7966,0.8222,0.7941,0.8956,0.8638,0.7458,0.7294,0.0,0.0,0.0,0.0,0.0,0.0,0.1312,0.1228,0.1575,0.251,0.3938,0.3971,0.4695,0.609,0.6005,0.5715,0.5366,0.6194,0.6421,0.6011,0.0,0.0,0.0,0.0,0.9695,0.9143,1.1743,1.3227,1.3336,1.3336,1.3261,1.3152,1.2887,1.2713,1.2637,1.3357,1.3549,1.3176,1.459,0.0,0.0,0.0,0.0,0.0,0.0,0.0,0.0,0.0,0.0,0.0,0.0,0.0,0.0,0.0,0.0,0.0,0.0,0.0,0.954,0.9899,1.0532,0.0,0.0,0.0,0.0,0.0,0.0,0.0,0.0,0.0,1.276,1.2861,1.3016,0.0,0.0,1.3722,1.3437,1.3912,1.4299,1.4292,0.0,0.0,0.0,1.4483,1.4664,1.5002,1.6121,1.6833,1.6467,1.6864,1.7124,1.6864,1.7292,1.7535,1.7538,1.8997,2.0062,2.0322,2.0608,2.0283,1.8863,1.8989,1.8874,0.3537,0.3729,0.5089,0.5363,0.5025,0.5889,0.6151,0.6012,0.6771,0.6609,0.573,0.5587,0.4841,0.3537,0.2599,0.0,0.0,0.0,0.0,0.0,0.0,0.0713,0.2012,0.2027,0.271,0.3907,0.3852,0.3691,0.3517,0.4074,0.4216,0.4109,0.0,0.0,0.4936,0.6881,0.7664,0.7404,1.0343,1.1967,1.2052,1.2925,1.3356,1.3261,1.3159,1.2914,1.256,1.3363,1.366,1.3295,1.4501,1.5054,0.0,0.0,0.0,0.0,0.0,0.0,0.0,0.0,0.0,0.0,0.0,1.2692,0.0,0.0,0.0,0.0,0.9727,0.9499,0.9478,0.9666,0.0,0.0,0.0,0.0,0.0,0.0,0.0,1.1898,1.2691,1.345,1.4065,1.417,1.4163,1.4197,1.4282,1.4302,1.4136,0.0,1.4936,1.4997,1.4931,1.5025,1.5201,1.4957,1.4862,1.5195,1.5553,1.5839,1.5866,1.6164,1.6381,1.6402,1.6463,1.6517,1.6517,1.8154,1.938,1.9368,1.9693,1.944,1.8064,1.8225,1.8084,-0.0145,-0.0048,0.3014,0.4626,0.5176,0.5413,0.5702,0.5984,0.5942,0.6061,0.6146,0.6038,0.4895,0.291,0.0919,0.0,0.0,0.0,0.0,0.0,0.0,0.0,0.0,0.0,0.0,0.0,0.0,0.0,0.0,0.1668,0.2272,0.1849,0.2145,0.2281,0.2304,0.3131,0.3542,0.3709,0.7687,0.9809,1.0053,1.2213,1.3397,1.3397,1.3261,1.3186,1.3207,1.3084,1.3555,1.4627,1.4067,1.4566,1.6313,0.0,0.0,0.0,0.0,0.0,0.0,0.0,0.0,0.0,0.0,0.0,0.0,0.0,0.0,0.0,1.0147,0.0,1.0718,1.0799,0.0,0.0,0.0,1.0907,1.1504,1.2118,1.2603,1.3091,0.0,0.0,1.4802,0.0,1.5614,1.5533,1.5539,1.5485,1.5242,1.5602,1.582,1.5499,1.5553,1.5654,1.5675,1.5886,1.6096,1.6317,1.6537,1.6459,1.653,1.6564,1.6578,1.6592,1.6533,1.656,1.6598,1.6841,1.6754,1.679,1.6711,1.6667,1.6711,1.6834,1.6951,-0.1274,-0.3093,-0.2333,-0.0725,0.1317,0.1381,0.1494,0.1559,0.1559,0.1548,0.1577,0.1562,0.1252,0.0721,0.0225,0.0,0.0,0.0,0.0,0.0,0.0,0.0,0.0,0.0,0.0,0.0,0.0,0.0,0.0,0.0416,0.0585,0.0475,0.0552,0.183,0.4287,0.5031,0.5484,0.5756,0.6882,0.8342,1.0083,1.2263,1.3397,1.3397,1.337,1.3288,1.322,1.318,1.3163,1.3255,1.4104,1.4461,1.4129,1.3676,0.0,0.0,0.0,0.0,0.0,0.0,0.0,0.0,0.0,1.2375,0.9767,0.0,1.1452,0.0,1.0266,1.0887,1.1362,1.1469,0.0,0.0,1.2169,1.2433,1.299,1.3424,1.3824,1.4265,1.4767,1.5248,1.5703,1.6083,1.629,1.6358,1.5918,1.5519,1.5398,1.5737,1.6001,1.5967,1.6151,1.6307,1.6313,1.6368,1.649,1.6615,1.6648,1.6682,1.6849,1.6958,1.7032,1.7039,1.7134,1.7195,1.7188,1.7236,1.7189,1.7209,1.7114,1.7032,1.7039,1.7154,1.7256,-0.0934,-0.2331,-0.2331,-0.143,-0.015,-0.2706,-0.3072,-0.1874,-0.1874,-0.1159,0.0,0.0,0.0,0.0,0.0,0.0,0.0,0.0,0.0,0.0,0.0,0.0,0.0,0.0,0.0,0.0,0.0,0.0,0.0,0.0,0.0,0.0,0.0,0.0929,0.2772,0.3144,0.3433,0.3597,0.4684,0.6855,1.0175,1.1345,1.2353,1.3362,1.3275,1.3071,1.2833,1.2819,1.2644,1.2345,1.3064,1.3501,1.3506,1.3095,1.2859,0.0,0.0,0.0,0.0,0.0,0.0,0.0,0.0,0.0,0.0,0.0,1.1227,1.0517,1.1212,1.1888,1.2372,1.2603,1.2881,1.3261,1.3498,1.3838,1.4322,1.4685,1.5011,1.535,1.5757,1.611,1.6442,1.6734,1.6951,1.6986,1.6642,1.6374,1.6259,1.6483,1.668,1.6686,1.6815,1.6924,1.6924,1.6924,1.6892,1.7026,1.6993,1.708,1.7161,1.7243,1.7297,1.7304,1.7365,1.7419,1.7419,1.7426,1.7467,1.7473,1.7561,1.7514,1.7338,1.7412,1.7467,-0.0209,-0.0523,-0.0523,-0.0784,-0.1462,-0.64,-0.6643,-0.3675,-0.3675,-0.228,0.0,0.0,0.0,0.0,0.0,0.0,0.0,0.0,0.0,0.0,0.0,0.0,0.0,0.0,0.0,0.0,0.0,0.0,0.0,0.0,0.0,0.0,0.0,0.0,0.0,0.0,0.0,0.0,0.2159,0.5356,0.9459,0.9595,1.0657,1.2764,1.2667,1.245,1.2311,1.2291,1.2155,1.1847,1.1877,1.228,1.3133,1.2109,1.1815,0.0,1.1654,0.0,0.0,0.0,0.0,0.0,0.0,0.0,0.0,1.0887,1.1286,1.1962,1.2537,1.3051,1.3559,1.3822,1.4113,1.4441,1.4708,1.5053,1.5486,1.5784,1.6133,1.6361,1.6754,1.7012,1.7032,1.7277,1.7392,1.7372,1.7426,1.7344,1.729,1.7311,1.7351,1.7419,1.7419,1.7344,1.7358,1.7385,1.7399,1.7372,1.7372,1.7406,1.7473,1.75,1.7514,1.7521,1.7555,1.7561,1.7534,1.7602,1.7683,1.7703,1.7935,1.7955,1.7643,1.7595,1.7669,-0.1299,-0.3403,-0.3403,-0.4751,-0.6961,-0.8035,-0.5576,-0.0778,-0.0778,-0.0519,0.0,0.0,0.0,0.0,0.0,0.0,0.0,0.0,0.0,0.0,0.0,0.0,0.0,0.0,0.0,0.0,0.0,0.0,0.0,0.0,0.0,0.0,0.0,0.0,0.0,0.0,0.0,0.0,0.2214,0.3839,0.4733,0.6451,0.8294,1.023,1.0171,0.0,1.2197,1.2291,1.2203,1.2033,1.2135,0.0,0.0,0.0,0.0,0.0,0.0,0.0,0.0,0.0,0.0,0.0,0.7995,0.9894,1.141,1.2271,1.2874,1.3213,1.3614,1.4055,1.4663,1.4936,1.5187,1.533,1.5757,1.6049,1.6144,1.6402,1.6653,1.6829,1.7032,1.7202,1.7324,1.744,1.7548,1.7554,1.7704,1.782,1.7786,1.7555,1.7426,1.7419,1.7453,1.7433,1.7419,1.7446,1.7521,1.7507,1.7554,1.7656,1.7765,1.788,1.7955,1.7955,1.8063,1.8131,1.8138,1.8172,1.8165,1.8186,1.8233,1.8213,1.8009,1.8084,1.8136,-0.082,0.0,-0.3709,-0.5177,0.0,-0.6538,-0.4913,-0.2234,-0.2128,-0.1271,0.0,0.0,0.0,0.0,0.0,0.0,0.0,0.0,0.0,0.0,0.0,0.0,0.0,0.0,0.0,0.0,0.0,0.0,0.0,0.0,0.0,0.0,0.0,0.0,0.0,0.0,0.0,0.0,0.1148,0.233,0.3546,0.4517,0.6036,0.8063,0.0,0.0,0.0,0.0,0.0,0.0,0.0,0.0,0.0,0.0,0.0,0.5216,0.4853,0.4725,0.4783,0.4998,0.5297,0.5674,0.7113,0.9436,1.2675,1.3627,1.4183,1.4482,1.4719,1.5059,1.5574,1.5832,1.6022,1.6134,1.6524,1.6748,1.6768,1.6944,1.7107,1.7195,1.7331,1.7453,1.7473,1.7676,1.7819,1.7779,1.788,1.7948,1.7922,1.7738,1.7663,1.7738,1.7751,1.7785,1.7846,1.7867,1.788,1.7962,1.7926,1.8009,1.8077,1.8152,1.8206,1.8206,1.8274,1.8321,1.8321,1.8321,1.8321,1.8328,1.8375,1.8403,1.8321,1.8321,1.8321,-0.0769,-0.1043,-0.4055,-0.5256,-0.5256,-0.4711,-0.4218,-0.3725,0.0,0.0,0.0,0.0,0.0,0.0,0.0,0.0,0.0,0.0,0.0,0.0,0.0,0.0,0.0,0.0,0.0,0.0,0.0,0.0,0.0,0.0,0.0,0.0,0.0,0.0,0.0,0.0,0.0,0.0,0.0,0.1026,0.3072,0.2878,0.3756,0.5966,0.5801,0.564,0.5597,0.557,0.555,0.5448,0.5457,0.5323,0.5001,0.4938,0.4791,0.4478,0.455,0.4661,0.4783,0.5034,0.5438,0.6019,0.6366,0.8375,1.2633,1.3422,1.4027,1.4764,1.4919,1.5368,1.6337,1.6558,1.6648,1.6804,1.7087,1.7229,1.7236,1.7365,1.7392,1.7473,1.7534,1.7629,1.769,1.788,1.8009,1.7907,1.7948,1.8009,1.7956,1.7936,1.7928,1.8023,1.8057,1.8158,1.8274,1.8287,1.8308,1.8233,1.8247,1.8274,1.8247,1.826,1.8287,1.8301,1.8335,1.8375,1.8396,1.8416,1.8403,1.8396,1.8491,1.8572,1.8559,1.8484,1.8416,-0.3848,-0.4125,-0.707,-0.8289,-0.807,-0.5571,-0.3013,-0.067,0.0,0.0,0.0,0.0,0.0,0.0,0.0,0.0,0.0,0.0,0.0,0.0,0.0,0.0,0.0,0.0,0.0,0.0,0.0,0.0,0.0,0.0,0.0,0.0,0.0,0.0,0.0,0.0,0.0,0.0,0.0,0.0185,0.0511,0.0501,0.1426,0.3307,0.3305,0.3975,0.5529,0.5557,0.5596,0.5573,0.5664,0.5021,0.3386,0.3238,0.2495,0.092,0.0,0.0811,0.0,0.0,0.1866,0.4098,0.4417,0.5606,0.8214,0.8588,0.9741,1.2215,1.2738,1.3945,1.6426,1.6959,1.7148,1.7237,1.7358,1.7392,1.7399,1.7473,1.7561,1.7568,1.7745,1.7826,1.7881,1.788,1.7963,1.7929,1.7956,1.7887,1.7949,1.7975,1.8057,1.8104,1.8206,1.8287,1.8314,1.8321,1.8274,1.8145,1.8145,1.8124,1.8023,1.8091,1.8192,1.8301,1.8409,1.8525,1.864,1.8759,1.8732,1.8667,1.8752,1.8773,1.8715,1.8687,1.8738,-0.5539,-0.7373,-1.0274,-1.1533,-1.1303,-0.8337,-0.4338,0.0,0.0,0.0,0.0,0.0,0.0,0.0,0.0,0.0,0.0,0.0,0.0,0.0,0.0,0.0,0.0,0.0,0.0,0.0,0.0,0.0,0.0,0.0,0.0,0.0,0.0,0.0,0.0,0.0,0.0,0.0,0.0,0.0,0.0,0.0,0.0421,0.1337,0.1278,0.1619,0.2511,0.2581,0.2568,0.2555,0.261,0.2236,0.1417,0.1344,0.0953,0.0,0.0,0.0,0.0,0.0,0.0552,0.1698,0.1819,0.2296,0.3377,0.6268,0.8569,0.9956,1.1576,1.3216,1.4726,1.6372,1.7412,1.748,1.7609,1.7663,1.7663,1.7717,1.7765,1.7772,1.7819,1.7915,1.7915,1.7935,1.7948,1.7942,1.7915,1.7915,1.7922,1.7989,1.8091,1.8097,1.8152,1.8226,1.8301,1.8321,1.8287,1.8219,1.8213,1.8186,1.8124,1.8179,1.8233,1.8308,1.843,1.8545,1.8633,1.8708,1.8807,1.882,1.882,1.882,1.882,1.882,1.882,-0.81,-1.049,-1.3515,-1.4067,-1.2574,-1.0231,-0.5677,0.0,0.0,0.0,0.0,0.0,0.0,0.0,0.0,0.0,0.0,0.0,0.0,0.0,0.0,0.0,0.0,0.0,0.0,0.0,0.0,0.0,0.0,0.0,0.0,0.0,0.0,0.0,0.0,0.0,0.0,0.0,0.0,0.0,0.0,0.0,0.0,0.0,0.0,0.0,0.0,0.0,0.0,0.0,0.0,0.0,0.0,0.0,0.0,0.0,0.0,0.0,0.0,0.0,0.0,0.0,0.0,0.0,0.0,0.3875,0.7078,0.8409,1.0628,1.2487,1.4254,1.6221,1.7642,1.7649,1.7792,1.7902,1.7915,1.7915,1.7915,1.7915,1.7915,1.7915,1.7936,1.7962,1.7982,1.7942,1.7915,1.7915,1.7929,1.7968,1.8036,1.8057,1.8091,1.8192,1.8301,1.8321,1.8301,1.828,1.826,1.8213,1.8192,1.8192,1.8233,1.8247,1.8342,1.8443,1.8511,1.8586,1.8732,1.8779,1.8786,1.8715,1.8813,1.8779,1.8728,-1.309,-1.3824,-1.6537,-1.4646,-0.9847,-0.9326,-0.5726,0.0,0.0,0.0,0.0,0.0,0.0,0.0,0.0,0.0,0.0,0.0,0.0,0.0,0.0,0.0,0.0,0.0,0.0,0.0,0.0,0.0,0.0,0.0,0.0,0.0,0.0,0.0,0.0,0.0,0.0,0.0,0.0,0.0,0.0,0.0,0.0,0.0,0.0,0.0,0.0,0.0,0.0,0.0,0.0,0.0,0.0,0.0,0.0,0.0,0.0,0.0,0.0,0.0,0.0,0.0,0.0,0.0,0.0,0.0,0.313,0.7428,0.9043,1.1558,1.6361,1.7532,1.7826,1.7819,1.7902,1.7915,1.7915,1.7915,1.7915,1.7915,1.7929,1.7922,1.7942,1.7976,1.7907,1.7949,1.7949,1.7936,1.7922,1.7936,1.7963,1.7997,1.8097,1.826,1.8287,1.8321,1.8247,1.8145,1.8118,1.8084,1.8002,1.7955,1.7941,1.8097,1.8145,1.8253,1.8352,1.8464,1.8484,1.8745,1.8687,1.8606,1.8701,1.8674,1.864,-1.5039,-1.6654,-1.8015,-1.5031,-0.9747,-0.9301,-0.5771,0.0,0.0,0.0,0.0,0.0,0.0,0.0,0.0,0.0,0.0,0.0,0.0,0.0,0.0,0.0,0.0,0.0,0.0,0.0,0.0,0.0,0.0,0.0,0.0,0.0,0.0,0.0,0.0,0.0,0.0,0.0,0.0,0.0,0.0,0.0,0.0,0.0,0.0,0.0,0.0,0.0,0.0,0.0,0.0,0.0,0.0,0.0,0.0,0.0,0.0,0.0,0.0,0.0,0.0,0.0,0.0,0.0,0.0,0.0,0.2448,0.764,0.8869,1.0661,1.4658,1.6765,1.7915,1.7915,1.7915,1.7922,1.7915,1.7922,1.7915,1.7922,1.7997,1.7996,1.8009,1.8077,1.8084,1.803,1.7996,1.7975,1.7942,1.7915,1.7915,1.7929,1.7982,1.8036,1.8063,1.8138,1.8104,1.8023,1.8036,1.8036,1.797,1.7922,1.7949,1.7955,1.8023,1.8152,1.8362,1.8457,1.8518,1.8674,1.8793,1.8694,1.8807,1.8715,1.8708,-1.6591,-1.8447,-1.8715,-1.5174,-0.9493,-0.938,-0.5818,0.0,0.0,0.0,0.0,0.0,0.0,0.0,0.0,0.0,0.0,0.0,0.0,0.0,0.0,0.0,0.0,0.0,0.0,0.0,0.0,0.0,0.0,0.0,0.0,0.0,0.0,0.0,0.0,0.0,0.0,0.0,0.0,0.0,0.0,0.0,0.0,0.0,0.0,0.0,0.0,0.0,0.0,0.0,0.0,0.0,0.0,0.0,0.0,0.0,0.0,0.0,0.0,0.0,0.0,0.0,0.0,0.0,0.0,0.0,0.0,0.7983,0.8933,1.0321,1.4282,1.6631,1.7805,1.7922,1.7949,1.797,1.7929,1.7921,1.7982,1.7948,1.807,1.8152,1.8172,1.824,1.826,1.8179,1.8152,1.8124,1.8016,1.7996,1.7996,1.7989,1.8051,1.8017,1.7956,1.8009,1.8009,1.7996,1.8036,1.8057,1.799,1.7963,1.7915,1.797,1.7989,1.8104,1.828,1.8416,1.8504,1.8633,1.8701,1.8721,1.8813,1.8793,1.8721,-1.8697,-1.8749,-1.8755,-1.5057,-0.9434,-0.9256,-0.5806,0.0,0.0,0.0,0.0,0.0,0.0,0.0,0.0,0.0,0.0,0.0,0.0,0.0,0.0,0.0,0.0,0.0,0.0,0.0,0.0,0.0,0.0,0.0,0.0,0.0,0.0,0.0,0.0,0.0,0.0,0.0,0.0,0.0,0.0,0.0,0.0,0.0,0.0,0.0,0.0,0.0,0.0,0.0,0.0,0.0,0.0,0.0,0.0,0.0,0.0,0.0,0.0,0.0,0.0,0.0,0.0,0.0,0.0,0.0,0.0,0.838,0.9167,1.1505,1.6379,1.7617,1.7942,1.7942,1.8058,1.8009,1.7949,1.8124,1.8206,1.8138,1.8213,1.8314,1.8314,1.8314,1.8342,1.8321,1.8308,1.8294,1.826,1.8267,1.8267,1.826,1.8247,1.8192,1.7955,1.8063,1.8124,1.8091,1.8104,1.8097,1.8043,1.7982,1.797,1.7929,1.7976,1.8036,1.8206,1.8321,1.8382,1.8484,1.8593,1.8647,1.8807,1.8633,1.8633,-1.882,-1.8581,-1.6639,-1.33,-0.9321,-0.7273,-0.3936,0.0,0.0,0.0,0.0,0.0,0.0,0.0,0.0,0.0,0.0,0.0,0.0,0.0,0.0,0.0,0.0,0.0,0.0,0.0,0.0,0.0,0.0,0.0,0.0,0.0,0.0,0.0,0.0,0.0,0.0,0.0,0.0,0.0,0.0,0.0,0.0,0.0,0.0,0.0,0.0,0.0,0.0,0.0,0.0,0.0,0.0,0.0,0.0,0.0,0.0,0.0,0.0,0.0,0.0,0.0,0.0,0.0,0.0,0.1794,0.4653,0.8318,1.0972,1.3863,1.6865,1.807,1.8009,1.803,1.8145,1.8213,1.8186,1.8253,1.8294,1.8267,1.8362,1.8484,1.8565,1.8599,1.8565,1.8477,1.8457,1.8423,1.8342,1.8321,1.8335,1.8321,1.8314,1.8287,1.8199,1.828,1.8355,1.8274,1.8233,1.8179,1.8124,1.8002,1.7976,1.8009,1.8009,1.8111,1.8335,1.8504,1.8518,1.8565,1.866,1.8667,1.8813,1.8681,1.8687,-1.5761,-1.547,-1.3474,-1.0782,-0.7741,-0.5636,-0.294,0.0,0.0,0.0,0.0,0.0,0.0,0.0,0.0,0.0,0.0,0.0,0.0,0.0,0.0,0.0,0.0,0.0,0.0,0.0,0.0,0.0,0.0,0.0,0.0,0.0,0.0,0.0,0.0,0.0,0.0,0.0,0.0,0.0,0.0,0.0,0.0,0.0,0.0,0.0,0.0,0.0,0.0,0.0,0.0,0.0,0.0,0.0,0.0,0.0,0.0,0.0,0.0,0.0,0.0,0.0,0.0,0.0282,0.1412,0.3386,0.6329,0.9917,1.2311,1.496,1.7419,1.826,1.8213,1.8199,1.8301,1.8362,1.8335,1.8403,1.8464,1.8484,1.8545,1.8654,1.8793,1.8807,1.8708,1.8613,1.8606,1.8559,1.8491,1.8464,1.8464,1.8464,1.8484,1.8491,1.8457,1.8531,1.8511,1.843,1.8312,1.8301,1.8219,1.8084,1.803,1.8124,1.8219,1.8314,1.8457,1.8647,1.8786,1.8813,1.88,1.8728,1.882,1.882,1.8813,-0.9672,-0.9847,-0.9379,-0.7741,-0.5226,-0.4463,-0.2705,0.0,0.0,0.0,0.0,0.0,0.0,0.0,0.0,0.0,0.0,0.0,0.0,0.0,0.0,0.0,0.0,0.0,0.0,0.0,0.0,0.0,0.0,0.0,0.0,0.0,0.0,0.0,0.0,0.0,0.0,0.0,0.0,0.0,0.0,0.0,0.0,0.0,0.0,0.0,0.0,0.0,0.0,0.0,0.0,0.0,0.0,0.0,0.0,0.0,0.0,0.0,0.0,0.0,0.0,0.0,0.0,0.1594,0.3656,0.5089,0.7773,1.2175,1.3953,1.5282,1.773,1.845,1.8457,1.8362,1.845,1.8484,1.8437,1.8586,1.8807,1.8786,1.8793,1.8813,1.882,1.882,1.88,1.8742,1.8735,1.8779,1.8694,1.8745,1.8735,1.8793,1.8687,1.8654,1.8759,1.8807,1.866,1.8572,1.8518,1.84,1.8403,1.8294,1.8233,1.8294,1.8375,1.847,1.8531,1.8701,1.8793,1.882,1.882,1.882,1.882,1.882,1.882,-0.9379,-0.9087,-0.7041,-0.5634,-0.4404,-0.2411,-0.0824,0.0,0.0,0.0,0.0,0.0,0.0,0.0,0.0,0.0,0.0,0.0,0.0,0.0,0.0,0.0,0.0,0.0,0.0,0.0,0.0,0.0,0.0,0.0,0.0,0.0,0.0,0.0,0.0,0.0,0.0,0.0,0.0,0.0,0.0,0.0,0.0,0.0,0.0,0.0,0.0,0.0,0.0,0.0,0.0,0.0,0.0,0.0,0.0,0.0,0.0,0.0,0.0,0.0,0.0,0.0,0.1889,0.3491,0.5101,0.8593,1.1474,1.4171,1.5745,1.7626,1.8369,1.866,1.8626,1.8484,1.8599,1.8674,1.8633,1.8708,1.8807,1.882,1.882,1.882,1.882,1.882,1.882,1.882,1.882,1.882,1.882,1.882,1.882,1.882,1.882,1.882,1.882,1.882,1.8715,1.8654,1.8613,1.8586,1.8538,1.8498,1.8443,1.845,1.8538,1.8599,1.866,1.8708,1.88,1.882,1.882,1.882,1.882,1.882,1.882,-0.5927,-0.5693,-0.376,-0.2939,-0.2763,-0.0765,0.0,0.0,0.0,0.0,0.0,0.0,0.0,0.0,0.0,0.0,0.0,0.0,0.0,0.0,0.0,0.0,0.0,0.0,0.0,0.0,0.0,0.0,0.0,0.0,0.0,0.0,0.0,0.0,0.0,0.0,0.0,0.0,0.0,0.0,0.0,0.0,0.0,0.0,0.0,0.0,0.0,0.0,0.0,0.0,0.0,0.0,0.0,0.0,0.0,0.0,0.0,0.0,0.0,0.0,0.0,0.0,0.2883,0.5308,0.6934,1.1332,1.4171,1.5982,1.7498,1.8742,1.8823,1.8909,1.8823,1.8796,1.8755,1.8796,1.8881,1.8902,1.8909,1.8902,1.8803,1.8827,1.882,1.882,1.882,1.882,1.882,1.882,1.882,1.882,1.882,1.882,1.882,1.882,1.882,1.882,1.882,1.8786,1.8687,1.8667,1.864,1.8613,1.8572,1.8606,1.8667,1.8674,1.8786,1.8793,1.882,1.882,1.882,1.882,1.882,1.882,1.882,0.0,0.0,0.0,0.0,0.0,0.0,0.0,0.0,0.0,0.0,0.0,0.0,0.0,0.0,0.0,0.0,0.0,0.0,0.0,0.0,0.0,0.0,0.0,0.0,0.0,0.0,0.0,0.0,0.0,0.0,0.0,0.0,0.0,0.0,0.0,0.0,0.0,0.0,0.0,0.0,0.0,0.0,0.0,0.0,0.0,0.0,0.0,0.0,0.0,0.0,0.0,0.0,0.0,0.0,0.0,0.0,0.0,0.0,0.0,0.0,0.0,0.0,0.3729,0.629,0.9606,1.3016,1.5998,1.8059,1.8736,1.8986,1.9,1.9,1.9047,1.9128,1.8966,1.8898,1.8979,1.8993,1.8972,1.8966,1.8877,1.8834,1.8854,1.8861,1.8875,1.8854,1.8868,1.8902,1.8888,1.8909,1.8847,1.8841,1.8854,1.882,1.882,1.882,1.882,1.8807,1.8786,1.8721,1.8715,1.8694,1.8738,1.8779,1.88,1.8813,1.882,1.882,1.882,1.882,1.882,1.882,1.882,1.882,1.882,0.0,0.0,0.0,0.0,0.0,0.0,0.0,0.0,0.0,0.0,0.0,0.0,0.0,0.0,0.0,0.0,0.0,0.0,0.0,0.0,0.0,0.0,0.0,0.0,0.0,0.0,0.0,0.0,0.0,0.0,0.0,0.0,0.0,0.0,0.0,0.0,0.0,0.0,0.0,0.0,0.0,0.0,0.0,0.0,0.0,0.0,0.0,0.0,0.0,0.0,0.0,0.0,0.0,0.0,0.0,0.0,0.0,0.0,0.0,0.0,0.0,0.3459,0.6143,0.9617,1.2773,1.6012,1.803,1.9094,1.9128,1.9149,1.9149,1.9156,1.9176,1.9183,1.9135,1.9101,1.9115,1.9054,1.9027,1.9108,1.9013,1.8945,1.8945,1.8993,1.902,1.8972,1.8993,1.904,1.8993,1.8938,1.8891,1.8871,1.8864,1.8854,1.882,1.882,1.882,1.882,1.8813,1.8762,1.8749,1.8793,1.8793,1.8813,1.8807,1.882,1.882,1.882,1.882,1.882,1.882,1.882,1.882,1.882,1.882,0.0,0.0,0.0,0.0,0.0,0.0,0.0,0.0,0.0,0.0,0.0,0.0,0.0,0.0,0.0,0.0,0.0,0.0,0.0,0.0,0.0,0.0,0.0,0.0,0.0,0.0,0.0,0.0,0.0,0.0,0.0,0.0,0.0,0.0,0.0,0.0,0.0,0.0,0.0,0.0,0.0,0.0,0.0,0.0,0.0,0.0,0.0,0.0,0.0,0.0,0.0,0.0,0.0,0.0,0.0,0.0,0.0,0.0,0.0,0.0,0.0,0.4515,0.7779,1.0945,1.4095,1.7341,1.9284,1.9203,1.9257,1.9291,1.9312,1.9352,1.9393,1.9413,1.94,1.9366,1.9305,1.923,1.9217,1.9244,1.9176,1.9081,1.9081,1.9156,1.9156,1.9115,1.9128,1.9122,1.9088,1.9033,1.8986,1.8952,1.8891,1.8875,1.8847,1.8847,1.8868,1.8868,1.8922,1.885,1.8875,1.8854,1.8827,1.8827,1.882,1.882,1.882,1.882,1.882,1.882,1.882,1.882,1.882,1.882,1.882,0.0,0.0,0.0,0.0,0.0,0.0,0.0,0.0,0.0,0.0,0.0,0.0,0.0,0.0,0.0,0.0,0.0,0.0,0.0,0.0,0.0,0.0,0.0,0.0,0.0,0.0,0.0,0.0,0.0,0.0,0.0,0.0,0.0,0.0,0.0,0.0,0.0,0.0,0.0,0.0,0.0,0.0,0.0,0.0,0.0,0.0,0.0,0.0,0.0,0.0,0.0,0.0,0.0,0.0,0.0,0.0,0.0,0.0,0.0,0.0,0.2168,0.5527,0.8655,1.1539,1.5043,1.8028,1.9413,1.9318,1.9379,1.944,1.9468,1.9576,1.9671,1.9671,1.9691,1.9583,1.9495,1.944,1.9434,1.9447,1.9318,1.9244,1.923,1.9237,1.925,1.9257,1.9284,1.9318,1.9264,1.9203,1.9108,1.9006,1.8925,1.8881,1.8881,1.8881,1.8909,1.8936,1.8972,1.8993,1.8977,1.8936,1.8868,1.8834,1.8827,1.882,1.882,1.882,1.8827,1.882,1.882,1.882,1.882,1.882,1.882,0.0,0.0,0.0,0.0,0.0,0.0,0.0,0.0,0.0,0.0,0.0,0.0,0.0,0.0,0.0,0.0,0.0,0.0,0.0,0.0,0.0,0.0,0.0,0.0,0.0,0.0,0.0,0.0,0.0,0.0,0.0,0.0,0.0,0.0,0.0,0.0,0.0,0.0,0.0,0.0,0.0,0.0,0.0,0.0,0.0,0.0,0.0,0.0,0.0,0.0,0.0,0.0,0.0,0.0,0.0,0.0,0.0,0.0,0.0,0.2298,0.5145,0.8072,1.1279,1.4926,1.7879,1.8905,1.9583,1.963,1.9596,1.9596,1.9603,1.9691,1.9718,1.9725,1.9725,1.9711,1.9603,1.9508,1.9495,1.9542,1.9474,1.9379,1.9386,1.9481,1.9474,1.942,1.9447,1.9522,1.9454,1.9345,1.9237,1.9108,1.9027,1.8952,1.8972,1.8972,1.8972,1.9006,1.9094,1.9115,1.904,1.9013,1.8972,1.8871,1.882,1.8827,1.881,1.8847,1.8861,1.8841,1.8841,1.8881,1.8902,1.8868,1.8888,0.0,0.0,0.0,0.0,0.0,0.0,0.0,0.0,0.0,0.0,0.0,0.0,0.0,0.0,0.0,0.0,0.0,0.0,0.0,0.0,0.0,0.0,0.0,0.0,0.0,0.0,0.0,0.0,0.0,0.0,0.0,0.0,0.0,0.0,0.0,0.0,0.0,0.0,0.0,0.0,0.0,0.0,0.0,0.0,0.0,0.0,0.0,0.0,0.0,0.0,0.0,0.0,0.0,0.0,0.0,0.0,0.0,0.0,0.0,0.3046,0.6225,0.9528,1.2779,1.6027,1.8587,1.9624,1.9718,1.9725,1.9718,1.9725,1.9725,1.9725,1.9725,1.9725,1.9725,1.9725,1.9711,1.959,1.9563,1.963,1.9583,1.9549,1.9583,1.9684,1.9684,1.9535,1.9535,1.959,1.9474,1.9379,1.9332,1.923,1.9149,1.9108,1.9142,1.9142,1.9115,1.9162,1.9237,1.9217,1.9156,1.9156,1.9162,1.9033,1.8911,1.8877,1.8898,1.8871,1.8929,1.8898,1.8925,1.9004,1.8972,1.9,1.9027,0.0,0.0,0.0,0.0,0.0,0.0,0.0,0.0,0.0,0.0,0.0,0.0,0.0,0.0,0.0,0.0,0.0,0.0,0.0,0.0,0.0,0.0,0.0,0.0,0.0,0.0,0.0,0.0,0.0,0.0,0.0,0.0,0.0,0.0,0.0,0.0,0.0,0.0,0.0,0.0,0.0,0.0,0.0,0.0,0.0,0.0,0.0,0.0,0.0,0.0,0.0,0.0,0.0,0.0,0.0,0.0,0.0,0.0,0.0,0.4167,0.7365,1.0315,1.3687,1.6576,1.9036,1.9718,1.9725,1.9725,1.9725,1.9725,1.9725,1.9725,1.9725,1.9725,1.9725,1.9725,1.9725,1.9725,1.9718,1.9718,1.9698,1.9684,1.9691,1.9718,1.9725,1.9725,1.9718,1.963,1.9515,1.9454,1.9427,1.9386,1.9312,1.9257,1.9271,1.9359,1.9325,1.9332,1.9393,1.9366,1.9318,1.9352,1.9345,1.9196,1.9094,1.9047,1.902,1.902,1.9027,1.9047,1.9061,1.9074,1.9128,1.9189,1.921,0.0,0.0,0.0,0.0,0.0,0.0,0.0,0.0,0.0,0.0,0.0,0.0,0.0,0.0,0.0,0.0,0.0,0.0,0.0,0.0,0.0,0.0,0.0,0.0,0.0,0.0,0.0,0.0,0.0,0.0,0.0,0.0,0.0,0.0,0.0,0.0,0.0,0.0,0.0,0.0,0.0,0.0,0.0,0.0,0.0,0.0,0.0,0.0,0.0,0.0,0.0,0.0,0.0,0.0,0.0,0.0,0.0,0.1475,0.3562,0.7059,1.0377,1.3687,1.6637,1.8428,1.9543,1.9725,1.9725,1.9725,1.9725,1.9725,1.9725,1.9725,1.9725,1.9725,1.9725,1.9725,1.9725,1.9725,1.9725,1.9725,1.9725,1.9725,1.9725,1.9725,1.9725,1.9725,1.9725,1.9718,1.961,1.9583,1.959,1.9542,1.9481,1.9434,1.94,1.9515,1.9623,1.9596,1.9623,1.9623,1.9603,1.965,1.9535,1.9373,1.925,1.9189,1.9169,1.9169,1.9176,1.9183,1.9196,1.9217,1.9271,1.9332,1.9339,0.0,0.0,0.0,0.0,0.0,0.0,0.0,0.0,0.0,0.0,0.0,0.0,0.0,0.0,0.0,0.0,0.0,0.0,0.0,0.0,0.0,0.0,0.0,0.0,0.0,0.0,0.0,0.0,0.0,0.0,0.0,0.0,0.0,0.0,0.0,0.0,0.0,0.0,0.0,0.0,0.0,0.0,0.0,0.0,0.0,0.0,0.0,0.0,0.0,0.0,0.0,0.0,0.0,0.0,0.0,0.0,0.1538,0.3079,0.5597,0.9151,1.3076,1.4608,1.7806,1.9475,1.9725,1.9725,1.9725,1.9725,1.9725,1.9725,1.9725,1.9725,1.9725,1.9725,1.9725,1.9725,1.9725,1.9725,1.9725,1.9725,1.9725,1.9725,1.9725,1.9725,1.9725,1.9725,1.9725,1.9725,1.9725,1.9725,1.9725,1.9691,1.9569,1.9556,1.9515,1.9583,1.9725,1.9725,1.9725,1.9725,1.9725,1.9718,1.9684,1.9522,1.9427,1.9332,1.9318,1.9318,1.9318,1.9332,1.9386,1.9434,1.9447,1.9461,1.9468,0.0,0.0,0.0,0.0,0.0,0.0,0.0,0.0,0.0,0.0,0.0,0.0,0.0,0.0,0.0,0.0,0.0,0.0,0.0,0.0,0.0,0.0,0.0,0.0,0.0,0.0,0.0,0.0,0.0,0.0,0.0,0.0,0.0,0.0,0.0,0.0,0.0,0.0,0.0,0.0,0.0,0.0,0.0,0.0,0.0,0.0,0.0,0.0,0.0,0.0,0.0,0.0,0.0,0.0,0.0,0.1421,0.3574,0.5105,0.8232,1.105,1.4669,1.6265,1.8239,1.9353,1.9725,1.9725,1.9725,1.9725,1.9725,1.9725,1.9725,1.9725,1.9725,1.9725,1.9725,1.9725,1.9725,1.9725,1.9725,1.9725,1.9725,1.9725,1.9725,1.9725,1.9725,1.9725,1.9725,1.9725,1.9725,1.9725,1.9725,1.9725,1.9705,1.9705,1.9691,1.9677,1.9725,1.9725,1.9725,1.9725,1.9725,1.9725,1.9684,1.9596,1.9556,1.9474,1.9474,1.9474,1.9474,1.9508,1.9657,1.9677,1.9637,1.963,1.9643,0.0,0.0,0.0,0.0,0.0,0.0,0.0,0.0,0.0,0.0,0.0,0.0,0.0,0.0,0.0,0.0,0.0,0.0,0.0,0.0,0.0,0.0,0.0,0.0,0.0,0.0,0.0,0.0,0.0,0.0,0.0,0.0,0.0,0.0,0.0,0.0,0.0,0.0,0.0,0.0,0.0,0.0,0.0,0.0,0.0,0.0,0.0,0.0,0.0,0.0,0.0,0.0,0.0,0.2905,0.4019,0.4393,0.5252,0.7373,1.1972,1.4425,1.6265,1.7934,1.9414,1.9664,1.9725,1.9725,1.9725,1.9725,1.9725,1.9725,1.9725,1.9725,1.9725,1.9725,1.9725,1.9725,1.9725,1.9725,1.9725,1.9725,1.9725,1.9725,1.9725,1.9725,1.9725,1.9725,1.9725,1.9725,1.9725,1.9725,1.9725,1.9725,1.9725,1.9725,1.9725,1.9725,1.9725,1.9725,1.9725,1.9725,1.9725,1.9725,1.9725,1.9698,1.961,1.9596,1.9583,1.959,1.9677,1.9691,1.9711,1.9718,1.9718,1.9725,1.9725,0.0,0.0,0.0,0.0,0.0,0.0,0.0,0.0,0.0,0.0,0.0,0.0,0.0,0.0,0.0,0.0,0.0,0.0,0.0,0.0,0.0,0.0,0.0,0.0,0.0,0.0,0.0,0.0,0.0,0.0,0.0,0.0,0.0,0.0,0.0,0.0,0.0,0.0,0.0,0.0,0.0,0.0,0.0,0.0,0.0,0.0,0.0,0.0,0.0,0.0,0.0,0.0,0.0,0.444,0.6097,1.0474,1.0521,1.1972,1.4303,1.6332,1.8056,1.9043,1.9725,1.9725,1.9725,1.9725,1.9725,1.9725,1.9725,1.9725,1.9725,1.9725,1.9725,1.9725,1.9725,1.9725,1.9725,1.9725,1.9725,1.9725,1.9725,1.9725,1.9725,1.9725,1.9725,1.9725,1.9725,1.9725,1.9725,1.9725,1.9725,1.9725,1.9725,1.9725,1.9725,1.9725,1.9725,1.9725,1.9725,1.9725,1.9725,1.9725,1.9725,1.9725,1.9705,1.9711,1.9725,1.9718,1.9705,1.9711,1.9725,1.9725,1.9725,1.9725,1.9725,0.0,0.0,0.0,0.0,0.0,0.0,0.0,0.0,0.0,0.0,0.0,0.0,0.0,0.0,0.0,0.0,0.0,0.0,0.0,0.0,0.0,0.0,0.0,0.0,0.0,0.0,0.0,0.0,0.0,0.0,0.0,0.0,0.0,0.0,0.0,0.0,0.0,0.0,0.0,0.0,0.0,0.0,0.0,0.0,0.0,0.0,0.0,0.0,0.0,0.0,0.0,0.2652,0.4324,0.7022,0.9662,1.3362,1.4521,1.5595,1.6765,1.8056,1.9414,1.9725,1.9725,1.9725,1.9725,1.9725,1.9725,1.9725,1.9725,1.9725,1.9725,1.9725,1.9725,1.9725,1.9725,1.9725,1.9725,1.9725,1.9725,1.9725,1.9725,1.9725,1.9725,1.9725,1.9725,1.9725,1.9725,1.9725,1.9725,1.9725,1.9725,1.9725,1.9725,1.9725,1.9725,1.9725,1.9725,1.9725,1.9725,1.9725,1.9725,1.9725,1.9725,1.9725,1.9725,1.9725,1.9725,1.9725,1.9725,1.9725,1.9725,1.9725,1.9725,1.9725,1.9725,0.0,0.0,0.0,0.0,0.0,0.0,0.0,0.0,0.0,0.0,0.0,0.0,0.0,0.0,0.0,0.0,0.0,0.0,0.0,0.0,0.0,0.0,0.0,0.0,0.0,0.0,0.0,0.0,0.0,0.0,0.0,0.0,0.0,0.0,0.0,0.0,0.0,0.0,0.0,0.0,0.0,0.0,0.0,0.0,0.0,0.0,0.0,0.0,0.0,0.0,0.247,0.4447,0.619,1.0037,1.3296,1.5353,1.7422,1.8306,1.8921,1.9049,1.9482,1.9725,1.9725,1.9725,1.9725,1.9725,1.9725,1.9725,1.9725,1.9725,1.9725,1.9725,1.9725,1.9725,1.9725,1.9725,1.9725,1.9725,1.9725,1.9725,1.9725,1.9725,1.9725,1.9725,1.9725,1.9725,1.9725,1.9725,1.9725,1.9725,1.9725,1.9725,1.9725,1.9725,1.9725,1.9725,1.9725,1.9725,1.9725,1.9725,1.9725,1.9725,1.9725,1.9725,1.9725,1.9725,1.9725,1.9725,1.9725,1.9725,1.9725,1.9725,1.9725,1.9725,1.9725,0.0,0.0,0.0,0.0,0.0,0.0,0.0,0.0,0.0,0.0,0.0,0.0,0.0,0.0,0.0,0.0,0.0,0.0,0.0,0.0,0.0,0.0,0.0,0.0,0.0,0.0,0.0,0.0,0.0,0.0,0.0,0.0,0.0,0.0,0.0,0.0,0.0,0.0,0.0,0.0,0.0,0.0,0.0,0.0,0.0,0.0,0.0,0.0,0.0,0.0,0.0,0.5709,0.812,1.2688,1.5505,1.7207,1.9069,1.9549,1.9725,1.9725,1.9725,1.9725,1.9725,1.9725,1.9725,1.9725,1.9725,1.9725,1.9725,1.9725,1.9725,1.9725,1.9725,1.9725,1.9725,1.9725,1.9725,1.9725,1.9725,1.9725,1.9725,1.9725,1.9725,1.9725,1.9725,1.9725,1.9725,1.9725,1.9725,1.9725,1.9725,1.9725,1.9725,1.9725,1.9725,1.9725,1.9725,1.9725,1.9725,1.9725,1.9725,1.9725,1.9725,1.9725,1.9725,1.9725,1.9725,1.9725,1.9725,1.9725,1.9725,1.9725,1.9725,1.9725,1.9725,0.0,0.0,0.0,0.0,0.0,0.0,0.0,0.0,0.0,0.0,0.0,0.0,0.0,0.0,0.0,0.0,0.0,0.0,0.0,0.0,0.0,0.0,0.0,0.0,0.0,0.0,0.0,0.0,0.0,0.0,0.0,0.0,0.0,0.0,0.0,0.0,0.0,0.0,0.0,0.0,0.0,0.0,0.0,0.0,0.0,0.0,0.0,0.0,0.0,0.0,0.4863,0.8005,1.113,1.4291,1.7142,1.8799,1.9725,1.9725,1.9725,1.9725,1.9725,1.9725,1.9725,1.9725,1.9725,1.9732,1.9725,1.9725,1.9725,1.9732,1.9745,1.9725,1.9725,1.9725,1.9725,1.9725,1.9725,1.9725,1.9725,1.9725,1.9773,1.98,1.9732,1.9739,1.9745,1.9739,1.9725,1.9725,1.9725,1.9725,1.9725,1.9725,1.9725,1.9725,1.9725,1.9725,1.9725,1.9725,1.9725,1.9725,1.9725,1.9725,1.9725,1.9725,1.9725,1.9725,1.9725,1.9725,1.9725,1.9725,1.9725,1.9725,1.9725,1.9725,1.9725,0.0,0.0,0.0,0.0,0.0,0.0,0.0,0.0,0.0,0.0,0.0,0.0,0.0,0.0,0.0,0.0,0.0,0.0,0.0,0.0,0.0,0.0,0.0,0.0,0.0,0.0,0.0,0.0,0.0,0.0,0.0,0.0,0.0,0.0,0.0,0.0,0.0,0.0,0.0,0.0,0.0,0.0,0.0,0.0,0.0,0.0,0.0,0.0,0.0,0.2954,0.6807,1.0,1.2846,1.6799,1.9049,1.9603,1.9725,1.9732,1.9739,1.9739,1.9773,1.9814,1.9868,1.9827,1.98,1.978,1.9848,1.9881,1.9807,1.9759,1.9773,1.978,1.9827,1.9854,1.9882,1.9895,1.9861,1.9868,1.9915,1.9942,1.999,2.001,1.9807,1.9691,1.9766,1.9759,1.9732,1.9732,1.9745,1.9725,1.9725,1.9725,1.9725,1.9725,1.9725,1.9725,1.9725,1.9725,1.9725,1.9725,1.9725,1.9725,1.9725,1.9725,1.9725,1.9725,1.9725,1.9725,1.9725,1.9725,1.9725,1.9725,1.9725,1.9725,1.9725,0.0,0.0,0.0,0.0,0.0,0.0,0.0,0.0,0.0,0.0,0.0,0.0,0.0,0.0,0.0,0.0,0.0,0.0,0.0,0.0,0.0,0.0,0.0,0.0,0.0,0.0,0.0,0.0,0.0,0.0,0.0,0.0,0.0,0.0,0.0,0.0,0.0,0.0,0.0,0.0,0.0,0.0,0.0,0.0,0.0,0.0,0.0,0.0,0.0,0.3228,0.7172,1.0608,1.3089,1.6629,1.9603,1.9725,1.9732,1.9766,1.9875,1.9956,1.9956,2.001,2.0092,2.0173,2.0234,2.0241,2.0248,2.0214,2.0159,2.0173,2.0261,2.0254,2.0282,2.0288,2.0302,2.0302,2.0309,2.0309,2.0322,2.0336,2.0307,2.0254,2.0078,1.9969,1.9949,1.9902,1.9888,1.9848,1.9827,1.9766,1.9732,1.9725,1.9725,1.9725,1.9739,1.9848,1.9875,1.9875,1.9807,1.9725,1.9725,1.9752,1.9725,1.9725,1.9725,1.9725,1.9725,1.9725,1.9725,1.9725,1.9725,1.9725,1.9725,1.9725,1.9725,0.0,0.0,0.0,0.0,0.0,0.0,0.0,0.0,0.0,0.0,0.0,0.0,0.0,0.0,0.0,0.0,0.0,0.0,0.0,0.0,0.0,0.0,0.0,0.0,0.0,0.0,0.0,0.0,0.0,0.0,0.0,0.0,0.0,0.0,0.0,0.0,0.0,0.0,0.0,0.0,0.0,0.0,0.0,0.0,0.0,0.0,0.0,0.0,0.1088,0.3573,0.69,1.0964,1.3572,1.6573,1.9664,1.9725,1.9745,1.9813,1.9997,2.0227,2.0288,2.0444,2.0469,2.0469,2.0539,2.0478,2.0485,2.0499,2.0503,2.056,2.056,2.051,2.0523,2.0516,2.0516,2.0503,2.0489,2.0539,2.0476,2.051,2.0577,2.0505,2.041,2.0315,2.0248,2.018,2.0105,2.0024,1.9949,1.9902,1.9854,1.9834,1.9875,1.9949,1.9983,2.0024,2.0031,1.9976,1.9902,1.9882,1.982,1.9861,1.9793,1.9732,1.9752,1.9759,1.9732,1.9725,1.9766,1.9759,1.9725,1.9725,1.9725,1.9725,1.9725,0.0,0.0,0.0,0.0,0.0,0.0,0.0,0.0,0.0,0.0,0.0,0.0,0.0,0.0,0.0,0.0,0.0,0.0,0.0,0.0,0.0,0.0,0.0,0.0,0.0,0.0,0.0,0.0,0.0,0.0,0.0,0.0,0.0,0.0,0.0,0.0,0.0,0.0,0.0,0.0,0.0,0.0,0.0,0.0,0.0,0.0,0.0,0.0,0.0,0.5963,0.9248,1.339,1.6752,1.9367,1.9664,1.9725,1.9725,1.9841,2.0139,2.039,2.0675,2.0824,2.0756,2.0577,2.0584,2.0672,2.0706,2.0692,2.0706,2.0631,2.0648,2.0611,2.0638,2.0631,2.0689,2.0618,2.0611,2.0611,2.0618,2.0679,2.0858,2.0831,2.079,2.0702,2.0566,2.0566,2.0546,2.0614,2.0519,2.0336,2.0268,2.0146,2.02,2.0302,2.0322,2.0288,2.0275,2.0234,2.018,2.0105,2.0024,1.9969,1.9976,1.9936,1.9848,1.9841,1.9922,1.9888,1.9793,1.978,1.9834,1.9793,1.9814,1.9739,1.9725,0.0,0.0,0.0,0.0,0.0,0.0,0.0,0.0,0.0,0.0,0.0,0.0,0.0,0.0,0.0,0.0,0.0,0.0,0.0,0.0,0.0,0.0,0.0,0.0,0.0,0.0,0.0,0.0,0.0,0.0,0.0,0.0,0.0,0.0,0.0,0.0,0.0,0.0,0.0,0.0,0.0,0.0,0.0,0.0,0.0,0.0,0.0,0.0,0.0,0.2943,0.7706,1.151,1.2,1.6752,1.9725,1.9725,1.9773,1.9861,2.0309,2.0428,2.075,2.115,2.1105,2.1138,2.1118,2.1057,2.1044,2.0996,2.0983,2.0956,2.0949,2.0956,2.0956,2.0956,2.0949,2.0949,2.0949,2.0949,2.0949,2.0956,2.1136,2.1062,2.1034,2.0994,2.0878,2.0926,2.098,2.0983,2.0963,2.0753,2.0627,2.0492,2.0526,2.0557,2.0483,2.0428,2.0442,2.0492,2.0458,2.0424,2.0376,2.0329,2.0295,2.0227,2.0126,2.018,2.0315,2.0227,2.0071,2.0098,2.0132,1.9963,1.9834,1.982,1.9895,0.0,0.0,0.0,0.0,0.0,0.0,0.0,0.0,0.0,0.0,0.0,0.0,0.0,0.0,0.0,0.0,0.0,0.0,0.0,0.0,0.0,0.0,0.0,0.0,0.0,0.0,0.0,0.0,0.0,0.0,0.0,0.0,0.0,0.0,0.0,0.0,0.0,0.0,0.0,0.0,0.0,0.0,0.0,0.0,0.0,0.0,0.0,0.0,0.0,0.2053,0.7583,1.0537,1.1938,1.6875,1.9664,1.9725,1.9739,1.9983,2.0383,2.0519,2.0892,2.1252,2.1375,2.1348,2.1335,2.128,2.1294,2.1287,2.1321,2.1348,2.1355,2.1362,2.1355,2.1348,2.1348,2.1348,2.1348,2.1348,2.1335,2.1307,2.1326,2.1231,2.1184,2.117,2.1177,2.1204,2.1231,2.1206,2.1199,2.1157,2.0953,2.0777,2.0851,2.0933,2.0767,2.0712,2.08,2.0872,2.0783,2.0756,2.0722,2.0543,2.0485,2.0478,2.0485,2.0539,2.0566,2.0449,2.0354,2.0368,2.0347,2.0302,2.02,2.0173,2.02,0.0,0.0,0.0,0.0,0.0,0.0,0.0,0.0,0.0,0.0,0.0,0.0,0.0,0.0,0.0,0.0,0.0,0.0,0.0,0.0,0.0,0.0,0.0,0.0,0.0,0.0,0.0,0.0,0.0,0.0,0.0,0.0,0.0,0.0,0.0,0.0,0.0,0.0,0.0,0.0,0.0,0.0,0.0,0.0,0.0,0.0,0.0,0.0,0.1477,0.4711,0.7953,1.1143,1.5135,1.7648,1.9252,1.9725,1.9725,2.0003,2.0363,2.0532,2.0821,2.1145,2.1375,2.1375,2.1375,2.1375,2.1375,2.1375,2.1375,2.1375,2.1375,2.1375,2.1375,2.1375,2.1375,2.1375,2.1375,2.1375,2.1368,2.1355,2.1335,2.1326,2.1326,2.124,2.1233,2.1321,2.1348,2.1368,2.1348,2.136,2.1231,2.1041,2.1102,2.1098,2.1136,2.1057,2.1213,2.1272,2.1123,2.1068,2.1028,2.0794,2.0577,2.0679,2.0807,2.0699,2.0672,2.0699,2.0699,2.0597,2.0577,2.0564,2.0516,2.0489,2.0553,0.0,0.0,0.0,0.0,0.0,0.0,0.0,0.0,0.0,0.0,0.0,0.0,0.0,0.0,0.0,0.0,0.0,0.0,0.0,0.0,0.0,0.0,0.0,0.0,0.0,0.0,0.0,0.0,0.0,0.0,0.0,0.0,0.0,0.0,0.0,0.0,0.0,0.0,0.0,0.0,0.0,0.0,0.0,0.0,0.0,0.0,0.0,0.0,0.2053,0.4773,0.8013,1.2606,1.8125,1.9191,1.9603,1.9725,1.9739,1.9997,2.0343,2.058,2.0858,2.1152,2.1375,2.1375,2.1375,2.1375,2.1375,2.1375,2.1375,2.1375,2.1375,2.1375,2.1375,2.1375,2.1375,2.1375,2.1375,2.1375,2.1375,2.1375,2.1375,2.1375,2.1375,2.1375,2.1375,2.1368,2.1362,2.1375,2.1375,2.1341,2.1335,2.1206,2.1247,2.1287,2.134,2.1333,2.1341,2.1375,2.1306,2.1299,2.1313,2.1105,2.0949,2.1105,2.1186,2.1044,2.101,2.1145,2.1111,2.0922,2.0888,2.0902,2.0922,2.0967,2.096,0.0,0.0,0.0,0.0,0.0,0.0,0.0,0.0,0.0,0.0,0.0,0.0,0.0,0.0,0.0,0.0,0.0,0.0,0.0,0.0,0.0,0.0,0.0,0.0,0.0,0.0,0.0,0.0,0.0,0.0,0.0,0.0,0.0,0.0,0.0,0.0,0.0,0.0,0.0,0.0,0.0,0.0,0.0,0.0,0.0,0.0,0.0,0.1093,0.3134,0.6027,0.943,1.4053,1.824,1.9549,1.9725,1.9725,1.9793,1.9915,2.0343,2.0564,2.0773,2.1159,2.1375,2.1375,2.1375,2.1375,2.1375,2.1375,2.1375,2.1375,2.1375,2.1375,2.1375,2.1375,2.1375,2.1375,2.1375,2.1375,2.1375,2.1375,2.1375,2.1375,2.1375,2.1375,2.1375,2.1375,2.1375,2.1375,2.1375,2.1375,2.1375,2.1375,2.1375,2.1375,2.1335,2.1328,2.1355,2.1375,2.1375,2.1348,2.1314,2.1341,2.1355,2.1348,2.1341,2.1321,2.1335,2.1375,2.1355,2.1172,2.1206,2.1267,2.1274,2.1233,2.1245,0.0,0.0,0.0,0.0,0.0,0.0,0.0,0.0,0.0,0.0,0.0,0.0,0.0,0.0,0.0,0.0,0.0,0.0,0.0,0.0,0.0,0.0,0.0,0.0,0.0,0.0,0.0,0.0,0.0,0.0,0.0,0.0,0.0,0.0,0.0,0.0,0.0,0.0,0.0,0.0,0.0,0.0,0.0,0.0,0.0385,0.058,0.1605,0.3323,0.5213,0.8509,1.2179,1.5976,1.8417,1.9725,1.9725,1.9732,1.9766,2.0058,2.0417,2.057,2.0895,2.1213,2.1321,2.1375,2.1375,2.1375,2.1375,2.1375,2.1375,2.1375,2.1375,2.1375,2.1375,2.1375,2.1375,2.1375,2.1375,2.1375,2.1375,2.1375,2.1375,2.1375,2.1375,2.1375,2.1375,2.1375,2.1375,2.1375,2.1375,2.1375,2.1375,2.1375,2.1375,2.1375,2.1375,2.1375,2.1375,2.1375,2.1375,2.1375,2.1375,2.1375,2.1375,2.1368,2.1368,2.1375,2.1375,2.1375,2.1348,2.1408,2.1341,2.1348,2.1341,2.1314,2.1341,0.0,0.0,0.0,0.0,0.0,0.0,0.0,0.0,0.0,0.0,0.0,0.0,0.0,0.0,0.0,0.0,0.0,0.0,0.0,0.0,0.0,0.0,0.0,0.0,0.0,0.0,0.0,0.0,0.0,0.0,0.0,0.0,0.0,0.0,0.0,0.0,0.0,0.0,0.0,0.0,0.0,0.0,0.0,0.0,0.256,0.3386,0.4837,0.7209,1.0047,1.3209,1.5976,1.8302,1.9313,1.9725,1.9725,1.9786,1.982,2.0146,2.0451,2.0722,2.1082,2.1287,2.1375,2.1375,2.1375,2.1375,2.1375,2.1375,2.1375,2.1375,2.1375,2.1375,2.1375,2.1375,2.1375,2.1375,2.1375,2.1375,2.1375,2.1375,2.1375,2.1375,2.1375,2.1375,2.1375,2.1382,2.1402,2.1395,2.1441,2.1375,2.1389,2.1389,2.1389,2.1375,2.1375,2.1375,2.1375,2.1375,2.1375,2.1375,2.1375,2.1375,2.1375,2.1375,2.1375,2.1448,2.1375,2.1469,2.1389,2.1389,2.1368,2.1368,2.1375,2.1375,2.1375]},{"header":{"parameterUnit":"m.s-1","parameterCategory":1,"la1":31.0,"la2":29.5877,"lo1":-88.7671,"lo2":-86.6584,"dy":0.0162,"dx":0.0185,"nx":115,"ny":88,"refTime":"2026-04-08T00:00:00:Z","depth":0,"parameterNumber":3,"parameterNumberName":"V-component_of_WINDS"},"data":[0.0,0.0,0.0,0.0,0.0,0.0,0.0,0.0,0.0,0.0,0.0,0.0,0.0,0.0,0.0,0.0,0.0,0.0,0.0,0.0,0.0,0.0,0.0,0.0,0.0,0.0,0.0,0.0,0.0,0.0,0.0,0.0,0.0,0.0,0.0,0.0,0.0,0.0,0.0,0.0,0.0,0.0,0.0,0.0,0.0,0.0,0.0,0.0,0.0,0.0,0.0,0.0,0.0,0.0,0.0,0.0,0.0,0.0,0.0,0.0,0.0,0.0,0.0,0.0,0.0,0.0,0.0,0.0,0.0,0.0,0.0,0.0,0.0,0.0,0.0,0.0,0.0,0.0,0.0,0.0,0.0,0.0,0.0,0.0,0.0,0.0,0.0,0.0,0.0,0.0,0.0,0.0,0.0,0.0,0.0,0.0,0.0,0.0,0.0,0.0,0.0,0.0,0.0,0.0,0.0,0.0,0.0,0.0,0.0,0.0,0.0,0.0,0.0,0.0,0.0,0.0,0.0,0.0,0.0,0.0,0.0,0.0,0.0,0.0,0.0,0.0,0.0,0.0,0.0,0.0,0.0,0.0,0.0,0.0,0.0,0.0,0.0,0.0,0.0,0.0,0.0,0.0,0.0,0.0,0.0,0.0,0.0,0.0,0.0,0.0,0.0,0.0,0.0,0.0,0.0,0.0,0.0,0.0,0.0,0.0,0.0,0.0,0.0,0.0,0.0,0.0,0.0,0.0,0.0,0.0,0.0,0.0,0.0,0.0,0.0,0.0,0.0,0.0,0.0,0.0,0.0,0.0,0.0,0.0,0.0,0.0,0.0,0.0,0.0,0.0,0.0,0.0,0.0,0.0,0.0,0.0,0.0,0.0,0.0,0.0,0.0,0.0,0.0,0.0,0.0,0.0,0.0,0.0,0.0,0.0,0.0,0.0,0.0,0.0,0.0,0.0,0.0,0.0,0.0,0.0,0.0,0.0,0.0,0.0,0.0,0.0,0.0,0.0,0.0,0.0,0.0,0.0,0.0,0.0,0.0,0.0,0.0,0.0,0.0,0.0,0.0,0.0,0.0,0.0,0.0,0.0,0.0,0.0,0.0,0.0,0.0,0.0,0.0,0.0,0.0,0.0,0.0,0.0,0.0,0.0,0.0,0.0,0.0,0.0,0.0,0.0,0.0,0.0,0.0,0.0,0.0,0.0,0.0,0.0,0.0,0.0,0.0,0.0,0.0,0.0,0.0,0.0,0.0,0.0,0.0,0.0,0.0,0.0,0.0,0.0,0.0,0.0,0.0,0.0,0.0,0.0,0.0,0.0,0.0,0.0,0.0,0.0,0.0,0.0,0.0,0.0,0.0,0.0,0.0,0.0,0.0,0.0,0.0,0.0,0.0,0.0,0.0,0.0,0.0,0.0,0.0,0.0,0.0,0.0,0.0,0.0,0.0,0.0,0.0,0.0,0.0,0.0,0.0,0.0,0.0,0.0,0.0,0.0,0.0,0.0,0.0,0.0,0.0,0.0,0.0,0.0,0.0,0.0,0.0,0.0,0.0,0.0,0.0,0.0,0.0,0.0,0.0,0.0,0.0,0.0,0.0,0.0,0.0,0.0,0.0,0.0,0.0,0.0,0.0,0.0,0.0,0.0,0.0,0.0,0.0,0.0,0.0,0.0,0.0,0.0,0.0,0.0,0.0,0.0,0.0,0.0,0.0,0.0,0.0,0.0,0.0,0.0,0.0,0.0,0.0,0.0,0.0,0.0,0.0,0.0,0.0,0.0,0.0,0.0,0.0,0.0,0.0,0.0,0.0,0.0,0.0,0.0,0.0,0.0,0.0,0.0,0.0,0.0,0.0,0.0,0.0,0.0,0.0,0.0,0.0,0.0,0.0,0.0,0.0,0.0,0.0,0.0,0.0,0.0,0.0,0.0,0.0,0.0,0.0,0.0,0.0,0.0,0.0,0.0,0.0,0.0,0.0,0.0,0.0,0.0,0.0,0.0,0.0,0.0,0.0,0.0,0.0,0.0,0.0,0.0,0.0,0.0,0.0,0.0,0.0,0.0,0.0,0.0,0.0,0.0,0.0,0.0,0.0,0.0,0.0,0.0,0.0,0.0,0.0,0.0,0.0,0.0,0.0,0.0,0.0,0.0,0.0,0.0,0.0,0.0,0.0,0.0,0.0,0.0,0.0,0.0,0.0,0.0,0.0,0.0,0.0,0.0,0.0,0.0,0.0,0.0,0.0,0.0,0.0,0.0,0.0,0.0,0.0,0.0,0.0,0.0,0.0,0.0,0.0,0.0,0.0,0.0,0.0,0.0,0.0,0.0,0.0,0.0,0.0,0.0,0.0,0.0,0.0,0.0,0.0,0.0,0.0,0.0,0.0,0.0,0.0,0.0,0.0,0.0,0.0,0.0,0.0,0.0,0.0,0.0,0.0,0.0,0.0,0.0,0.0,0.0,0.0,0.0,0.0,0.0,0.0,0.0,0.0,0.0,0.0,0.0,0.0,0.0,0.0,0.0,0.0,0.0,0.0,0.0,0.0,0.0,0.0,0.0,0.0,0.0,0.0,0.0,0.0,0.0,0.0,0.0,0.0,0.0,0.0,0.0,0.0,0.0,0.0,0.0,0.0,0.0,0.0,0.0,0.0,0.0,0.0,0.0,0.0,0.0,0.0,0.0,0.0,0.0,0.0,0.0,0.0,0.0,0.0,0.0,0.0,0.0,0.0,0.0,0.0,0.0,0.0,0.0,0.0,0.0,0.0,0.0,0.0,0.0,0.0,0.0,0.0,0.0,0.0,0.0,0.0,0.0,0.0,0.0,0.0,0.0,0.0,0.0,0.0,0.0,0.0,0.0,0.0,0.0,0.0,0.0,0.0,0.0,0.0,0.0,0.0,0.0,0.0,0.0,0.0,0.0,0.0,0.0,0.0,0.0,0.0,0.0,0.0,0.0,0.0,0.0,0.0,0.0,0.0,0.0,0.0,0.0,0.0,0.0,0.0,0.0,0.0,0.0,0.0,0.0,0.0,0.0,0.0,0.0,0.0,0.0,0.0,0.0,0.0,0.0,0.0,0.0,0.0,0.0,0.0,0.0,0.0,0.0,0.0,0.0,0.0,0.0,0.0,0.0,0.0,0.0,0.0,0.0,0.0,0.0,0.0,0.0,0.0,0.0,0.0,0.0,0.0,0.0,0.0,0.0,0.0,0.0,0.0,0.0,0.0,0.0,0.0,0.0,0.0,0.0,0.0,0.0,0.0,0.0,0.0,0.0,0.0,0.0,0.0,0.0,0.0,0.0,0.0,0.0,0.0,0.0,0.0,0.0,0.0,0.0,0.0,0.0,0.0,0.0,0.0,0.0,0.0,0.0,0.0,0.0,0.0,0.0,0.0,0.0,0.0,0.0,0.0,0.0,0.0,0.0,0.0,0.0,0.0,0.0,0.0,0.0,0.0,0.0,0.0,0.0,0.0,0.0,0.0,0.0,0.0,0.0,0.0,0.0,0.0,0.0,0.0,0.0,0.0,0.0,0.0,0.0,0.0,0.0,0.0,0.0,0.0,0.0,0.0,0.0,0.0,0.0,0.0,0.0,0.0,0.0,0.0,0.0,0.0,0.0,0.0,0.0,0.0,0.0,0.0,0.0,0.0,0.0,0.0,0.0,0.0,0.0,0.0,0.0,0.0,0.0,0.0,0.0,0.0,0.0,0.0,0.0,0.0,0.0,0.0,0.0,0.0,0.0,0.0,0.0,0.0,0.0,0.0,0.0,0.0,0.0,0.0,0.0,0.0,0.0,0.0,0.0,0.0,0.0,0.0,0.0,0.0,0.0,0.0,0.0,0.0,0.0,0.0,0.0,0.0,0.0,0.0,0.0,0.0,0.0,0.0,0.0,0.0,0.0,0.0,0.0,0.0,0.0,0.0,0.0,0.0,0.0,0.0,0.0,0.0,0.0,0.0,0.0,0.0,0.0,0.0,0.0,0.0,0.0,0.0,0.0,0.0,0.0,0.0,0.0,0.0,0.0,0.0,0.0,0.0,0.0,0.0,0.0,0.0,0.0,0.0,0.0,0.0,0.0,0.0,0.0,0.0,0.0,0.0,0.0,0.0,0.0,0.0,0.0,0.0,0.0,0.0,0.0,0.0,0.0,0.0,0.0,0.0,0.0,0.0,0.0,0.0,0.0,0.0,0.0,0.0,0.0,0.0,0.0,0.0,0.0,0.0,0.0,0.0,0.0,0.0,0.0,0.0,0.0,0.0,0.0,0.0,0.0,2.4782,0.0,0.0,0.0,0.0,0.0,0.0,0.0,0.0,0.0,0.0,0.0,0.0,0.0,0.0,0.0,0.0,0.0,0.0,0.0,0.0,0.0,0.0,0.0,0.0,0.0,0.0,0.0,0.0,0.0,0.0,0.0,0.0,0.0,0.0,0.0,0.0,0.0,0.0,0.0,0.0,0.0,0.0,0.0,0.0,0.0,0.0,0.0,0.0,0.0,0.0,0.0,0.0,0.0,0.0,0.0,0.0,0.0,0.0,0.0,0.0,0.0,0.0,0.0,0.0,0.0,0.0,0.0,0.0,0.0,0.0,0.0,0.0,0.0,0.0,0.0,0.0,0.0,0.0,0.0,0.0,0.0,0.0,0.0,0.0,0.0,0.0,0.0,0.0,0.0,0.0,0.0,0.0,0.0,0.0,0.0,0.0,0.0,0.0,0.0,0.0,0.0,0.0,0.0,0.0,0.0,0.0,0.0,0.0,0.0,0.0,2.286,2.3195,2.3697,2.4249,2.4786,0.0,0.0,0.0,0.0,0.0,0.0,0.0,0.0,0.0,0.0,0.0,0.0,0.0,0.0,0.0,0.0,0.0,0.0,0.0,0.0,0.0,0.0,0.0,0.0,0.0,0.0,0.0,0.0,0.0,0.0,0.0,0.0,0.0,0.0,0.0,0.0,0.0,0.0,0.0,0.0,0.0,0.0,0.0,0.0,0.0,0.0,0.0,0.0,0.0,0.0,0.0,0.0,0.0,0.0,0.0,0.0,0.0,0.0,0.0,0.0,0.0,0.0,0.0,0.0,0.0,0.0,0.0,0.0,0.0,0.0,0.0,0.0,0.0,0.0,0.0,0.0,0.0,0.0,0.0,0.0,0.0,0.0,0.0,0.0,0.0,0.0,0.0,0.0,0.0,0.0,0.0,0.0,0.0,0.0,0.0,0.0,0.0,0.0,0.0,0.0,0.0,0.0,0.0,0.0,0.0,0.0,0.0,0.0,0.0,0.0,0.0,0.0,2.4531,2.4983,2.5494,0.0,0.0,0.0,0.0,0.0,0.0,0.0,0.0,0.0,0.0,0.0,0.0,0.0,0.0,0.0,0.0,0.0,0.0,0.0,0.0,0.0,0.0,0.0,0.0,0.0,0.0,0.0,0.0,0.0,0.0,0.0,0.0,0.0,0.0,0.0,0.0,0.0,0.0,0.0,0.0,0.0,0.0,0.0,0.0,0.0,0.0,0.0,0.0,0.0,0.0,0.0,0.0,0.0,0.0,0.0,0.0,0.0,0.0,0.0,0.0,0.0,0.0,0.0,0.0,0.0,0.0,0.0,0.0,0.0,0.0,0.0,0.0,0.0,0.0,0.0,0.0,0.0,0.0,0.0,0.0,0.0,0.0,0.0,0.0,0.0,0.0,0.0,0.0,0.0,0.0,0.0,0.0,0.0,0.0,0.0,0.0,0.0,0.0,0.0,0.0,0.0,0.0,0.0,0.0,0.0,0.0,0.0,0.0,0.0,0.0,2.4367,2.6844,2.6949,0.0,2.7607,0.0,0.0,0.0,0.0,0.0,0.0,0.0,0.0,0.0,0.0,0.0,0.0,0.0,0.0,0.0,0.0,0.0,0.0,0.0,0.0,0.0,0.0,0.0,0.0,0.0,0.0,0.0,0.0,0.0,0.0,0.0,0.0,0.0,0.0,0.0,0.0,0.0,0.0,0.0,0.0,0.0,0.0,0.0,0.0,0.0,0.0,0.0,0.0,0.0,0.0,0.0,0.0,0.0,0.0,0.0,0.0,0.0,0.0,0.0,0.0,0.0,0.0,0.0,0.0,0.0,0.0,0.0,0.0,0.0,0.0,0.0,0.0,0.0,0.0,0.0,0.0,0.0,0.0,0.0,0.0,0.0,0.0,0.0,0.0,0.0,0.0,0.0,0.0,0.0,0.0,0.0,0.0,0.0,0.0,0.0,0.0,0.0,0.0,0.0,0.0,0.0,0.0,0.0,0.0,0.0,0.0,0.0,0.0,0.0,0.0,0.0,2.6522,2.7032,2.7504,0.0,0.0,0.0,0.0,0.0,0.0,0.0,0.0,0.0,0.0,0.0,0.0,0.0,0.0,0.0,0.0,0.0,0.0,0.0,0.0,0.0,0.0,0.0,0.0,0.0,0.0,0.0,0.0,0.0,0.0,0.0,0.0,0.0,0.0,0.0,0.0,0.0,0.0,0.0,0.0,0.0,0.0,0.0,0.0,0.0,0.0,0.0,0.0,0.0,0.0,0.0,0.0,0.0,0.0,0.0,0.0,0.0,0.0,0.0,0.0,0.0,0.0,0.0,0.0,0.0,0.0,0.0,0.0,0.0,0.0,0.0,0.0,0.0,0.0,0.0,0.0,0.0,0.0,0.0,0.0,0.0,0.0,0.0,0.0,0.0,0.0,0.0,0.0,0.0,0.0,0.0,0.0,0.0,0.0,0.0,0.0,0.0,0.0,0.0,0.0,0.0,0.0,0.0,0.0,0.0,0.0,0.0,0.0,0.0,0.0,2.6015,0.0,2.7348,2.7808,2.8017,2.7882,0.0,0.0,0.0,0.0,0.0,0.0,0.0,0.0,0.0,0.0,0.0,0.0,0.0,0.0,0.0,0.0,0.0,0.0,0.0,0.0,0.0,0.0,0.0,0.0,0.0,0.0,0.0,0.0,0.0,0.0,0.0,0.0,0.0,0.0,0.0,0.0,0.0,0.0,0.0,0.0,0.0,0.0,0.0,0.0,0.0,0.0,0.0,0.0,0.0,0.0,0.0,0.0,0.0,0.0,0.0,0.0,0.0,0.0,0.0,0.0,0.0,0.0,0.0,0.0,0.0,0.0,0.0,0.0,0.0,0.0,0.0,0.0,0.0,0.0,0.0,0.0,0.0,0.0,0.0,0.0,0.0,0.0,0.0,0.0,0.0,0.0,0.0,0.0,0.0,0.0,0.0,0.0,0.0,0.0,0.0,0.0,0.0,0.0,0.0,0.0,0.0,0.0,0.0,0.0,0.0,0.0,0.0,0.0,0.0,2.7621,2.8063,3.0532,3.0216,2.9321,0.0,0.0,0.0,0.0,0.0,0.0,0.0,0.0,0.0,0.0,0.0,0.0,0.0,0.0,0.0,0.0,0.0,0.0,0.0,0.0,0.0,0.0,0.0,0.0,0.0,0.0,0.0,0.0,0.0,0.0,0.0,0.0,0.0,0.0,0.0,0.0,0.0,0.0,0.0,0.0,0.0,0.0,0.0,0.0,0.0,0.0,0.0,0.0,0.0,0.0,0.0,0.0,0.0,0.0,0.0,0.0,0.0,0.0,0.0,0.0,0.0,0.0,0.0,0.0,0.0,0.0,0.0,0.0,0.0,0.0,0.0,0.0,0.0,0.0,0.0,0.0,0.0,0.0,0.0,0.0,0.0,0.0,0.0,0.0,0.0,0.0,0.0,0.0,0.0,0.0,0.0,0.0,0.0,0.0,0.0,0.0,0.0,0.0,0.0,0.0,0.0,0.0,0.0,0.0,0.0,0.0,0.0,0.0,0.0,2.5143,2.6104,2.8498,3.2213,2.9817,2.8686,0.0,0.0,0.0,0.0,0.0,0.0,0.0,0.0,0.0,0.0,0.0,0.0,0.0,0.0,0.0,0.0,0.0,0.0,0.0,0.0,0.0,0.0,0.0,0.0,0.0,0.0,0.0,0.0,0.0,0.0,0.0,0.0,0.0,0.0,0.0,0.0,0.0,0.0,0.0,0.0,0.0,0.0,0.0,0.0,0.0,0.0,0.0,0.0,0.0,0.0,0.0,0.0,0.0,0.0,0.0,0.0,0.0,0.0,0.0,0.0,0.0,0.0,0.0,0.0,0.0,0.0,0.0,0.0,0.0,0.0,0.0,0.0,0.0,0.0,0.0,0.0,0.0,0.0,0.0,0.0,0.0,0.0,0.0,0.0,0.0,0.0,0.0,0.0,0.0,0.0,0.0,0.0,0.0,0.0,0.0,0.0,0.0,0.0,0.0,0.0,0.0,0.0,0.0,0.0,0.0,0.0,0.0,0.0,0.0,2.5361,0.0,3.0344,0.0,3.0073,2.858,0.0,0.0,0.0,0.0,0.0,0.0,0.0,0.0,0.0,0.0,0.0,0.0,0.0,0.0,0.0,0.0,0.0,0.0,0.0,0.0,0.0,0.0,0.0,0.0,0.0,0.0,0.0,0.0,0.0,0.0,0.0,0.0,0.0,0.0,0.0,0.0,0.0,0.0,0.0,0.0,0.0,0.0,0.0,0.0,0.0,0.0,0.0,0.0,0.0,0.0,0.0,0.0,0.0,0.0,0.0,0.0,0.0,0.0,0.0,0.0,0.0,0.0,0.0,0.0,0.0,0.0,0.0,0.0,0.0,0.0,0.0,0.0,0.0,0.0,0.0,0.0,0.0,0.0,0.0,0.0,0.0,0.0,0.0,0.0,0.0,0.0,0.0,0.0,0.0,0.0,0.0,0.0,0.0,0.0,0.0,0.0,0.0,0.0,0.0,0.0,0.0,0.0,0.0,0.0,0.0,0.0,0.0,0.0,2.547,3.0677,3.31,3.3443,3.1864,3.1255,2.9193,0.0,0.0,0.0,0.0,0.0,0.0,0.0,0.0,0.0,0.0,0.0,0.0,0.0,0.0,0.0,0.0,0.0,0.0,0.0,0.0,0.0,0.0,0.0,0.0,0.0,0.0,0.0,0.0,0.0,0.0,0.0,0.0,0.0,0.0,0.0,0.0,0.0,0.0,0.0,0.0,0.0,0.0,0.0,0.0,0.0,0.0,0.0,0.0,0.0,0.0,0.0,0.0,0.0,0.0,0.0,0.0,0.0,0.0,0.0,0.0,0.0,0.0,0.0,0.0,0.0,0.0,0.0,0.0,0.0,0.0,0.0,0.0,0.0,0.0,0.0,0.0,0.0,0.0,0.0,0.0,0.0,0.0,0.0,0.0,0.0,0.0,0.0,0.0,0.0,0.0,0.0,0.0,0.0,0.0,0.0,0.0,0.0,0.0,0.0,0.0,0.0,0.0,0.0,0.0,0.0,0.0,0.0,0.0,0.0,2.9366,3.1559,3.343,3.4709,3.0705,2.9076,0.0,0.0,0.0,0.0,0.0,0.0,0.0,0.0,0.0,0.0,0.0,0.0,0.0,0.0,0.0,0.0,0.0,0.0,0.0,0.0,0.0,0.0,0.0,0.0,0.0,0.0,0.0,0.0,0.0,0.0,0.0,0.0,0.0,0.0,0.0,0.0,0.0,0.0,0.0,0.0,0.0,0.0,0.0,0.0,0.0,0.0,0.0,0.0,0.0,0.0,0.0,0.0,0.0,0.0,0.0,0.0,0.0,0.0,0.0,0.0,0.0,0.0,0.0,0.0,0.0,0.0,0.0,0.0,0.0,0.0,0.0,0.0,0.0,0.0,0.0,0.0,0.0,0.0,0.0,0.0,0.0,0.0,0.0,0.0,0.0,0.0,0.0,0.0,0.0,0.0,0.0,0.0,0.0,0.0,0.0,0.0,0.0,0.0,0.0,0.0,0.0,0.0,0.0,0.0,0.0,0.0,0.0,0.0,0.0,3.3225,3.5426,3.6998,3.768,3.3374,3.1274,3.1731,0.0,0.0,0.0,0.0,0.0,0.0,0.0,0.0,0.0,0.0,0.0,0.0,0.0,0.0,0.0,0.0,0.0,0.0,0.0,0.0,0.0,0.0,0.0,0.0,0.0,0.0,0.0,0.0,0.0,0.0,0.0,0.0,0.0,0.0,0.0,0.0,0.0,0.0,0.0,0.0,0.0,0.0,0.0,0.0,0.0,0.0,0.0,0.0,0.0,0.0,0.0,0.0,0.0,0.0,0.0,0.0,0.0,0.0,0.0,0.0,0.0,0.0,0.0,0.0,0.0,0.0,0.0,0.0,0.0,0.0,0.0,0.0,0.0,0.0,0.0,0.0,0.0,0.0,0.0,0.0,0.0,0.0,0.0,0.0,0.0,0.0,0.0,0.0,0.0,0.0,0.0,0.0,0.0,0.0,0.0,0.0,0.0,0.0,0.0,0.0,0.0,0.0,0.0,0.0,0.0,0.0,0.0,0.0,4.105,4.3809,4.3625,4.0371,3.8437,3.5327,0.0,0.0,0.0,0.0,0.0,0.0,0.0,0.0,0.0,0.0,0.0,0.0,0.0,0.0,0.0,0.0,0.0,0.0,0.0,0.0,0.0,0.0,0.0,0.0,0.0,0.0,0.0,0.0,0.0,0.0,0.0,0.0,0.0,0.0,0.0,0.0,0.0,0.0,0.0,0.0,0.0,0.0,0.0,0.0,0.0,0.0,0.0,0.0,0.0,0.0,0.0,0.0,0.0,0.0,0.0,0.0,0.0,0.0,0.0,0.0,0.0,0.0,0.0,0.0,0.0,0.0,0.0,0.0,0.0,0.0,0.0,0.0,0.0,0.0,0.0,0.0,0.0,0.0,0.0,0.0,0.0,0.0,0.0,0.0,0.0,0.0,0.0,0.0,0.0,0.0,0.0,0.0,0.0,0.0,0.0,0.0,0.0,0.0,0.0,0.0,0.0,0.0,0.0,0.0,0.0,0.0,0.0,0.0,0.0,4.7855,5.0596,5.0007,4.5975,4.0529,3.7092,0.0,0.0,0.0,0.0,0.0,0.0,0.0,0.0,0.0,0.0,0.0,0.0,0.0,0.0,0.0,0.0,0.0,0.0,0.0,0.0,0.0,0.0,0.0,0.0,0.0,0.0,0.0,0.0,0.0,0.0,0.0,0.0,0.0,0.0,0.0,0.0,0.0,0.0,0.0,0.0,0.0,0.0,0.0,0.0,0.0,0.0,0.0,0.0,0.0,0.0,0.0,0.0,0.0,0.0,0.0,0.0,0.0,0.0,0.0,0.0,0.0,0.0,0.0,0.0,0.0,0.0,0.0,0.0,0.0,0.0,0.0,0.0,0.0,0.0,0.0,0.0,0.0,0.0,0.0,0.0,0.0,0.0,0.0,0.0,0.0,0.0,0.0,0.0,0.0,0.0,0.0,0.0,0.0,0.0,0.0,0.0,0.0,0.0,0.0,0.0,0.0,0.0,0.0,0.0,0.0,0.0,0.0,0.0,4.5817,5.113,5.5088,5.5472,5.1938,4.5481,4.0897,0.0,0.0,0.0,0.0,0.0,0.0,0.0,0.0,0.0,0.0,0.0,0.0,0.0,0.0,0.0,0.0,0.0,0.0,0.0,0.0,0.0,0.0,0.0,0.0,0.0,0.0,0.0,0.0,0.0,0.0,0.0,0.0,0.0,0.0,0.0,0.0,0.0,0.0,0.0,0.0,0.0,0.0,0.0,0.0,0.0,0.0,0.0,0.0,0.0,0.0,0.0,0.0,0.0,0.0,0.0,0.0,0.0,0.0,0.0,0.0,0.0,0.0,0.0,0.0,0.0,0.0,0.0,0.0,0.0,0.0,0.0,0.0,0.0,0.0,0.0,0.0,0.0,0.0,0.0,0.0,0.0,0.0,0.0,0.0,0.0,0.0,0.0,0.0,0.0,0.0,0.0,0.0,0.0,0.0,0.0,0.0,0.0,0.0,0.0,0.0,0.0,0.0,0.0,0.0,0.0,0.0,0.0,0.0,4.9148,5.2664,5.8088,5.9787,5.7324,5.1548,4.5663,0.0,0.0,0.0,0.0,0.0,0.0,0.0,0.0,0.0,0.0,0.0,0.0,0.0,0.0,0.0,0.0,0.0,0.0,0.0,0.0,0.0,0.0,0.0,0.0,0.0,0.0,0.0,0.0,0.0,0.0,0.0,0.0,0.0,0.0,0.0,0.0,0.0,0.0,0.0,0.0,0.0,0.0,0.0,0.0,0.0,0.0,0.0,0.0,0.0,0.0,0.0,0.0,0.0,0.0,0.0,0.0,0.0,0.0,0.0,0.0,0.0,0.0,0.0,0.0,0.0,0.0,0.0,0.0,0.0,0.0,0.0,0.0,0.0,0.0,0.0,0.0,0.0,0.0,0.0,0.0,0.0,0.0,0.0,0.0,0.0,0.0,0.0,0.0,0.0,0.0,0.0,0.0,0.0,0.0,0.0,0.0,0.0,0.0,0.0,0.0,0.0,0.0,0.0,0.0,0.0,0.0,0.0,0.0,5.2567,5.7747,6.0473,6.1248,6.0017,5.3592,4.7668,0.0,0.0,0.0,0.0,0.0,0.0,0.0,0.0,0.0,0.0,0.0,0.0,0.0,0.0,0.0,0.0,0.0,0.0,0.0,0.0,0.0,0.0,0.0,0.0,0.0,0.0,0.0,0.0,0.0,0.0,0.0,0.0,0.0,0.0,0.0,0.0,0.0,0.0,0.0,0.0,0.0,0.0,0.0,0.0,0.0,0.0,0.0,0.0,3.0556,0.0,0.0,0.0,0.0,0.0,0.0,0.0,0.0,0.0,0.0,0.0,0.0,0.0,0.0,0.0,0.0,0.0,0.0,0.0,0.0,0.0,0.0,0.0,0.0,0.0,0.0,0.0,0.0,0.0,0.0,0.0,0.0,0.0,0.0,0.0,0.0,0.0,0.0,0.0,0.0,0.0,0.0,0.0,0.0,0.0,0.0,0.0,0.0,0.0,0.0,0.0,0.0,0.0,0.0,0.0,0.0,0.0,0.0,0.0,5.4688,5.9946,6.2595,6.2903,6.0748,5.6549,5.0855,0.0,0.0,0.0,0.0,0.0,0.0,0.0,0.0,0.0,0.0,0.0,0.0,0.0,0.0,0.0,0.0,0.0,0.0,0.0,0.0,0.0,0.0,0.0,0.0,0.0,0.0,0.0,0.0,0.0,0.0,0.0,0.0,0.0,0.0,0.0,0.0,0.0,0.0,0.0,0.0,0.0,0.0,0.0,0.0,0.0,0.0,0.0,0.0,0.0,0.0,0.0,0.0,0.0,0.0,0.0,0.0,0.0,0.0,0.0,0.0,0.0,0.0,0.0,0.0,0.0,0.0,0.0,0.0,0.0,0.0,0.0,0.0,0.0,0.0,0.0,0.0,0.0,0.0,0.0,0.0,0.0,0.0,0.0,0.0,0.0,0.0,0.0,0.0,0.0,0.0,0.0,0.0,0.0,0.0,0.0,0.0,0.0,0.0,0.0,0.0,0.0,0.0,0.0,0.0,0.0,0.0,0.0,5.0109,5.605,6.1228,6.4365,6.4397,6.1281,5.9435,5.4073,4.4883,0.0,0.0,0.0,0.0,0.0,0.0,0.0,0.0,0.0,0.0,0.0,0.0,0.0,0.0,0.0,0.0,0.0,0.0,0.0,0.0,0.0,0.0,0.0,0.0,0.0,0.0,0.0,0.0,0.0,0.0,0.0,0.0,0.0,0.0,0.0,0.0,0.0,0.0,3.0491,3.383,0.0,0.0,0.0,0.0,0.0,0.0,0.0,0.0,3.3167,0.0,0.0,0.0,0.0,0.0,0.0,0.0,0.0,0.0,0.0,0.0,0.0,0.0,0.0,0.0,0.0,0.0,0.0,0.0,0.0,0.0,0.0,0.0,0.0,0.0,0.0,0.0,0.0,0.0,0.0,0.0,0.0,0.0,0.0,0.0,0.0,0.0,0.0,0.0,0.0,0.0,0.0,0.0,0.0,0.0,0.0,0.0,0.0,0.0,0.0,0.0,0.0,0.0,0.0,0.0,0.0,5.0348,5.2433,5.683,6.3788,6.5243,6.4936,6.2929,6.0544,5.5462,4.7455,0.0,0.0,0.0,0.0,0.0,0.0,0.0,0.0,0.0,0.0,0.0,0.0,0.0,0.0,0.0,0.0,0.0,0.0,0.0,0.0,0.0,0.0,0.0,0.0,0.0,0.0,0.0,0.0,0.0,0.0,0.0,0.0,0.0,0.0,0.0,0.0,0.0,0.0,0.0,3.9827,4.1283,0.0,0.0,0.0,0.0,0.0,0.0,0.0,0.0,3.5552,0.0,0.0,0.0,0.0,0.0,0.0,0.0,0.0,0.0,0.0,0.0,0.0,0.0,0.0,0.0,0.0,0.0,0.0,0.0,0.0,0.0,0.0,0.0,0.0,0.0,0.0,0.0,0.0,0.0,0.0,0.0,0.0,0.0,0.0,0.0,0.0,0.0,0.0,0.0,0.0,0.0,0.0,0.0,0.0,0.0,0.0,0.0,0.0,0.0,0.0,0.0,0.0,0.0,0.0,0.0,5.0535,5.5149,5.9924,6.5063,6.6096,6.5513,6.3314,5.955,5.4507,0.0,0.0,0.0,0.0,0.0,0.0,0.0,0.0,0.0,0.0,0.0,0.0,0.0,0.0,0.0,0.0,0.0,0.0,0.0,0.0,0.0,0.0,0.0,0.0,0.0,0.0,0.0,0.0,0.0,0.0,0.0,0.0,0.0,0.0,0.0,0.0,0.0,0.0,0.0,0.0,4.2543,4.3989,4.519,0.0,0.0,0.0,0.0,0.0,0.0,3.8875,3.7543,0.0,0.0,0.0,0.0,0.0,0.0,0.0,0.0,0.0,0.0,0.0,0.0,0.0,0.0,0.0,0.0,0.0,0.0,0.0,0.0,0.0,0.0,0.0,0.0,0.0,0.0,0.0,0.0,0.0,0.0,0.0,0.0,0.0,0.0,0.0,0.0,0.0,0.0,0.0,0.0,0.0,0.0,0.0,0.0,0.0,0.0,0.0,0.0,0.0,0.0,0.0,0.0,0.0,0.0,0.0,5.0122,5.7104,6.2541,6.6211,6.6859,6.6128,6.4045,5.8973,5.3802,0.0,0.0,0.0,0.0,0.0,0.0,0.0,0.0,0.0,0.0,0.0,0.0,0.0,0.0,0.0,0.0,0.0,0.0,0.0,0.0,0.0,0.0,0.0,0.0,0.0,0.0,0.0,0.0,0.0,0.0,0.0,0.0,0.0,0.0,0.0,0.0,0.0,0.0,0.0,0.0,0.0,4.6881,4.8129,4.5843,0.0,0.0,0.0,0.0,4.2656,4.2641,0.0,0.0,0.0,0.0,0.0,0.0,0.0,0.0,0.0,0.0,0.0,0.0,0.0,0.0,0.0,0.0,0.0,0.0,0.0,0.0,0.0,0.0,0.0,0.0,0.0,0.0,0.0,0.0,0.0,0.0,0.0,0.0,0.0,0.0,0.0,0.0,0.0,0.0,0.0,0.0,0.0,0.0,0.0,0.0,0.0,0.0,0.0,0.0,0.0,0.0,0.0,0.0,0.0,0.0,0.0,0.0,5.1758,5.7019,6.2421,6.7744,6.7481,6.6942,6.659,6.105,5.5511,0.0,0.0,0.0,0.0,0.0,0.0,0.0,0.0,0.0,0.0,0.0,0.0,0.0,0.0,0.0,0.0,0.0,0.0,0.0,0.0,0.0,0.0,0.0,0.0,0.0,0.0,0.0,0.0,0.0,0.0,0.0,0.0,0.0,0.0,0.0,0.0,0.0,0.0,0.0,0.0,0.0,5.1773,5.0595,4.8862,4.7472,0.0,0.0,4.8704,5.05,5.2227,0.0,0.0,0.0,0.0,0.0,0.0,0.0,0.0,0.0,0.0,0.0,0.0,0.0,0.0,0.0,0.0,0.0,0.0,0.0,0.0,0.0,0.0,0.0,0.0,0.0,0.0,0.0,0.0,0.0,0.0,0.0,0.0,0.0,0.0,0.0,0.0,0.0,0.0,0.0,0.0,0.0,0.0,0.0,0.0,0.0,0.0,0.0,0.0,0.0,0.0,0.0,0.0,0.0,0.0,0.0,4.7172,5.2967,6.012,6.532,6.8276,6.8513,6.809,6.7135,6.0441,5.477,0.0,0.0,0.0,0.0,0.0,0.0,0.0,0.0,0.0,0.0,0.0,0.0,0.0,0.0,0.0,0.0,0.0,0.0,0.0,0.0,0.0,0.0,0.0,0.0,0.0,0.0,0.0,0.0,0.0,0.0,0.0,0.0,0.0,0.0,0.0,0.0,0.0,0.0,0.0,0.0,0.0,0.0,5.4874,5.3995,0.0,0.0,0.0,5.3654,5.3588,0.0,0.0,0.0,0.0,0.0,0.0,0.0,0.0,0.0,0.0,0.0,0.0,0.0,0.0,0.0,0.0,0.0,0.0,0.0,0.0,0.0,0.0,0.0,0.0,0.0,0.0,0.0,0.0,0.0,0.0,0.0,0.0,0.0,0.0,0.0,0.0,0.0,0.0,0.0,0.0,0.0,0.0,0.0,0.0,0.0,0.0,0.0,0.0,0.0,0.0,0.0,0.0,0.0,0.0,0.0,0.0,0.0,5.3867,6.3009,6.8167,6.9013,6.9436,6.909,6.7667,6.0742,0.0,0.0,0.0,0.0,0.0,0.0,0.0,0.0,0.0,0.0,0.0,0.0,0.0,0.0,0.0,0.0,0.0,0.0,0.0,0.0,0.0,0.0,0.0,0.0,0.0,0.0,0.0,2.5585,0.0,0.0,0.0,0.0,0.0,0.0,0.0,0.0,0.0,0.0,0.0,0.0,0.0,0.0,5.5702,5.8274,5.8404,5.8756,0.0,0.0,5.8266,5.7594,5.9543,5.8506,0.0,0.0,0.0,0.0,0.0,0.0,0.0,0.0,0.0,0.0,0.0,0.0,0.0,0.0,0.0,0.0,0.0,0.0,0.0,0.0,0.0,0.0,0.0,0.0,0.0,0.0,0.0,0.0,0.0,0.0,0.0,0.0,0.0,0.0,0.0,0.0,0.0,0.0,0.0,0.0,0.0,0.0,0.0,0.0,0.0,0.0,0.0,0.0,0.0,0.0,0.0,0.0,0.0,0.0,0.0,5.4897,6.447,6.9898,7.0667,7.0052,6.9667,6.9436,6.3634,5.7497,0.0,0.0,0.0,0.0,0.0,0.0,0.0,0.0,0.0,0.0,0.0,0.0,0.0,0.0,0.0,0.0,0.0,0.0,0.0,0.0,0.0,0.0,0.0,0.0,0.0,0.0,0.0,0.0,0.0,0.0,0.0,0.0,0.0,0.0,0.0,0.0,0.0,0.0,0.0,0.0,0.0,5.913,5.9459,6.0736,6.2673,0.0,0.0,6.3037,6.4853,6.809,6.6806,5.5981,0.0,0.0,0.0,0.0,0.0,0.0,0.0,0.0,0.0,0.0,0.0,0.0,0.0,0.0,0.0,0.0,0.0,0.0,0.0,0.0,0.0,0.0,0.0,0.0,0.0,0.0,0.0,0.0,0.0,0.0,0.0,0.0,0.0,0.0,0.0,0.0,0.0,0.0,0.0,0.0,0.0,0.0,0.0,0.0,0.0,0.0,0.0,0.0,0.0,0.0,0.0,0.0,0.0,5.1513,5.5574,6.4861,7.009,7.086,7.0591,7.0206,6.9706,6.5436,5.9818,0.0,0.0,0.0,0.0,0.0,0.0,0.0,0.0,0.0,0.0,0.0,0.0,0.0,0.0,0.0,0.0,0.0,0.0,0.0,0.0,0.0,0.0,0.0,0.0,0.0,0.0,0.0,0.0,3.5209,3.6009,3.5649,0.0,0.0,0.0,0.0,0.0,0.0,0.0,0.0,0.0,0.0,6.2369,6.6015,6.7079,0.0,0.0,6.9194,6.8174,6.7124,6.7956,6.5807,5.7131,5.3413,0.0,0.0,0.0,0.0,0.0,0.0,0.0,0.0,0.0,0.0,0.0,0.0,0.0,0.0,0.0,0.0,0.0,0.0,0.0,0.0,0.0,0.0,0.0,0.0,0.0,0.0,0.0,0.0,0.0,0.0,0.0,0.0,0.0,0.0,0.0,0.0,0.0,0.0,0.0,0.0,0.0,0.0,0.0,0.0,0.0,0.0,0.0,0.0,0.0,0.0,0.0,0.0,5.2406,5.6753,6.5793,7.0744,7.1283,7.129,7.0898,7.0014,6.7013,6.203,0.0,0.0,0.0,0.0,0.0,0.0,0.0,0.0,0.0,0.0,0.0,0.0,0.0,0.0,0.0,0.0,0.0,0.0,0.0,0.0,0.0,0.0,0.0,0.0,0.0,0.0,0.0,0.0,3.8953,3.9357,3.7999,0.0,0.0,0.0,0.0,0.0,0.0,0.0,0.0,0.0,0.0,6.6211,7.0321,7.136,7.1898,7.2514,7.1482,7.0085,6.848,6.7868,6.5356,5.8783,0.0,0.0,0.0,0.0,0.0,0.0,0.0,0.0,0.0,0.0,0.0,0.0,0.0,0.0,0.0,0.0,0.0,0.0,0.0,0.0,0.0,0.0,0.0,0.0,0.0,0.0,0.0,0.0,0.0,0.0,3.1593,0.0,0.0,0.0,0.0,0.0,0.0,0.0,0.0,0.0,0.0,0.0,0.0,0.0,0.0,0.0,0.0,0.0,0.0,0.0,0.0,0.0,0.0,0.0,5.8577,6.7458,7.2136,7.2175,7.2175,7.1752,7.086,6.8398,6.4116,5.7864,0.0,0.0,0.0,0.0,0.0,0.0,0.0,0.0,0.0,0.0,0.0,0.0,0.0,0.0,0.0,0.0,0.0,0.0,0.0,0.0,0.0,0.0,0.0,0.0,0.0,0.0,3.7698,3.8961,3.9622,0.0,0.0,0.0,0.0,0.0,0.0,0.0,0.0,0.0,0.0,6.4737,7.0744,7.0937,7.2392,7.3546,7.3584,7.009,6.7898,6.948,6.9123,6.6912,0.0,0.0,0.0,0.0,0.0,0.0,0.0,0.0,0.0,0.0,0.0,0.0,0.0,0.0,0.0,0.0,0.0,0.0,0.0,0.0,0.0,0.0,0.0,0.0,0.0,0.0,0.0,4.2985,4.192,0.0,0.0,0.0,0.0,0.0,0.0,0.0,0.0,0.0,0.0,0.0,5.4328,5.5648,0.0,0.0,0.0,0.0,0.0,0.0,0.0,0.0,0.0,0.0,0.0,0.0,5.4669,5.8788,6.7574,7.2476,7.3053,7.3046,7.2668,7.1783,7.036,6.5397,5.6524,0.0,0.0,0.0,0.0,0.0,0.0,0.0,0.0,0.0,0.0,0.0,0.0,0.0,0.0,0.0,0.0,0.0,0.0,0.0,0.0,0.0,0.0,0.0,0.0,0.0,4.1705,0.0,0.0,0.0,0.0,0.0,0.0,0.0,0.0,0.0,0.0,0.0,5.7328,6.2868,6.782,7.1745,7.3976,7.5284,7.6438,0.0,0.0,0.0,0.0,0.0,0.0,0.0,0.0,0.0,0.0,0.0,0.0,0.0,0.0,6.3722,5.2401,5.033,5.0271,5.0204,0.0,0.0,0.0,0.0,0.0,0.0,0.0,0.0,0.0,0.0,0.0,0.0,0.0,0.0,5.0066,0.0,4.8656,0.0,0.0,0.0,0.0,0.0,0.0,0.0,0.0,5.8829,6.1923,6.3193,6.4291,6.3956,0.0,6.0002,5.4887,0.0,0.0,0.0,0.0,0.0,0.0,0.0,0.0,5.6488,6.0553,6.8737,7.336,7.3892,7.3892,7.3507,7.2629,7.0937,6.6652,5.9523,5.4458,4.9248,0.0,0.0,0.0,0.0,0.0,0.0,0.0,0.0,0.0,0.0,0.0,0.0,0.0,0.0,0.0,0.0,0.0,0.0,0.0,0.0,0.0,0.0,0.0,4.5536,0.0,0.0,0.0,0.0,0.0,0.0,0.0,0.0,0.0,5.3671,5.8157,6.3546,6.9032,7.2476,7.4822,7.5861,0.0,0.0,0.0,0.0,0.0,0.0,0.0,6.9226,6.8379,6.7523,6.7449,6.9105,7.2327,7.4222,7.2859,0.0,0.0,6.2795,6.0623,6.0587,6.0489,6.1732,6.2992,6.3701,6.5539,6.7283,0.0,0.0,0.0,0.0,0.0,0.0,0.0,0.0,5.765,5.7496,0.0,5.5808,0.0,0.0,0.0,0.0,0.0,5.708,0.0,0.0,7.1221,7.4515,7.3005,7.3008,7.2618,7.1806,7.0035,6.7047,6.2542,5.2503,0.0,0.0,0.0,0.0,0.0,0.0,5.9469,6.3837,7.0943,7.47,7.4738,7.4738,7.4353,7.3507,7.0353,6.8007,6.6514,6.1879,5.7001,5.2015,4.7912,0.0,0.0,0.0,0.0,0.0,0.0,0.0,0.0,0.0,0.0,0.0,0.0,0.0,0.0,0.0,0.0,0.0,0.0,0.0,0.0,4.7034,0.0,0.0,0.0,0.0,0.0,0.0,0.0,0.0,0.0,0.0,6.0621,6.5038,7.0122,7.4123,0.0,0.0,0.0,0.0,7.9669,7.5738,7.4353,7.3892,7.4,7.47,7.5248,7.5362,0.0,0.0,7.6659,7.6914,7.701,7.4586,7.7703,7.9329,7.7727,7.4382,7.2497,7.3149,7.2268,7.1807,7.2547,7.4147,7.5332,6.7299,0.0,0.0,0.0,0.0,6.3447,6.6367,7.0727,7.0094,6.8796,6.7087,6.5611,0.0,0.0,0.0,0.0,0.0,0.0,6.6823,7.0341,7.4046,7.6677,7.8417,7.908,7.8884,7.7926,7.6836,7.4703,7.1674,6.7411,5.9223,4.7669,0.0,0.0,0.0,0.0,6.2534,6.6365,7.1859,7.5014,7.563,7.563,7.5207,7.4353,7.2853,7.0742,6.7976,6.6205,6.2733,5.7213,5.3515,0.0,0.0,0.0,0.0,0.0,0.0,0.0,0.0,0.0,0.0,0.0,0.0,0.0,0.0,0.0,0.0,0.0,0.0,0.0,4.7688,4.9767,5.0914,0.0,0.0,0.0,0.0,0.0,0.0,0.0,0.0,0.0,7.2598,7.2937,7.3584,0.0,0.0,7.7823,7.6207,7.89,8.1093,8.1054,0.0,0.0,0.0,7.9353,7.8168,7.9972,8.3179,8.5109,8.4225,8.6257,8.7838,8.7013,8.8442,8.943,8.8673,8.3531,7.954,7.9474,8.0409,8.1538,8.2319,8.4133,8.58,7.9022,7.2678,6.9501,6.9598,7.1856,7.2299,7.5021,7.9147,7.838,7.7492,7.6543,7.5183,7.1477,6.6116,6.4361,0.0,0.0,0.0,7.4101,7.7969,7.9687,8.1715,8.3804,8.4429,8.4175,8.3228,8.2058,8.0501,7.8593,7.6141,6.956,5.9232,0.0,0.0,5.6072,6.2199,6.6945,7.0079,7.3889,7.6096,7.6636,7.6216,7.5745,7.5207,7.4392,7.3007,7.1007,7.0383,6.7897,6.3227,6.0111,5.5697,0.0,0.0,0.0,0.0,0.0,0.0,0.0,0.0,0.0,0.0,0.0,3.9208,0.0,0.0,0.0,0.0,4.6134,4.9885,5.3582,5.4818,0.0,0.0,0.0,0.0,0.0,0.0,0.0,6.684,7.1975,7.6522,8.0023,8.0362,8.0323,8.0516,8.1254,8.137,8.0169,0.0,8.4709,8.5055,8.4948,8.5209,8.6209,8.4824,8.4286,8.6448,8.8487,8.9825,8.9979,9.1672,9.2903,9.3018,9.3364,9.3672,9.3672,8.9984,8.6968,8.6691,8.7699,8.8835,8.9285,9.0846,9.2228,8.8789,8.7461,8.006,7.7714,7.8971,8.056,8.2185,8.3614,8.3656,8.4039,8.4581,8.3728,8.075,7.6194,7.3275,0.0,7.6914,7.9336,8.2109,8.5351,8.6953,8.8086,8.8789,8.875,8.8398,8.7539,8.5976,8.4726,8.3633,8.0451,7.7115,7.3688,6.899,6.6367,6.5975,6.9109,7.21,7.4673,7.6764,7.7782,7.7672,7.6571,7.5976,7.5976,7.5207,7.4784,7.4661,7.3969,7.2255,6.9373,6.6896,6.2625,5.6196,0.0,0.0,0.0,0.0,0.0,0.0,0.0,0.0,0.0,0.0,0.0,0.0,0.0,0.0,0.0,5.4254,0.0,6.0979,6.1243,0.0,0.0,0.0,6.1858,6.5243,6.8507,7.1475,7.4007,0.0,0.0,8.4217,0.0,8.8833,8.8094,8.841,8.8102,8.644,8.8201,8.9432,8.7902,8.8487,8.9064,8.918,9.0094,9.1287,9.2835,9.3787,9.3642,9.3749,9.3941,9.4018,9.4095,9.4066,9.422,9.4134,9.4606,9.5018,9.402,9.3876,9.3923,9.3876,9.4568,9.5222,9.3429,9.2917,9.0986,8.863,8.624,8.7294,8.8347,8.9322,8.9322,8.8697,8.7603,8.6783,8.503,8.2653,8.2578,8.332,8.4804,8.6015,8.7344,8.875,8.9219,8.9492,8.9687,8.9687,8.9258,8.8437,8.8008,8.7031,8.5586,8.4725,8.2537,7.9217,7.7888,7.4548,6.9477,7.2521,7.5465,7.803,7.9154,7.9367,7.8574,7.688,7.5976,7.5976,7.5822,7.5361,7.4738,7.4507,7.3479,7.1516,6.9322,6.6253,6.2124,5.4723,0.0,0.0,0.0,0.0,0.0,0.0,0.0,0.0,0.0,4.8726,4.3607,0.0,5.2196,0.0,5.7489,6.1941,6.4436,6.525,0.0,0.0,6.9013,7.0514,7.3906,7.613,7.84,8.09,8.3747,8.6478,8.9056,9.121,9.2681,9.3065,9.0565,8.8295,8.7325,8.9248,9.0748,9.0556,9.1595,9.2479,9.2518,9.2826,9.3518,9.4527,9.472,9.4912,9.5557,9.6172,9.6596,9.6634,9.7173,9.7519,9.748,9.775,9.7797,9.7596,9.7057,9.6596,9.6634,9.7288,9.7865,9.5112,9.4971,9.4971,9.3661,9.1601,9.1835,9.2292,9.2832,9.2871,9.2375,9.1523,9.0312,8.9023,8.7812,8.8242,8.8711,8.9219,9.0078,9.0703,9.1133,9.1133,9.1172,9.1172,9.1172,9.0703,8.9844,8.9453,8.8594,8.7344,8.6953,8.5586,8.332,8.332,8.1127,7.6981,7.6811,7.7658,7.9411,8.0176,8.0372,7.998,7.8244,7.6905,7.6022,7.5284,7.413,7.2545,7.2469,7.1706,7.0014,6.881,6.6734,6.3541,5.7873,5.3435,0.0,0.0,0.0,0.0,0.0,0.0,0.0,0.0,0.0,0.0,0.0,5.7588,5.9269,6.3788,6.7635,7.0167,7.1475,7.3053,7.5207,7.6553,7.8477,8.1485,8.3285,8.5132,8.7333,8.9363,9.1364,9.3249,9.4903,9.6134,9.6643,9.4681,9.2864,9.221,9.348,9.4595,9.4634,9.5365,9.598,9.598,9.598,9.6105,9.6557,9.6682,9.6865,9.7326,9.7788,9.8096,9.8134,9.8481,9.8788,9.8788,9.9144,9.9375,9.9413,9.9596,9.9327,9.8327,9.875,9.9375,9.5859,9.5819,9.5819,9.5817,9.5731,9.5254,9.5002,9.485,9.485,9.4972,9.5117,9.3594,9.25,9.1797,9.1679,9.164,9.1679,9.2304,9.2578,9.2578,9.2578,9.2578,9.2578,9.2578,9.2148,9.1289,9.0547,8.9648,8.8711,8.8008,8.7109,8.6054,8.6015,8.5547,8.4453,8.0859,7.9492,8.0508,8.0752,8.1034,8.1444,7.958,7.7671,7.5768,7.42,7.2216,6.9821,6.9706,6.8936,6.7404,6.7359,6.6254,6.3659,6.036,5.743,0.0,5.2431,0.0,0.0,0.0,0.0,0.0,0.0,0.0,0.0,6.1743,6.4211,6.8058,7.1328,7.4252,7.6899,7.8638,8.0292,8.19,8.3678,8.564,8.7825,8.9517,9.1201,9.2787,9.5018,9.648,9.6596,9.798,9.8952,9.8836,9.8827,9.8365,9.8057,9.8173,9.8404,9.8788,9.8788,9.8365,9.8442,9.8596,9.8673,9.8836,9.8836,9.9029,9.9096,9.925,9.9327,9.9365,9.9558,9.9596,9.9442,10.0144,10.0606,10.0721,10.1712,10.1827,10.0058,10.0106,10.0529,9.921,9.9004,9.9004,9.8909,9.8778,9.8657,9.7262,9.5114,9.5114,9.5155,9.5156,9.4844,9.4648,9.4414,9.3711,9.3398,9.3398,9.2851,9.2578,9.2578,9.2578,9.2578,9.2578,9.2578,9.2148,9.1328,9.1133,9.0234,8.8711,8.8554,8.7344,8.5195,8.5156,8.4375,8.2812,0.0,0.0,0.0,8.2822,8.1785,8.1777,7.8681,7.6112,7.4259,7.3242,0.0,6.9841,6.9706,6.9206,6.8244,6.8821,0.0,0.0,0.0,0.0,0.0,0.0,0.0,0.0,0.0,0.0,0.0,6.8834,6.7718,6.5973,6.959,7.3014,7.5176,7.7207,7.9708,8.2893,8.4709,8.6132,8.7218,8.9363,9.1018,9.1556,9.3018,9.4441,9.5441,9.6596,9.7557,9.825,9.9221,9.9837,9.9875,10.0404,10.0741,10.0548,9.9558,9.8827,9.8788,9.8981,9.8865,9.8788,9.8942,9.9365,9.9606,9.9875,10.0135,10.075,10.1404,10.1827,10.1827,10.2443,10.2828,10.2866,10.3058,10.302,10.3135,10.3405,10.3289,10.2135,10.2558,10.3184,10.0231,0.0,9.997,9.9827,0.0,9.9747,9.8901,9.7513,9.7516,9.7101,9.6406,9.6015,9.5625,9.5195,9.4726,9.4531,9.4531,9.4101,9.3867,9.3867,9.3906,9.3672,9.3242,9.3242,9.2812,9.1914,9.1484,9.0859,9.0,8.957,8.8711,8.7422,8.6992,8.6328,8.5469,8.5078,8.5117,8.5547,8.4172,8.3756,8.4378,8.1907,7.9458,7.7119,0.0,0.0,0.0,0.0,0.0,0.0,0.0,0.0,0.0,0.0,0.0,6.769,6.7286,6.7569,6.8936,7.0918,7.3442,7.6352,7.882,7.8261,7.3763,7.7284,8.0439,8.2131,8.3478,8.5401,8.8325,8.9787,9.0864,9.1796,9.371,9.498,9.5095,9.6095,9.7019,9.7519,9.8288,9.8981,9.9413,10.0568,10.1058,10.0827,10.1404,10.1789,10.1317,10.0596,10.0173,10.0596,10.0673,10.0866,10.1212,10.1327,10.1404,10.1866,10.1991,10.2135,10.252,10.2943,10.3251,10.3251,10.3635,10.3905,10.3905,10.3905,10.3905,10.3943,10.4212,10.4366,10.3905,10.3905,10.3905,10.07,10.0658,10.0426,10.0292,10.0292,10.0358,10.038,10.0399,0.0,0.0,0.0,9.7461,9.6679,9.5859,9.5703,9.5586,9.5429,9.5273,9.5195,9.5195,9.5195,9.4844,9.414,9.414,9.375,9.3008,9.2187,9.1679,9.1484,9.0664,9.0156,8.9961,8.9297,8.8945,8.8867,8.8281,8.7226,8.5859,8.5195,8.5501,8.6625,8.5068,8.2923,8.0286,7.8066,7.5336,7.2127,7.1267,7.0524,6.9709,6.9826,7.0071,7.0408,7.1744,7.2498,7.2557,7.5057,7.689,7.7509,8.0154,8.2281,8.3455,8.6955,8.698,8.208,8.4448,8.6724,8.8226,8.9151,9.062,9.295,9.3903,9.472,9.5605,9.6903,9.7711,9.775,9.8481,9.8952,9.9096,9.976,10.0298,10.0327,10.1404,10.2135,10.1558,10.1789,10.2135,10.151,10.1394,10.1673,10.2212,10.2404,10.2981,10.3635,10.3712,10.3828,10.3405,10.3482,10.3635,10.3482,10.3558,10.3712,10.3789,10.3982,10.4212,10.4328,10.4443,10.4366,10.4328,10.4866,10.5328,10.5251,10.4828,10.4443,10.2193,10.2143,10.1903,10.1772,10.1829,10.2035,10.226,10.2341,10.0898,10.0117,9.9922,9.9804,9.9297,9.8437,9.7695,9.6953,9.6289,9.5547,9.5195,0.0,9.5195,9.5117,9.5039,9.5,9.4961,9.4765,9.3945,9.3125,9.2383,9.1562,9.0742,9.0078,8.9883,8.9804,8.9804,8.9687,8.9531,8.9219,8.6406,8.5,8.5194,8.3514,8.1667,7.9736,7.8641,7.6655,7.3856,7.3697,7.3145,7.2324,7.2984,7.4127,7.5666,7.6064,7.7499,8.0307,8.1054,8.2652,8.5508,8.625,8.7714,9.0454,9.1964,9.1664,8.9389,9.0217,9.1239,9.2005,9.2841,9.401,9.5591,9.6489,9.725,9.8067,9.8442,9.8634,9.8673,9.9413,9.9913,9.9952,10.0635,10.1096,10.1087,10.1404,10.1548,10.1356,10.151,10.1443,10.1471,10.1943,10.2404,10.2674,10.3251,10.3712,10.3866,10.3905,10.3635,10.2904,10.2904,10.2789,10.2212,10.2597,10.3174,10.3789,10.4405,10.5059,10.5713,10.6049,10.5895,10.5867,10.601,10.6126,10.6136,10.5982,10.5933,10.3524,10.3017,10.3161,10.3225,10.3211,10.3062,10.3229,10.3476,10.2265,10.1445,10.0976,10.0508,10.0078,9.9687,9.9297,9.8906,9.8554,9.8125,9.7734,9.7265,9.7265,9.6797,9.5937,9.5937,9.5664,9.5195,9.4804,9.4414,9.4023,9.3594,9.2969,9.2109,9.1172,9.0469,9.0039,9.0,9.0,8.9961,8.8437,8.7656,8.7656,8.6875,8.5858,8.452,8.3662,8.2445,8.0742,8.0193,7.9763,7.9373,7.9723,8.0359,8.1198,8.2137,8.3197,8.4375,8.6172,8.7656,8.8789,9.0195,9.199,9.432,9.5295,9.5636,9.5213,9.4832,9.4965,9.5733,9.6456,9.7112,9.7804,9.8492,9.9067,9.9452,9.9865,10.0173,10.0173,10.0481,10.075,10.0789,10.1058,10.1279,10.1279,10.1712,10.1789,10.1433,10.1279,10.1279,10.1317,10.202,10.2597,10.2635,10.2943,10.3366,10.3789,10.3905,10.3712,10.3328,10.3289,10.3135,10.2789,10.3097,10.3405,10.3828,10.452,10.5174,10.5674,10.6097,10.6318,10.6395,10.6395,10.6395,10.6395,10.6395,10.6395,10.4373,10.3611,10.3969,10.4211,10.4284,10.3872,10.3986,10.4375,10.3554,10.2812,10.2109,10.1289,10.0781,10.0586,10.0586,10.0469,10.0312,10.0312,9.9922,9.9336,9.9297,9.8594,9.7461,9.7344,9.6914,9.6094,9.5859,9.5664,9.5508,9.5312,9.4883,9.4101,9.2851,9.1836,9.1211,9.1172,9.1094,9.0898,9.0859,9.0586,9.0039,9.0,8.9687,8.9023,8.8359,8.7656,8.6797,8.6094,8.5664,8.5508,8.5508,8.5664,8.6094,8.7304,8.8008,8.8164,9.039,9.1797,9.164,9.3476,9.5429,9.6953,9.7812,9.8633,9.9375,9.8635,9.8143,9.8587,9.9041,9.9453,9.9452,9.9942,10.0375,10.0414,10.0904,10.1202,10.1279,10.1279,10.1279,10.1279,10.1279,10.1279,10.1394,10.1866,10.1981,10.1433,10.1279,10.1279,10.1356,10.1904,10.2289,10.2404,10.2597,10.3174,10.3789,10.3905,10.3789,10.3674,10.3558,10.3289,10.3174,10.3174,10.3405,10.3482,10.402,10.4597,10.4982,10.5405,10.5895,10.6164,10.6203,10.6136,10.6356,10.6164,10.6213,10.4259,10.4125,10.4045,10.421,10.4655,10.4624,10.4883,10.5234,10.4453,10.4062,10.3828,10.3047,10.2187,10.1562,10.1484,10.1094,10.0429,10.0312,10.0273,10.0195,10.0195,10.0078,9.9844,9.9883,9.9492,9.8594,9.7812,9.707,9.6445,9.5625,9.5195,9.5078,9.4883,9.4726,9.4648,9.4609,9.4297,9.3554,9.3554,9.2383,9.0156,9.0,8.9961,8.9883,8.9844,8.9375,8.8672,8.8398,8.8008,8.7344,8.7383,8.8008,8.9336,8.9726,9.0781,9.289,9.3476,9.4258,9.5742,9.6797,9.7734,9.8711,9.9531,10.039,10.1211,10.1211,10.0654,9.9959,10.0218,10.047,10.0117,10.0712,10.1096,10.1058,10.1202,10.1279,10.1279,10.1279,10.1279,10.1279,10.1356,10.1317,10.1433,10.1625,10.1558,10.1471,10.1471,10.1394,10.1317,10.1394,10.1548,10.1741,10.2635,10.3558,10.3712,10.3905,10.3482,10.2904,10.2751,10.2558,10.2097,10.1827,10.175,10.2635,10.2904,10.352,10.4415,10.4713,10.4828,10.5972,10.5982,10.552,10.6059,10.5905,10.5713,10.5338,10.4778,10.5187,10.5694,10.6076,10.5646,10.5702,10.6093,10.5312,10.4961,10.4844,10.4023,10.3164,10.2383,10.2383,10.2148,10.1836,10.1836,10.1562,10.1133,10.1054,10.082,10.0351,10.0312,10.0078,9.9726,9.8906,9.8281,9.7812,9.664,9.5976,9.5898,9.5469,9.5195,9.5195,9.5195,9.5,9.4687,9.4648,9.414,9.3164,9.2578,9.2304,9.2383,9.2812,9.2929,9.2578,9.2539,9.2383,9.207,9.207,9.2344,9.3047,9.3086,9.3789,9.5312,9.6367,9.7461,9.8672,9.9062,9.9609,10.0508,10.0859,10.1445,10.2265,10.2383,10.2002,10.1314,10.137,10.1433,10.1091,10.1199,10.1279,10.1279,10.1279,10.1317,10.1279,10.1317,10.1279,10.1317,10.1741,10.2058,10.2135,10.252,10.2558,10.2251,10.2058,10.1943,10.1433,10.1279,10.1279,10.1356,10.1981,10.2289,10.2443,10.2866,10.2674,10.2212,10.2289,10.2289,10.1587,10.1317,10.1471,10.1827,10.2212,10.2943,10.4135,10.4674,10.502,10.5905,10.6241,10.602,10.6318,10.6136,10.6097,10.6251,10.5628,10.6136,10.67,10.7158,10.6541,10.656,10.6914,10.6172,10.582,10.5742,10.4922,10.4219,10.3594,10.3125,10.289,10.289,10.289,10.2578,10.1992,10.1953,10.1601,10.1054,10.1015,10.0898,10.0586,10.0039,9.9609,9.9219,9.7929,9.7187,9.7031,9.6289,9.5859,9.5898,9.5859,9.5781,9.5586,9.5547,9.5429,9.5156,9.4804,9.4492,9.4336,9.4883,9.5195,9.5195,9.5195,9.5195,9.5195,9.5195,9.5429,9.5859,9.5859,9.6367,9.7461,9.8672,9.9765,10.0586,10.0664,10.1015,10.1836,10.1953,10.2226,10.2734,10.289,10.2656,10.2149,10.211,10.194,10.1618,10.1419,10.1299,10.1317,10.1471,10.1587,10.1356,10.1635,10.1981,10.1789,10.2481,10.2943,10.3058,10.3443,10.3558,10.3097,10.2943,10.2789,10.2174,10.2058,10.2058,10.202,10.2048,10.1856,10.151,10.2135,10.2135,10.2058,10.2289,10.2404,10.1702,10.1548,10.1279,10.1587,10.202,10.2674,10.3674,10.4443,10.4943,10.5674,10.6059,10.6174,10.6356,10.6241,10.6174,10.6377,10.6328,10.6367,10.6716,10.7163,10.714,10.7421,10.7773,10.6992,10.664,10.6523,10.5781,10.5429,10.5195,10.375,10.2969,10.2969,10.3008,10.2969,10.2851,10.2812,10.2812,10.2773,10.2773,10.2344,10.1562,10.1328,10.0898,10.0156,9.9297,9.8867,9.8789,9.8008,9.7578,9.7617,9.7617,9.7226,9.6719,9.664,9.6172,9.5547,9.6094,9.6094,9.5469,9.5273,9.539,9.5351,9.5273,9.5312,9.5273,9.5429,9.6054,9.7383,9.7617,9.8398,9.9844,10.0195,10.0664,10.1406,10.1523,10.1875,10.2617,10.2734,10.2812,10.289,10.289,10.2656,10.2196,10.2207,10.197,10.1618,10.153,10.1433,10.1433,10.2087,10.2135,10.1471,10.2789,10.3251,10.2866,10.3289,10.3866,10.3866,10.3866,10.402,10.3905,10.3828,10.3751,10.3558,10.3597,10.3597,10.3558,10.3482,10.3174,10.1827,10.2443,10.2789,10.2597,10.2674,10.2635,10.2327,10.1981,10.1587,10.1356,10.1625,10.2289,10.3251,10.3905,10.4251,10.4828,10.5443,10.5751,10.6318,10.5674,10.5674,10.6395,10.6397,10.656,10.6871,10.7213,10.7371,10.7662,10.7969,10.7695,10.7539,10.7383,10.664,10.625,10.6211,10.5078,10.457,10.4492,10.4023,10.3711,10.3672,10.3164,10.289,10.289,10.289,10.2773,10.2422,10.1836,10.1133,10.0351,9.9961,9.9844,9.9804,9.9531,9.9375,9.9375,9.9375,9.9219,9.8984,9.8945,9.8789,9.8398,9.8789,9.875,9.8476,9.7929,9.789,9.8437,9.8476,9.8476,9.8476,9.8437,9.875,9.9336,9.9883,10.0429,10.1094,10.164,10.2109,10.2383,10.2422,10.2539,10.2851,10.289,10.2929,10.2851,10.2758,10.2707,10.2828,10.2775,10.2701,10.2845,10.2481,10.2135,10.2251,10.2904,10.3289,10.3135,10.352,10.3751,10.3597,10.4135,10.4828,10.529,10.5482,10.529,10.4789,10.4674,10.4482,10.402,10.3905,10.3982,10.3905,10.3866,10.3712,10.3212,10.3674,10.4097,10.3635,10.3405,10.3097,10.2789,10.2097,10.1625,10.2135,10.2135,10.2712,10.3982,10.4943,10.502,10.529,10.5828,10.5867,10.6356,10.5944,10.5982,10.6654,10.6697,10.6849,10.7075,10.7338,10.7547,10.7772,10.8008,10.8008,10.8008,10.789,10.7383,10.7148,10.7031,10.6562,10.6328,10.6172,10.5156,10.4648,10.457,10.3984,10.375,10.3672,10.3476,10.332,10.3203,10.2422,10.1679,10.1172,10.0859,10.0703,10.0703,10.0469,10.0312,10.0312,10.0312,10.0312,10.0312,10.0312,10.0273,10.0312,10.0312,10.0469,10.0586,10.0156,9.9961,10.0312,10.0312,10.0312,10.0312,10.0312,10.0429,10.0742,10.1562,10.1992,10.2109,10.2578,10.289,10.289,10.289,10.3008,10.3281,10.332,10.3359,10.3545,10.3421,10.3478,10.3589,10.3528,10.3573,10.3743,10.3558,10.3289,10.3212,10.3789,10.4135,10.3982,10.4366,10.4713,10.4828,10.5174,10.579,10.6241,10.6318,10.6097,10.5559,10.552,10.5251,10.4866,10.4713,10.4713,10.4713,10.4828,10.4866,10.4674,10.5097,10.4982,10.452,10.4184,10.3789,10.3328,10.2558,10.2251,10.2789,10.3328,10.3866,10.4674,10.5751,10.6203,10.6356,10.628,10.6213,10.6395,10.6395,10.6356,10.7181,10.7165,10.7207,10.7338,10.7568,10.7603,10.7778,10.7969,10.8008,10.8008,10.8008,10.7929,10.7851,10.7929,10.7734,10.789,10.7539,10.6289,10.5586,10.5469,10.5351,10.5273,10.5234,10.4414,10.3984,10.3906,10.3242,10.2851,10.2656,10.1953,10.1601,10.1484,10.0898,10.0664,10.0429,10.0586,10.0469,10.0547,10.0586,10.0508,10.0351,10.0508,10.0898,10.1523,10.1523,10.1172,10.0508,10.0469,10.0547,10.0508,10.0469,10.0781,10.1601,10.2344,10.2851,10.2773,10.289,10.289,10.2969,10.3008,10.3437,10.4023,10.4219,10.4363,10.4702,10.4759,10.4594,10.4331,10.4226,10.4198,10.4205,10.4636,10.4674,10.4135,10.4636,10.4828,10.4559,10.5405,10.6318,10.6203,10.6241,10.6356,10.6395,10.6395,10.628,10.629,10.6251,10.6164,10.602,10.5972,10.6251,10.6241,10.5982,10.579,10.6049,10.6318,10.5828,10.5328,10.502,10.4684,10.4366,10.3751,10.3405,10.3751,10.4212,10.4751,10.5097,10.6059,10.6241,10.6395,10.6395,10.6395,10.6395,10.6395,10.6395,10.7207,10.7233,10.7426,10.7508,10.7605,10.7785,10.7926,10.8008,10.8008,10.8008,10.8008,10.8008,10.8008,10.8008,10.8008,10.8008,10.7969,10.7422,10.6914,10.6328,10.5781,10.5547,10.5351,10.4609,10.3906,10.3359,10.3047,10.289,10.2851,10.2617,10.25,10.2422,10.2226,10.2109,10.2031,10.207,10.2109,10.2109,10.2109,10.2109,10.207,10.207,10.2226,10.2461,10.25,10.2344,10.2109,10.2109,10.2109,10.207,10.2109,10.2226,10.25,10.2734,10.289,10.289,10.289,10.3203,10.3711,10.3828,10.4179,10.4844,10.4944,10.4903,10.4993,10.4804,10.4764,10.4985,10.4958,10.4976,10.5522,10.5828,10.5636,10.4828,10.5482,10.5905,10.5674,10.6097,10.6318,10.6395,10.6395,10.6395,10.6395,10.6395,10.6395,10.6395,10.6395,10.6395,10.6395,10.6395,10.6395,10.6395,10.6395,10.6395,10.6395,10.6395,10.6136,10.579,10.5559,10.5405,10.5136,10.4905,10.4597,10.4636,10.5136,10.5482,10.5828,10.6097,10.628,10.6395,10.6395,10.6395,10.6395,10.6395,10.6395,10.7493,10.7505,10.7669,10.7733,10.7777,10.7927,10.8008,10.8008,10.8008,10.8008,10.8008,10.8008,10.8008,10.8008,10.8008,10.8008,10.8008,10.8008,10.7695,10.7187,10.6719,10.6289,10.582,10.4726,10.3711,10.3047,10.289,10.289,10.289,10.289,10.289,10.289,10.289,10.2851,10.289,10.289,10.289,10.289,10.289,10.289,10.289,10.289,10.289,10.289,10.289,10.289,10.289,10.289,10.289,10.289,10.289,10.289,10.289,10.289,10.3047,10.332,10.3437,10.3789,10.4531,10.4687,10.5039,10.5703,10.5703,10.5687,10.5788,10.5604,10.5852,10.5752,10.5987,10.629,10.6751,10.6895,10.6751,10.6597,10.6367,10.6597,10.6741,10.6856,10.6895,10.6856,10.6636,10.6433,10.6395,10.6395,10.6395,10.6395,10.6395,10.6395,10.6395,10.6395,10.6395,10.6395,10.6395,10.6395,10.6395,10.6395,10.6395,10.6203,10.5982,10.5867,10.5713,10.5559,10.5328,10.552,10.5867,10.5905,10.6203,10.6241,10.6395,10.6395,10.6395,10.6395,10.6395,10.6395,10.6395,10.8008,10.8008,10.8008,10.7969,10.7969,10.8008,10.8008,10.8008,10.8008,10.8008,10.8008,10.8008,10.8008,10.8008,10.8008,10.8008,10.8008,10.8008,10.7969,10.7851,10.7656,10.7148,10.625,10.4883,10.375,10.3008,10.289,10.289,10.289,10.289,10.289,10.289,10.289,10.289,10.289,10.289,10.289,10.289,10.289,10.289,10.289,10.289,10.289,10.289,10.289,10.289,10.289,10.3047,10.3008,10.2929,10.3008,10.3125,10.3008,10.3008,10.3594,10.4219,10.4297,10.4726,10.5351,10.5742,10.6015,10.6601,10.6771,10.665,10.7109,10.7457,10.7448,10.6844,10.7282,10.7675,10.7752,10.7752,10.8021,10.8482,10.7559,10.7175,10.7636,10.7713,10.7598,10.7559,10.7059,10.6472,10.6587,10.6626,10.6703,10.6587,10.6664,10.6856,10.678,10.6895,10.6549,10.651,10.6587,10.6395,10.6395,10.6395,10.6395,10.6318,10.6203,10.6174,10.6136,10.602,10.5933,10.6164,10.628,10.6356,10.6395,10.6395,10.6395,10.6395,10.6395,10.6395,10.6395,10.6395,10.6395,10.8008,10.8008,10.8008,10.8008,10.8008,10.8008,10.8008,10.8008,10.8008,10.8008,10.8008,10.8008,10.8008,10.8008,10.8008,10.8008,10.8008,10.8008,10.8008,10.789,10.7304,10.6601,10.5781,10.4726,10.3711,10.3008,10.289,10.289,10.289,10.289,10.289,10.289,10.289,10.289,10.289,10.289,10.289,10.289,10.289,10.289,10.289,10.289,10.289,10.289,10.2929,10.2969,10.3008,10.3515,10.3515,10.3008,10.3554,10.3867,10.3906,10.4375,10.4804,10.5078,10.5234,10.5547,10.6328,10.6992,10.7344,10.7444,10.8185,10.8559,10.7918,10.8354,10.8472,10.829,10.8482,10.8598,10.8598,10.8636,10.8752,10.879,10.8521,10.8329,10.8406,10.8059,10.7905,10.8367,10.7829,10.7444,10.7444,10.7713,10.7867,10.7598,10.7713,10.7982,10.7713,10.7405,10.7136,10.7021,10.6982,10.6587,10.6395,10.6395,10.6395,10.6395,10.6356,10.6405,10.6328,10.6241,10.6241,10.6356,10.6318,10.6395,10.6395,10.6395,10.6395,10.6395,10.6395,10.6395,10.6395,10.6395,10.6395,10.8008,10.8008,10.8008,10.8008,10.8008,10.8008,10.8008,10.8008,10.8008,10.8008,10.8008,10.8008,10.8008,10.8008,10.8008,10.8008,10.8008,10.8008,10.8008,10.7773,10.6758,10.5781,10.4922,10.4062,10.3398,10.2969,10.289,10.289,10.289,10.289,10.289,10.289,10.289,10.289,10.289,10.289,10.289,10.289,10.289,10.289,10.289,10.289,10.3164,10.332,10.3476,10.3554,10.3984,10.4492,10.4492,10.4219,10.4453,10.4765,10.4804,10.5195,10.5625,10.5937,10.6328,10.6914,10.7734,10.8593,10.8906,10.8851,10.9529,10.9297,10.8896,10.9099,10.9367,10.8906,10.9213,10.9406,10.9521,10.9752,10.9983,11.0098,11.0021,10.9829,10.9483,10.906,10.8983,10.9136,10.8752,10.8213,10.8213,10.8636,10.8636,10.8406,10.8482,10.8444,10.8252,10.7944,10.7675,10.7482,10.7136,10.6703,10.6549,10.6549,10.6664,10.6664,10.6972,10.6905,10.6703,10.6587,10.6433,10.6433,10.6395,10.6395,10.6395,10.6395,10.6395,10.6395,10.6395,10.6395,10.6395,10.6395,10.6395,10.8008,10.8008,10.8008,10.8008,10.8008,10.8008,10.8008,10.8008,10.8008,10.8008,10.8008,10.8008,10.8008,10.8008,10.8008,10.8008,10.8008,10.8008,10.7851,10.7422,10.6445,10.5429,10.4609,10.3554,10.3047,10.289,10.289,10.289,10.289,10.289,10.289,10.289,10.289,10.289,10.289,10.289,10.2969,10.3125,10.3203,10.332,10.3437,10.3515,10.3789,10.4258,10.4336,10.4765,10.5273,10.5625,10.5625,10.5742,10.5664,10.5625,10.5664,10.5703,10.6328,10.707,10.7851,10.8633,10.9336,11.0078,11.0408,11.0056,10.9972,10.9786,10.9637,10.9938,11.0098,10.956,10.9906,11.0252,11.0406,11.1021,11.1203,11.1203,11.1318,11.106,11.056,11.0252,11.0214,11.0291,10.956,10.9136,10.906,10.9098,10.9175,10.9213,10.9367,10.956,10.9252,10.8906,10.8367,10.779,10.7328,10.6741,10.6741,10.6741,10.6895,10.7049,10.7598,10.7713,10.728,10.7049,10.6664,10.6472,10.6433,10.6395,10.6395,10.6395,10.6433,10.6395,10.6395,10.6395,10.6395,10.6395,10.6395,10.8008,10.8008,10.8008,10.8008,10.8008,10.8008,10.8008,10.8008,10.8008,10.8008,10.8008,10.8008,10.8008,10.8008,10.8008,10.8008,10.8008,10.7969,10.7656,10.6914,10.6719,10.5976,10.5,10.375,10.3047,10.3008,10.2969,10.2969,10.2969,10.3125,10.2929,10.3008,10.3164,10.2929,10.3008,10.3164,10.3281,10.3789,10.3906,10.4258,10.4687,10.4765,10.4922,10.5234,10.5273,10.5664,10.625,10.6445,10.6758,10.7109,10.6914,10.664,10.6758,10.7695,10.8398,10.875,10.9492,11.0117,11.039,11.0874,11.0896,11.0252,11.0794,11.1032,11.016,11.0741,11.106,11.0972,11.1137,11.1137,11.1175,11.1318,11.1472,11.1511,11.1511,11.1434,11.1175,11.0637,11.056,11.0829,11.0444,10.9906,10.9944,11.0483,11.0444,11.0137,11.0291,11.0714,11.0329,10.9713,10.9098,10.8367,10.7905,10.7482,10.7598,10.7598,10.7598,10.779,10.829,10.8406,10.7982,10.7829,10.7598,10.7021,10.6395,10.6433,10.6674,10.6549,10.6626,10.651,10.651,10.6741,10.6856,10.6664,10.678,10.8008,10.8008,10.8008,10.8008,10.8008,10.8008,10.8008,10.8008,10.8008,10.8008,10.8008,10.8008,10.8008,10.8008,10.8008,10.8008,10.8008,10.7969,10.7539,10.6875,10.664,10.625,10.5547,10.4687,10.414,10.4101,10.414,10.4101,10.4101,10.4062,10.4219,10.4101,10.4101,10.4258,10.4101,10.4062,10.4375,10.4687,10.4804,10.5078,10.5429,10.5508,10.5781,10.6133,10.6445,10.707,10.7851,10.7929,10.8437,10.8867,10.875,10.8281,10.8164,10.914,10.9843,11.0078,11.0703,11.1172,11.1367,11.1677,11.178,11.0998,11.1614,11.1392,11.1072,11.1291,11.1472,11.1511,11.1472,11.1511,11.1511,11.1511,11.1511,11.1511,11.1511,11.1511,11.1434,11.1098,11.0944,11.1329,11.106,11.0868,11.106,11.128,11.128,11.0791,11.0791,11.1098,11.0444,10.9906,10.9637,10.906,10.8598,10.8367,10.8559,10.8559,10.8406,10.8675,10.9098,10.8983,10.8636,10.8636,10.8675,10.7944,10.7251,10.7059,10.7175,10.7021,10.701,10.7175,10.7328,10.7433,10.7598,10.7752,10.7905,10.8008,10.8008,10.8008,10.8008,10.8008,10.8008,10.8008,10.8008,10.8008,10.8008,10.8008,10.8008,10.8008,10.8008,10.8008,10.8008,10.8008,10.7969,10.7578,10.7109,10.7031,10.6719,10.6133,10.5976,10.5898,10.5859,10.5429,10.5351,10.5312,10.5469,10.5156,10.539,10.5429,10.5195,10.5351,10.5469,10.5429,10.5625,10.5664,10.5859,10.6054,10.6093,10.6445,10.7187,10.7734,10.8476,10.914,10.9414,10.9765,11.0547,11.0703,11.039,11.0117,11.0312,11.0781,11.0859,11.1601,11.1992,11.1992,11.2305,11.2376,11.2261,11.1979,11.1746,11.1512,11.1472,11.1511,11.1511,11.1511,11.1511,11.1511,11.1511,11.1511,11.1511,11.1511,11.1511,11.1511,11.1511,11.1472,11.1472,11.1357,11.128,11.1318,11.1472,11.1511,11.1511,11.1472,11.1329,11.0675,11.0329,11.0175,10.9944,10.9521,10.9213,10.929,10.979,10.9598,10.9637,10.9983,10.9829,10.956,10.9752,10.9713,10.8867,10.829,10.8021,10.7867,10.7867,10.7905,10.8021,10.8098,10.8175,10.8482,10.8829,10.8944,10.8008,10.8008,10.8008,10.8008,10.8008,10.8008,10.7969,10.8008,10.7929,10.8008,10.8008,10.8008,10.8008,10.8008,10.8008,10.8008,10.8008,10.7969,10.789,10.7695,10.7695,10.7461,10.7344,10.7265,10.7383,10.7187,10.6445,10.5742,10.5664,10.5508,10.5781,10.5625,10.5664,10.5664,10.5703,10.5547,10.6015,10.6445,10.6523,10.6758,10.7187,10.7461,10.7773,10.8554,10.8906,10.9492,11.0156,11.039,11.0468,11.0664,11.1289,11.1523,11.1445,11.1562,11.1679,11.1836,11.2343,11.2685,11.2561,11.2395,11.2256,11.1979,11.1737,11.1614,11.1543,11.1511,11.1511,11.1511,11.1511,11.1511,11.1511,11.1511,11.1511,11.1511,11.1511,11.1511,11.1511,11.1511,11.1511,11.1511,11.1511,11.1511,11.1511,11.1511,11.1511,11.1511,11.1511,11.1472,11.1214,11.106,11.1098,11.0829,11.0483,11.0214,11.0021,11.0675,11.0934,11.078,11.0934,11.0934,11.0818,11.1088,11.0791,10.9867,10.9175,10.8829,10.8713,10.8713,10.8752,10.879,10.8867,10.8983,10.929,10.9637,10.9675,10.8008,10.8008,10.8008,10.7734,10.7383,10.7344,10.7344,10.7304,10.7344,10.7578,10.789,10.8008,10.8008,10.8008,10.8008,10.8008,10.8008,10.8008,10.8008,10.8008,10.8008,10.8008,10.8008,10.8008,10.8008,10.7773,10.7148,10.6719,10.6797,10.6836,10.6719,10.6836,10.6797,10.6797,10.6797,10.6875,10.6953,10.7304,10.7383,10.7539,10.8047,10.8359,10.8984,10.9258,10.9804,11.039,11.1093,11.1289,11.1523,11.1953,11.2343,11.2539,11.2578,11.2539,11.2539,11.2617,11.2802,11.2887,11.2673,11.2362,11.2052,11.1902,11.1635,11.1515,11.1511,11.1511,11.1511,11.1511,11.1511,11.1511,11.1511,11.1511,11.1511,11.1511,11.1511,11.1511,11.1511,11.1511,11.1511,11.1511,11.1511,11.1511,11.1511,11.1511,11.1511,11.1511,11.1511,11.1511,11.1511,11.1511,11.1511,11.1318,11.0983,11.0906,11.0675,11.106,11.1511,11.1511,11.1511,11.1511,11.1511,11.1472,11.128,11.0714,11.0175,10.9637,10.956,10.956,10.956,10.9637,10.9944,11.0214,11.0291,11.0367,11.0406,10.8008,10.8008,10.8008,10.75,10.6758,10.6719,10.6719,10.6679,10.6719,10.7226,10.7929,10.8008,10.8008,10.8008,10.8008,10.8008,10.8008,10.8008,10.8008,10.8008,10.8008,10.8008,10.8008,10.8008,10.8008,10.7969,10.7851,10.8008,10.7812,10.7773,10.7929,10.7812,10.7929,10.8008,10.789,10.7734,10.8008,10.8008,10.8008,10.8047,10.8437,10.9062,10.9687,10.9804,11.0508,11.125,11.207,11.2148,11.2461,11.2851,11.3125,11.3242,11.3359,11.3203,11.3164,11.3233,11.2951,11.2697,11.2433,11.2191,11.1894,11.1752,11.1605,11.1536,11.1511,11.1511,11.1511,11.1511,11.1511,11.1511,11.1511,11.1511,11.1511,11.1511,11.1511,11.1511,11.1511,11.1511,11.1511,11.1511,11.1511,11.1511,11.1511,11.1511,11.1511,11.1511,11.1511,11.1511,11.1511,11.1511,11.1511,11.1511,11.1395,11.1395,11.1318,11.1242,11.1511,11.1511,11.1511,11.1511,11.1511,11.1511,11.128,11.1137,11.0906,11.0444,11.0444,11.0444,11.0444,11.0637,11.1126,11.1242,11.1011,11.0972,11.1049,10.8008,10.8008,10.8008,10.75,10.6758,10.6679,10.6679,10.6679,10.6679,10.7187,10.8008,10.8008,10.8008,10.8008,10.8008,10.8008,10.8008,10.8008,10.8008,10.8008,10.8008,10.8008,10.8008,10.8008,10.8008,10.8008,10.8008,10.8008,10.8086,10.8086,10.8008,10.8008,10.8008,10.8047,10.8164,10.8203,10.8008,10.8047,10.8086,10.8437,10.914,11.0,11.0742,11.1289,11.1679,11.207,11.2773,11.2851,11.3047,11.3125,11.3203,11.3554,11.3984,11.3283,11.3327,11.3391,11.3198,11.2493,11.2136,11.1926,11.1752,11.1655,11.1526,11.1522,11.1511,11.1511,11.1511,11.1511,11.1511,11.1511,11.1511,11.1511,11.1511,11.1511,11.1511,11.1511,11.1511,11.1511,11.1511,11.1511,11.1511,11.1511,11.1511,11.1511,11.1511,11.1511,11.1511,11.1511,11.1511,11.1511,11.1511,11.1511,11.1511,11.1511,11.1511,11.1511,11.1511,11.1511,11.1511,11.1511,11.1511,11.1511,11.1511,11.1357,11.1214,11.1137,11.106,11.1098,11.1242,11.1318,11.1434,11.1472,11.1472,11.1511,11.1511,10.8008,10.8008,10.8008,10.75,10.6758,10.6679,10.6679,10.6679,10.6719,10.7187,10.789,10.8008,10.8008,10.8008,10.8008,10.8008,10.8008,10.8008,10.8008,10.8008,10.8008,10.8008,10.8008,10.8008,10.8008,10.8008,10.8086,10.8398,10.8398,10.8242,10.8008,10.8086,10.8086,10.832,10.8672,10.8711,10.9062,10.9336,10.9531,10.9687,11.0156,11.0859,11.1523,11.1914,11.2343,11.2773,11.3047,11.3203,11.3203,11.3203,11.3203,11.3242,11.3359,11.2998,11.2804,11.2639,11.2478,11.2136,11.1941,11.1782,11.1635,11.155,11.1511,11.1511,11.1511,11.1511,11.1511,11.1511,11.1511,11.1511,11.1511,11.1511,11.1511,11.1511,11.1511,11.1511,11.1511,11.1511,11.1511,11.1511,11.1511,11.1511,11.1511,11.1511,11.1511,11.1511,11.1511,11.1511,11.1511,11.1511,11.1511,11.1511,11.1511,11.1511,11.1511,11.1511,11.1511,11.1511,11.1511,11.1511,11.1511,11.1511,11.1511,11.1511,11.1395,11.1434,11.1511,11.1472,11.1395,11.1434,11.1511,11.1511,11.1511,11.1511,11.1511,10.8008,10.8008,10.8008,10.75,10.6679,10.6484,10.6523,10.6679,10.6445,10.6992,10.7812,10.8008,10.8008,10.8008,10.8008,10.8008,10.8008,10.8008,10.8008,10.8008,10.8008,10.8008,10.8008,10.8008,10.8008,10.8047,10.8359,10.8672,10.8945,10.8984,10.8828,10.8633,10.8906,10.9101,10.9453,10.9648,10.9883,11.0312,11.0664,11.0859,11.1093,11.1758,11.2148,11.2461,11.2812,11.3203,11.3203,11.3203,11.3203,11.3203,11.3086,11.3055,11.3198,11.2789,11.2555,11.2372,11.2189,11.1847,11.1757,11.1635,11.1526,11.1511,11.1511,11.1511,11.1511,11.1511,11.1511,11.1511,11.1511,11.1511,11.1511,11.1511,11.1511,11.1511,11.1511,11.1511,11.1511,11.1511,11.1511,11.1511,11.1511,11.1511,11.1511,11.1511,11.1511,11.1511,11.1511,11.1511,11.1511,11.1511,11.1511,11.1511,11.1511,11.1511,11.1511,11.1511,11.1511,11.1511,11.1511,11.1511,11.1511,11.1511,11.1511,11.1511,11.1511,11.1511,11.1511,11.1511,11.1511,11.1511,11.1511,11.1511,11.1511,11.1511,11.1511,10.8008,10.8008,10.8008,10.75,10.664,10.5898,10.6054,10.6601,10.5937,10.6601,10.789,10.8008,10.8008,10.8008,10.8008,10.8008,10.8008,10.8008,10.8008,10.8008,10.8008,10.8008,10.8047,10.8086,10.8125,10.8281,10.8828,10.9258,10.9531,11.0195,11.0234,11.039,11.0078,11.0312,11.0547,11.0664,11.0742,11.1133,11.1523,11.1797,11.2031,11.2539,11.2968,11.3008,11.3125,11.3203,11.3203,11.332,11.3476,11.3476,11.3176,11.3194,11.3386,11.26,11.2341,11.2354,11.1973,11.1634,11.1571,11.1589,11.1554,11.1511,11.1511,11.1511,11.1511,11.1511,11.1511,11.1511,11.1511,11.1511,11.1511,11.1511,11.1511,11.1511,11.1511,11.1511,11.1511,11.1511,11.1511,11.1511,11.1511,11.1511,11.1511,11.1511,11.1511,11.1511,11.1511,11.1511,11.1511,11.1511,11.1511,11.1511,11.1511,11.1511,11.1511,11.1511,11.1511,11.1511,11.1511,11.1511,11.1511,11.1511,11.1511,11.1511,11.1511,11.1511,11.1511,11.1511,11.1511,11.1511,11.1511,11.1511,11.1511,11.1511,11.1511,10.8008,10.7969,10.7422,10.6992,10.6679,10.6367,10.6406,10.6601,10.6367,10.6875,10.8008,10.8008,10.8008,10.8008,10.8008,10.8008,10.8008,10.8008,10.8008,10.8008,10.8008,10.8008,10.8125,10.8476,10.8828,10.8984,10.9648,11.0468,11.0976,11.125,11.1758,11.1797,11.1172,11.1093,11.125,11.1797,11.2031,11.2148,11.2422,11.2656,11.2773,11.2929,11.3203,11.3203,11.3203,11.3515,11.3906,11.3984,11.4297,11.4336,11.3828,11.3685,11.346,11.245,11.2097,11.2204,11.1704,11.1581,11.1511,11.1511,11.1511,11.1511,11.1511,11.1511,11.1511,11.1511,11.1511,11.1511,11.1511,11.1511,11.1511,11.1511,11.1511,11.1511,11.1511,11.1511,11.1511,11.1511,11.1511,11.1511,11.1511,11.1511,11.1511,11.1511,11.1511,11.1511,11.1511,11.1511,11.1511,11.1511,11.1511,11.1511,11.1511,11.1511,11.1511,11.1511,11.1511,11.1511,11.1511,11.1511,11.1511,11.1511,11.1511,11.1511,11.1511,11.1511,11.1511,11.1511,11.1511,11.1511,11.1511,11.1511,11.1511,11.1511,11.1511,10.7617,10.75,10.6719,10.6484,10.664,10.6445,10.6484,10.6679,10.6679,10.7187,10.8008,10.8008,10.8008,10.8008,10.8008,10.8008,10.8008,10.8008,10.8008,10.8008,10.8008,10.8008,10.8281,10.8711,10.9179,10.957,11.0508,11.1328,11.1718,11.2109,11.2539,11.2539,11.2109,11.1992,11.2226,11.2812,11.3203,11.3203,11.3203,11.3203,11.3164,11.3164,11.3476,11.3554,11.3672,11.4101,11.4648,11.4843,11.4765,11.4687,11.4232,11.3585,11.3008,11.2337,11.1779,11.1591,11.1511,11.1511,11.1511,11.1511,11.1511,11.1511,11.1511,11.1511,11.1511,11.1549,11.1511,11.1511,11.1511,11.1549,11.1626,11.1511,11.1511,11.1511,11.1511,11.1511,11.1511,11.1511,11.1511,11.1511,11.178,11.2291,11.1549,11.1588,11.1626,11.1588,11.1511,11.1511,11.1511,11.1511,11.1511,11.1511,11.1511,11.1511,11.1511,11.1511,11.1511,11.1511,11.1511,11.1511,11.1511,11.1511,11.1511,11.1511,11.1511,11.1511,11.1511,11.1511,11.1511,11.1511,11.1511,11.1511,11.1511,11.1511,11.1511,10.6758,10.6601,10.5859,10.5937,10.6406,10.5859,10.5976,10.6562,10.6797,10.7265,10.7969,10.8008,10.8008,10.8008,10.8008,10.8008,10.8008,10.8008,10.8008,10.8008,10.8008,10.8008,10.8437,10.8945,10.9687,10.9804,11.0937,11.1953,11.2031,11.2617,11.3086,11.3164,11.2851,11.2812,11.3125,11.3164,11.3203,11.3203,11.3203,11.3203,11.3203,11.3281,11.3789,11.4101,11.4414,11.4883,11.5547,11.5703,11.5586,11.5196,11.4368,11.3584,11.2747,11.1989,11.1589,11.1532,11.1511,11.1549,11.1588,11.1588,11.178,11.2011,11.2319,11.2445,11.1934,11.1819,11.2203,11.2753,11.2329,11.206,11.178,11.1819,11.2088,11.2242,11.2395,11.2472,11.2637,11.2676,11.2945,11.3099,11.3368,11.3483,11.2329,11.1675,11.1742,11.1703,11.1549,11.1549,11.1626,11.1511,11.1511,11.1511,11.1511,11.1511,11.1511,11.1511,11.1511,11.1511,11.1511,11.1511,11.1511,11.1511,11.1511,11.1511,11.1511,11.1511,11.1511,11.1511,11.1511,11.1511,11.1511,11.1511,11.1511,11.1511,11.1511,10.6367,10.582,10.4961,10.4804,10.5078,10.539,10.5664,10.6054,10.7031,10.7734,10.7929,10.8008,10.8008,10.8008,10.8008,10.8008,10.8008,10.8008,10.8008,10.8008,10.8008,10.8437,10.8906,10.9609,11.0351,11.1172,11.2226,11.2695,11.2812,11.3086,11.3164,11.3203,11.3203,11.3203,11.3164,11.3203,11.3203,11.3203,11.3203,11.3203,11.3281,11.3711,11.414,11.4492,11.5,11.5664,11.6523,11.6562,11.6406,11.601,11.5206,11.4078,11.323,11.2528,11.1532,11.1511,11.1549,11.2099,11.2714,11.3176,11.3176,11.3483,11.3945,11.4407,11.4753,11.4791,11.483,11.4638,11.433,11.4407,11.4907,11.4868,11.5022,11.5061,11.5138,11.5138,11.5176,11.5176,11.5253,11.533,11.5533,11.4868,11.3868,11.3253,11.3137,11.2868,11.2791,11.2203,11.2088,11.1742,11.1549,11.1511,11.1511,11.1511,11.1588,11.2203,11.2357,11.2357,11.1972,11.1511,11.1511,11.1665,11.1511,11.1511,11.1511,11.1511,11.1511,11.1511,11.1511,11.1511,11.1511,11.1511,11.1511,11.1511,11.1511,10.5508,10.4961,10.4101,10.375,10.3945,10.5,10.5781,10.6445,10.7539,10.8008,10.8008,10.8008,10.8008,10.8008,10.8008,10.8008,10.8008,10.8008,10.8008,10.8008,10.8008,10.8515,10.9297,11.0195,11.0898,11.1914,11.2695,11.3164,11.3125,11.3164,11.3203,11.3203,11.3203,11.3203,11.3203,11.3203,11.3203,11.3203,11.3203,11.3203,11.332,11.3711,11.4297,11.4883,11.5508,11.6172,11.707,11.7461,11.7338,11.6937,11.5927,11.4515,11.3606,11.2575,11.1522,11.1511,11.1626,11.2368,11.3407,11.4714,11.5061,11.5945,11.6457,11.6457,11.6484,11.6138,11.6176,11.6253,11.6649,11.6599,11.6599,11.6688,11.6765,11.6726,11.6726,11.6649,11.6572,11.6484,11.6495,11.6688,11.7072,11.6292,11.5753,11.5215,11.483,11.4445,11.4022,11.356,11.3137,11.2868,11.2599,11.2483,11.2714,11.3137,11.333,11.356,11.3599,11.3291,11.2868,11.2395,11.2049,11.228,11.1895,11.1549,11.1665,11.1703,11.1549,11.1511,11.1742,11.1703,11.1511,11.1511,11.1511,11.1511,11.1511,10.4219,10.4023,10.3242,10.2969,10.3203,10.4765,10.6406,10.789,10.7969,10.8008,10.8008,10.8008,10.8008,10.8008,10.8008,10.8008,10.8008,10.8008,10.8008,10.8008,10.8008,10.8633,10.9414,11.0234,11.1172,11.1992,11.2695,11.3203,11.3203,11.3203,11.3203,11.3203,11.3203,11.3203,11.3203,11.3203,11.3203,11.3203,11.3203,11.3203,11.3281,11.3593,11.4492,11.5273,11.6015,11.6875,11.7656,11.8086,11.7148,11.6214,11.5098,11.3667,11.2509,11.1613,11.1522,11.1511,11.1511,11.2522,11.4214,11.5638,11.7253,11.81,11.7715,11.7072,11.7111,11.7611,11.7803,11.7726,11.7803,11.738,11.71,11.7265,11.7419,11.738,11.733,11.7303,11.7265,11.7265,11.7303,11.7649,11.8292,11.8138,11.7907,11.7407,11.6638,11.6638,11.6522,11.6907,11.6369,11.533,11.4945,11.4253,11.4561,11.5138,11.5253,11.5061,11.4984,11.4753,11.4445,11.4022,11.356,11.3253,11.3291,11.306,11.2203,11.2165,11.2983,11.2791,11.2252,11.2175,11.2483,11.1895,11.2011,11.1588,11.1511,10.3828,10.3281,10.3008,10.289,10.3164,10.4765,10.6445,10.789,10.8008,10.8008,10.8008,10.8008,10.8008,10.8008,10.8008,10.8008,10.8008,10.8008,10.8008,10.8008,10.8047,10.8984,10.9804,11.0547,11.1484,11.2422,11.3047,11.3203,11.3203,11.3203,11.3203,11.3203,11.3203,11.3203,11.3203,11.3203,11.3203,11.3203,11.3203,11.3242,11.3633,11.4179,11.5039,11.5742,11.6758,11.7617,11.8086,11.8281,11.7578,11.7268,11.5642,11.4305,11.4176,11.2509,11.1511,11.1511,11.178,11.2637,11.5176,11.6226,11.7677,11.9946,12.0073,12.0266,12.015,11.9804,11.9727,11.9458,11.9381,11.9227,11.9188,11.9227,11.9227,11.9227,11.9188,11.9188,11.9188,11.9188,11.9188,11.9227,11.9869,11.9446,11.9292,11.9061,11.8407,11.8677,11.8985,11.9381,11.9265,11.8073,11.6984,11.6215,11.6407,11.6957,11.6534,11.6226,11.6303,11.6215,11.6022,11.583,11.5561,11.5291,11.5099,11.4714,11.4137,11.4445,11.5215,11.4714,11.383,11.3984,11.4176,11.3214,11.2483,11.2406,11.2472,10.3398,10.2929,10.289,10.3086,10.3633,10.4883,10.6289,10.7422,10.7851,10.8008,10.8008,10.8008,10.8008,10.8008,10.8008,10.8008,10.8008,10.8008,10.8008,10.8008,10.8008,10.914,11.0039,11.0742,11.164,11.2617,11.3203,11.3203,11.3203,11.3203,11.3203,11.3203,11.3203,11.3203,11.3203,11.3203,11.3203,11.3203,11.3242,11.3398,11.4023,11.4765,11.5351,11.6328,11.7461,11.7851,11.8281,11.8281,11.8125,11.7599,11.5689,11.4673,11.4182,11.2491,11.1522,11.1511,11.1588,11.333,11.5599,11.6369,11.8484,12.0523,12.1612,12.1458,12.1381,12.1073,12.115,12.1112,12.1304,12.1458,12.1497,12.1535,12.1497,12.1458,12.1458,12.1458,12.1458,12.1458,12.1381,12.1227,12.0946,12.0408,12.0139,12.0062,12.01,12.0254,12.0408,12.065,12.0612,11.9985,11.8831,11.783,11.8254,11.8715,11.815,11.7842,11.8342,11.8369,11.7869,11.7715,11.7523,11.688,11.6176,11.6138,11.6176,11.6484,11.6638,11.6341,11.5803,11.588,11.5764,11.5138,11.4561,11.4407,11.4561,10.2929,10.289,10.289,10.3359,10.4258,10.5117,10.5976,10.6758,10.7656,10.8008,10.8008,10.8008,10.8008,10.8008,10.8008,10.8008,10.8008,10.8008,10.8008,10.8008,10.8008,10.8906,10.9922,11.0664,11.1484,11.2539,11.3164,11.3203,11.3203,11.3203,11.3203,11.3203,11.3203,11.3203,11.3203,11.3203,11.3203,11.3203,11.3281,11.3476,11.4218,11.4765,11.5312,11.6679,11.7265,11.7539,11.8086,11.8125,11.7764,11.6662,11.5547,11.4419,11.3054,11.2214,11.1673,11.1511,11.1511,11.3445,11.5484,11.6446,11.8457,12.0304,12.1612,12.1612,12.1612,12.1612,12.1612,12.1612,12.1612,12.1612,12.1612,12.1612,12.1612,12.1612,12.1612,12.1612,12.1612,12.1612,12.1574,12.1497,12.1381,12.0946,12.0946,12.0843,12.0804,12.1304,12.1458,12.1574,12.1458,12.1139,12.0408,11.9331,11.9677,12.0035,11.9869,11.9804,12.0689,12.0639,11.9792,11.9485,11.9254,11.8303,11.7072,11.7649,11.838,11.7765,11.7611,11.7765,11.7765,11.7188,11.7072,11.6995,11.6726,11.6572,11.6561,10.289,10.289,10.289,10.3398,10.4258,10.5117,10.5937,10.6758,10.7617,10.8008,10.8008,10.8008,10.8008,10.8008,10.8008,10.8008,10.8008,10.8008,10.8008,10.8008,10.8008,10.8711,10.9687,11.0429,11.1289,11.2109,11.2734,11.3203,11.3203,11.3203,11.3203,11.3203,11.3203,11.3203,11.3203,11.3203,11.3203,11.3203,11.3398,11.3789,11.4531,11.5234,11.5976,11.6914,11.7461,11.789,11.8281,11.8203,11.7599,11.6621,11.5503,11.3953,11.2059,11.1683,11.1532,11.1511,11.1588,11.3407,11.5368,11.6715,11.8292,12.0342,12.1612,12.1612,12.1612,12.1612,12.1612,12.1612,12.1612,12.1612,12.1612,12.1612,12.1612,12.1612,12.1612,12.1612,12.1612,12.1612,12.1612,12.1612,12.1612,12.1612,12.1612,12.1612,12.1612,12.1574,12.1535,12.1612,12.1612,12.142,12.1381,12.065,12.0881,12.1112,12.1023,12.0985,12.142,12.1612,12.0831,12.0793,12.0869,12.0073,11.9188,12.0073,12.0535,11.9727,11.9535,12.0304,12.0112,11.9034,11.8842,11.8919,11.9034,11.8908,11.8869,10.289,10.289,10.289,10.3164,10.3789,10.4961,10.5781,10.6328,10.7461,10.8008,10.8008,10.8008,10.8008,10.8008,10.8008,10.8008,10.8008,10.8008,10.8008,10.8008,10.8164,10.8906,10.9609,11.0351,11.1523,11.2343,11.2812,11.3203,11.3203,11.3203,11.3203,11.3203,11.3203,11.3203,11.3203,11.3203,11.3203,11.3203,11.3554,11.4218,11.4922,11.5586,11.6172,11.6992,11.7734,11.8164,11.8086,11.7924,11.7223,11.6211,11.5004,11.3429,11.2001,11.1581,11.1511,11.1511,11.1895,11.2945,11.5368,11.6995,11.8188,12.0381,12.1612,12.1612,12.1612,12.1612,12.1612,12.1612,12.1612,12.1612,12.1612,12.1612,12.1612,12.1612,12.1612,12.1612,12.1612,12.1612,12.1612,12.1612,12.1612,12.1612,12.1612,12.1612,12.1612,12.1612,12.1612,12.1612,12.1612,12.1612,12.1612,12.1612,12.1612,12.1612,12.1381,12.1343,12.1497,12.1612,12.1612,12.1458,12.1266,12.142,12.1497,12.1458,12.142,12.1304,12.1381,12.1612,12.1497,12.0458,12.065,12.0997,12.1035,12.0804,12.0485,10.289,10.289,10.289,10.2929,10.3164,10.4765,10.5508,10.582,10.7265,10.8008,10.8008,10.8008,10.8008,10.8008,10.8008,10.8008,10.8008,10.8008,10.8008,10.8008,10.8008,10.8789,10.9687,11.0586,11.164,11.2539,11.3125,11.3203,11.3203,11.3203,11.3203,11.3203,11.3203,11.3203,11.3203,11.3203,11.3242,11.3633,11.4101,11.4843,11.539,11.5898,11.6484,11.7187,11.7694,11.8084,11.7723,11.714,11.6485,11.535,11.4078,11.278,11.1932,11.1511,11.1511,11.1549,11.2099,11.3753,11.5792,11.7034,11.8881,12.0689,12.1304,12.1612,12.1612,12.1612,12.1612,12.1612,12.1612,12.1612,12.1612,12.1612,12.1612,12.1612,12.1612,12.1612,12.1612,12.1612,12.1612,12.1612,12.1612,12.1612,12.1612,12.1612,12.1612,12.1612,12.1612,12.1612,12.1612,12.1612,12.1612,12.1612,12.1612,12.1612,12.1612,12.1612,12.1612,12.1612,12.1612,12.1612,12.1612,12.1612,12.1612,12.1574,12.1574,12.1612,12.1612,12.1612,12.1458,12.1408,12.142,12.1458,12.142,12.1266,12.142,10.289,10.289,10.289,10.289,10.3164,10.4765,10.5508,10.5781,10.7265,10.8008,10.8008,10.8008,10.8008,10.8008,10.8008,10.8008,10.8008,10.8008,10.8008,10.8008,10.8008,10.8711,10.9687,11.0859,11.1758,11.2578,11.3203,11.3203,11.3203,11.3203,11.3203,11.3203,11.3203,11.3203,11.3203,11.3281,11.3593,11.4023,11.4375,11.4961,11.5664,11.6328,11.7226,11.7461,11.7316,11.7099,11.6618,11.5791,11.4835,11.3727,11.278,11.1991,11.1662,11.1511,11.1511,11.1857,11.2406,11.4253,11.5984,11.7523,11.9562,12.1112,12.1612,12.1612,12.1612,12.1612,12.1612,12.1612,12.1612,12.1612,12.1612,12.1612,12.1612,12.1612,12.1612,12.1612,12.1612,12.1612,12.1612,12.1612,12.1612,12.1612,12.1612,12.1612,12.1612,12.1651,12.1766,12.1727,12.16,12.1612,12.1689,12.1689,12.1689,12.1612,12.1612,12.1612,12.1612,12.1612,12.1612,12.1612,12.1612,12.1612,12.1612,12.1612,12.1612,12.1639,12.1612,12.1754,12.1689,12.1689,12.1574,12.1574,12.1612,12.1612,12.1612]}]]